<?xml version="1.0" encoding="UTF-8" standalone="no" ?>
<gpx xmlns="http://www.topografix.com/GPX/1/1" xmlns:xsi="http://www.w3.org/2001/XMLSchema-instance" xsi:schemaLocation="http://www.topografix.com/GPX/1/1 http://www.topografix.com/GPX/1/1/gpx.xsd" version="1.1" creator="VisuGPX - https://www.visugpx.com">
  <metadata>
    <name>BOUTROUDE 2021modifiée</name>
  </metadata>
  <wpt lat="49.33538" lon="0.91829">
    <ele>76.2</ele>
  </wpt>
  <trk>
    <name><![CDATA[BOUTROUDE 2021modifiée_1]]></name>
    <trkseg>
      <trkpt lat="49.33546" lon="0.91801">
        <ele>72</ele>
        <time>2020-05-17T08:09:54Z</time>
      </trkpt>
      <trkpt lat="49.33541" lon="0.91824">
        <ele>71</ele>
        <time>2020-05-17T08:09:58Z</time>
      </trkpt>
      <trkpt lat="49.33541" lon="0.91827">
        <ele>71</ele>
        <time>2020-05-17T08:10:03Z</time>
      </trkpt>
      <trkpt lat="49.33535" lon="0.91836">
        <ele>71</ele>
        <time>2020-05-17T08:10:19Z</time>
      </trkpt>
      <trkpt lat="49.33535" lon="0.91835">
        <ele>71</ele>
        <time>2020-05-17T08:10:38Z</time>
      </trkpt>
      <trkpt lat="49.33536" lon="0.91834">
        <ele>71</ele>
        <time>2020-05-17T08:10:52Z</time>
      </trkpt>
      <trkpt lat="49.33537" lon="0.91834">
        <ele>70</ele>
        <time>2020-05-17T08:11:12Z</time>
      </trkpt>
      <trkpt lat="49.33538" lon="0.91833">
        <ele>70</ele>
        <time>2020-05-17T08:11:22Z</time>
      </trkpt>
      <trkpt lat="49.3354" lon="0.91834">
        <ele>70</ele>
        <time>2020-05-17T08:11:33Z</time>
      </trkpt>
      <trkpt lat="49.33537" lon="0.91835">
        <ele>70</ele>
        <time>2020-05-17T08:11:37Z</time>
      </trkpt>
      <trkpt lat="49.33534" lon="0.91834">
        <ele>69</ele>
        <time>2020-05-17T08:11:40Z</time>
      </trkpt>
      <trkpt lat="49.33533" lon="0.9183">
        <ele>69</ele>
        <time>2020-05-17T08:11:42Z</time>
      </trkpt>
      <trkpt lat="49.33531" lon="0.91822">
        <ele>67</ele>
        <time>2020-05-17T08:11:45Z</time>
      </trkpt>
      <trkpt lat="49.33531" lon="0.91818">
        <ele>67</ele>
        <time>2020-05-17T08:11:46Z</time>
      </trkpt>
      <trkpt lat="49.33531" lon="0.91814">
        <ele>67</ele>
        <time>2020-05-17T08:11:47Z</time>
      </trkpt>
      <trkpt lat="49.33531" lon="0.91808">
        <ele>67</ele>
        <time>2020-05-17T08:11:48Z</time>
      </trkpt>
      <trkpt lat="49.3353" lon="0.91777">
        <ele>65</ele>
        <time>2020-05-17T08:11:54Z</time>
      </trkpt>
      <trkpt lat="49.33529" lon="0.91771">
        <ele>65</ele>
        <time>2020-05-17T08:11:55Z</time>
      </trkpt>
      <trkpt lat="49.33528" lon="0.91756">
        <ele>64</ele>
        <time>2020-05-17T08:11:57Z</time>
      </trkpt>
      <trkpt lat="49.33527" lon="0.91749">
        <ele>63</ele>
        <time>2020-05-17T08:11:58Z</time>
      </trkpt>
      <trkpt lat="49.33526" lon="0.91741">
        <ele>63</ele>
        <time>2020-05-17T08:11:59Z</time>
      </trkpt>
      <trkpt lat="49.33524" lon="0.91712">
        <ele>62</ele>
        <time>2020-05-17T08:12:02Z</time>
      </trkpt>
      <trkpt lat="49.33524" lon="0.91703">
        <ele>61</ele>
        <time>2020-05-17T08:12:03Z</time>
      </trkpt>
      <trkpt lat="49.33531" lon="0.91645">
        <ele>61</ele>
        <time>2020-05-17T08:12:10Z</time>
      </trkpt>
      <trkpt lat="49.33537" lon="0.91616">
        <ele>61</ele>
        <time>2020-05-17T08:12:14Z</time>
      </trkpt>
      <trkpt lat="49.33546" lon="0.91588">
        <ele>61</ele>
        <time>2020-05-17T08:12:18Z</time>
      </trkpt>
      <trkpt lat="49.33547" lon="0.9158">
        <ele>61</ele>
        <time>2020-05-17T08:12:19Z</time>
      </trkpt>
      <trkpt lat="49.33548" lon="0.91573">
        <ele>61</ele>
        <time>2020-05-17T08:12:20Z</time>
      </trkpt>
      <trkpt lat="49.3355" lon="0.91558">
        <ele>62</ele>
        <time>2020-05-17T08:12:22Z</time>
      </trkpt>
      <trkpt lat="49.33551" lon="0.9155">
        <ele>62</ele>
        <time>2020-05-17T08:12:23Z</time>
      </trkpt>
      <trkpt lat="49.33555" lon="0.91536">
        <ele>62</ele>
        <time>2020-05-17T08:12:25Z</time>
      </trkpt>
      <trkpt lat="49.33558" lon="0.91529">
        <ele>62</ele>
        <time>2020-05-17T08:12:26Z</time>
      </trkpt>
      <trkpt lat="49.33561" lon="0.91523">
        <ele>62</ele>
        <time>2020-05-17T08:12:27Z</time>
      </trkpt>
      <trkpt lat="49.33567" lon="0.91513">
        <ele>62</ele>
        <time>2020-05-17T08:12:29Z</time>
      </trkpt>
      <trkpt lat="49.33584" lon="0.91488">
        <ele>63</ele>
        <time>2020-05-17T08:12:34Z</time>
      </trkpt>
      <trkpt lat="49.33616" lon="0.91446">
        <ele>63</ele>
        <time>2020-05-17T08:12:43Z</time>
      </trkpt>
      <trkpt lat="49.33638" lon="0.91416">
        <ele>62</ele>
        <time>2020-05-17T08:12:49Z</time>
      </trkpt>
      <trkpt lat="49.33645" lon="0.91406">
        <ele>62</ele>
        <time>2020-05-17T08:12:51Z</time>
      </trkpt>
      <trkpt lat="49.33649" lon="0.91401">
        <ele>62</ele>
        <time>2020-05-17T08:12:52Z</time>
      </trkpt>
      <trkpt lat="49.33689" lon="0.91352">
        <ele>62</ele>
        <time>2020-05-17T08:13:02Z</time>
      </trkpt>
      <trkpt lat="49.33728" lon="0.91304">
        <ele>61</ele>
        <time>2020-05-17T08:13:13Z</time>
      </trkpt>
      <trkpt lat="49.33765" lon="0.91259">
        <ele>61</ele>
        <time>2020-05-17T08:13:23Z</time>
      </trkpt>
      <trkpt lat="49.33803" lon="0.91211">
        <ele>61</ele>
        <time>2020-05-17T08:13:33Z</time>
      </trkpt>
      <trkpt lat="49.33829" lon="0.91172">
        <ele>61</ele>
        <time>2020-05-17T08:13:41Z</time>
      </trkpt>
      <trkpt lat="49.33835" lon="0.91155">
        <ele>61</ele>
        <time>2020-05-17T08:13:44Z</time>
      </trkpt>
      <trkpt lat="49.33839" lon="0.91135">
        <ele>61</ele>
        <time>2020-05-17T08:13:47Z</time>
      </trkpt>
      <trkpt lat="49.3384" lon="0.91128">
        <ele>61</ele>
        <time>2020-05-17T08:13:48Z</time>
      </trkpt>
      <trkpt lat="49.3384" lon="0.91122">
        <ele>61</ele>
        <time>2020-05-17T08:13:49Z</time>
      </trkpt>
      <trkpt lat="49.33839" lon="0.91115">
        <ele>61</ele>
        <time>2020-05-17T08:13:50Z</time>
      </trkpt>
      <trkpt lat="49.33839" lon="0.91109">
        <ele>61</ele>
        <time>2020-05-17T08:13:51Z</time>
      </trkpt>
      <trkpt lat="49.33838" lon="0.91103">
        <ele>61</ele>
        <time>2020-05-17T08:13:52Z</time>
      </trkpt>
      <trkpt lat="49.33828" lon="0.91052">
        <ele>61</ele>
        <time>2020-05-17T08:14:01Z</time>
      </trkpt>
      <trkpt lat="49.33821" lon="0.91025">
        <ele>63</ele>
        <time>2020-05-17T08:14:06Z</time>
      </trkpt>
      <trkpt lat="49.33807" lon="0.9099">
        <ele>63</ele>
        <time>2020-05-17T08:14:15Z</time>
      </trkpt>
      <trkpt lat="49.33796" lon="0.90971">
        <ele>62</ele>
        <time>2020-05-17T08:14:23Z</time>
      </trkpt>
      <trkpt lat="49.33788" lon="0.90957">
        <ele>62</ele>
        <time>2020-05-17T08:14:31Z</time>
      </trkpt>
      <trkpt lat="49.33784" lon="0.9095">
        <ele>62</ele>
        <time>2020-05-17T08:14:36Z</time>
      </trkpt>
      <trkpt lat="49.33785" lon="0.9095">
        <ele>62</ele>
        <time>2020-05-17T08:14:47Z</time>
      </trkpt>
      <trkpt lat="49.33785" lon="0.9095">
        <ele>61</ele>
        <time>2020-05-17T08:15:03Z</time>
      </trkpt>
      <trkpt lat="49.33782" lon="0.90953">
        <ele>61</ele>
        <time>2020-05-17T08:15:21Z</time>
      </trkpt>
      <trkpt lat="49.33781" lon="0.90947">
        <ele>61</ele>
        <time>2020-05-17T08:15:28Z</time>
      </trkpt>
      <trkpt lat="49.33779" lon="0.90946">
        <ele>61</ele>
        <time>2020-05-17T08:15:29Z</time>
      </trkpt>
      <trkpt lat="49.33778" lon="0.90944">
        <ele>61</ele>
        <time>2020-05-17T08:15:30Z</time>
      </trkpt>
      <trkpt lat="49.33777" lon="0.90941">
        <ele>61</ele>
        <time>2020-05-17T08:15:31Z</time>
      </trkpt>
      <trkpt lat="49.33777" lon="0.90937">
        <ele>62</ele>
        <time>2020-05-17T08:15:32Z</time>
      </trkpt>
      <trkpt lat="49.33777" lon="0.90934">
        <ele>62</ele>
        <time>2020-05-17T08:15:33Z</time>
      </trkpt>
      <trkpt lat="49.33778" lon="0.90931">
        <ele>62</ele>
        <time>2020-05-17T08:15:34Z</time>
      </trkpt>
      <trkpt lat="49.33779" lon="0.90928">
        <ele>62</ele>
        <time>2020-05-17T08:15:35Z</time>
      </trkpt>
      <trkpt lat="49.33781" lon="0.90913">
        <ele>63</ele>
        <time>2020-05-17T08:15:42Z</time>
      </trkpt>
      <trkpt lat="49.33781" lon="0.90911">
        <ele>63</ele>
        <time>2020-05-17T08:15:43Z</time>
      </trkpt>
      <trkpt lat="49.33782" lon="0.90909">
        <ele>64</ele>
        <time>2020-05-17T08:15:44Z</time>
      </trkpt>
      <trkpt lat="49.33783" lon="0.90899">
        <ele>64</ele>
        <time>2020-05-17T08:15:50Z</time>
      </trkpt>
      <trkpt lat="49.33784" lon="0.90897">
        <ele>64</ele>
        <time>2020-05-17T08:15:51Z</time>
      </trkpt>
      <trkpt lat="49.33784" lon="0.90895">
        <ele>65</ele>
        <time>2020-05-17T08:15:52Z</time>
      </trkpt>
      <trkpt lat="49.33785" lon="0.90893">
        <ele>65</ele>
        <time>2020-05-17T08:15:53Z</time>
      </trkpt>
      <trkpt lat="49.33784" lon="0.90875">
        <ele>66</ele>
        <time>2020-05-17T08:16:01Z</time>
      </trkpt>
      <trkpt lat="49.33786" lon="0.90857">
        <ele>67</ele>
        <time>2020-05-17T08:16:09Z</time>
      </trkpt>
      <trkpt lat="49.33788" lon="0.90845">
        <ele>68</ele>
        <time>2020-05-17T08:16:15Z</time>
      </trkpt>
      <trkpt lat="49.3379" lon="0.90833">
        <ele>68</ele>
        <time>2020-05-17T08:16:21Z</time>
      </trkpt>
      <trkpt lat="49.33792" lon="0.90827">
        <ele>69</ele>
        <time>2020-05-17T08:16:24Z</time>
      </trkpt>
      <trkpt lat="49.33794" lon="0.90808">
        <ele>71</ele>
        <time>2020-05-17T08:16:33Z</time>
      </trkpt>
      <trkpt lat="49.33795" lon="0.90796">
        <ele>72</ele>
        <time>2020-05-17T08:16:41Z</time>
      </trkpt>
      <trkpt lat="49.33797" lon="0.90781">
        <ele>73</ele>
        <time>2020-05-17T08:16:49Z</time>
      </trkpt>
      <trkpt lat="49.33799" lon="0.90766">
        <ele>75</ele>
        <time>2020-05-17T08:16:57Z</time>
      </trkpt>
      <trkpt lat="49.33802" lon="0.90754">
        <ele>76</ele>
        <time>2020-05-17T08:17:05Z</time>
      </trkpt>
      <trkpt lat="49.33804" lon="0.9074">
        <ele>77</ele>
        <time>2020-05-17T08:17:13Z</time>
      </trkpt>
      <trkpt lat="49.33806" lon="0.90732">
        <ele>78</ele>
        <time>2020-05-17T08:17:17Z</time>
      </trkpt>
      <trkpt lat="49.33807" lon="0.90725">
        <ele>79</ele>
        <time>2020-05-17T08:17:20Z</time>
      </trkpt>
      <trkpt lat="49.33808" lon="0.90718">
        <ele>80</ele>
        <time>2020-05-17T08:17:23Z</time>
      </trkpt>
      <trkpt lat="49.33811" lon="0.907">
        <ele>83</ele>
        <time>2020-05-17T08:17:31Z</time>
      </trkpt>
      <trkpt lat="49.33814" lon="0.90685">
        <ele>85</ele>
        <time>2020-05-17T08:17:40Z</time>
      </trkpt>
      <trkpt lat="49.33816" lon="0.90688">
        <ele>86</ele>
        <time>2020-05-17T08:17:46Z</time>
      </trkpt>
      <trkpt lat="49.33819" lon="0.90683">
        <ele>88</ele>
        <time>2020-05-17T08:17:53Z</time>
      </trkpt>
      <trkpt lat="49.33819" lon="0.90674">
        <ele>89</ele>
        <time>2020-05-17T08:18:03Z</time>
      </trkpt>
      <trkpt lat="49.33818" lon="0.90672">
        <ele>90</ele>
        <time>2020-05-17T08:18:05Z</time>
      </trkpt>
      <trkpt lat="49.33815" lon="0.90662">
        <ele>89</ele>
        <time>2020-05-17T08:18:12Z</time>
      </trkpt>
      <trkpt lat="49.33816" lon="0.90657">
        <ele>89</ele>
        <time>2020-05-17T08:18:22Z</time>
      </trkpt>
      <trkpt lat="49.33819" lon="0.90655">
        <ele>90</ele>
        <time>2020-05-17T08:18:30Z</time>
      </trkpt>
      <trkpt lat="49.33822" lon="0.90652">
        <ele>90</ele>
        <time>2020-05-17T08:18:51Z</time>
      </trkpt>
      <trkpt lat="49.33821" lon="0.9065">
        <ele>90</ele>
        <time>2020-05-17T08:18:58Z</time>
      </trkpt>
      <trkpt lat="49.3382" lon="0.90643">
        <ele>90</ele>
        <time>2020-05-17T08:19:06Z</time>
      </trkpt>
      <trkpt lat="49.33821" lon="0.90642">
        <ele>91</ele>
        <time>2020-05-17T08:19:07Z</time>
      </trkpt>
      <trkpt lat="49.33821" lon="0.9064">
        <ele>91</ele>
        <time>2020-05-17T08:19:08Z</time>
      </trkpt>
      <trkpt lat="49.33822" lon="0.90638">
        <ele>91</ele>
        <time>2020-05-17T08:19:09Z</time>
      </trkpt>
      <trkpt lat="49.33822" lon="0.90635">
        <ele>92</ele>
        <time>2020-05-17T08:19:10Z</time>
      </trkpt>
      <trkpt lat="49.33823" lon="0.90632">
        <ele>92</ele>
        <time>2020-05-17T08:19:11Z</time>
      </trkpt>
      <trkpt lat="49.33823" lon="0.90629">
        <ele>93</ele>
        <time>2020-05-17T08:19:12Z</time>
      </trkpt>
      <trkpt lat="49.33824" lon="0.9062">
        <ele>94</ele>
        <time>2020-05-17T08:19:15Z</time>
      </trkpt>
      <trkpt lat="49.33825" lon="0.9061">
        <ele>96</ele>
        <time>2020-05-17T08:19:18Z</time>
      </trkpt>
      <trkpt lat="49.33826" lon="0.906">
        <ele>98</ele>
        <time>2020-05-17T08:19:21Z</time>
      </trkpt>
      <trkpt lat="49.33825" lon="0.90582">
        <ele>101</ele>
        <time>2020-05-17T08:19:25Z</time>
      </trkpt>
      <trkpt lat="49.33825" lon="0.90552">
        <ele>102</ele>
        <time>2020-05-17T08:19:32Z</time>
      </trkpt>
      <trkpt lat="49.33825" lon="0.90547">
        <ele>102</ele>
        <time>2020-05-17T08:19:39Z</time>
      </trkpt>
      <trkpt lat="49.33825" lon="0.9054">
        <ele>101</ele>
        <time>2020-05-17T08:19:55Z</time>
      </trkpt>
      <trkpt lat="49.33823" lon="0.90539">
        <ele>101</ele>
        <time>2020-05-17T08:20:14Z</time>
      </trkpt>
      <trkpt lat="49.33822" lon="0.90532">
        <ele>101</ele>
        <time>2020-05-17T08:20:40Z</time>
      </trkpt>
      <trkpt lat="49.33828" lon="0.90507">
        <ele>99</ele>
        <time>2020-05-17T08:20:46Z</time>
      </trkpt>
      <trkpt lat="49.33832" lon="0.9049">
        <ele>98</ele>
        <time>2020-05-17T08:20:48Z</time>
      </trkpt>
      <trkpt lat="49.33834" lon="0.90482">
        <ele>97</ele>
        <time>2020-05-17T08:20:49Z</time>
      </trkpt>
      <trkpt lat="49.33837" lon="0.90475">
        <ele>97</ele>
        <time>2020-05-17T08:20:50Z</time>
      </trkpt>
      <trkpt lat="49.33843" lon="0.90455">
        <ele>96</ele>
        <time>2020-05-17T08:20:53Z</time>
      </trkpt>
      <trkpt lat="49.3385" lon="0.90428">
        <ele>94</ele>
        <time>2020-05-17T08:20:57Z</time>
      </trkpt>
      <trkpt lat="49.33854" lon="0.90416">
        <ele>94</ele>
        <time>2020-05-17T08:20:59Z</time>
      </trkpt>
      <trkpt lat="49.33856" lon="0.90409">
        <ele>93</ele>
        <time>2020-05-17T08:21:00Z</time>
      </trkpt>
      <trkpt lat="49.33858" lon="0.90403">
        <ele>93</ele>
        <time>2020-05-17T08:21:01Z</time>
      </trkpt>
      <trkpt lat="49.33862" lon="0.90388">
        <ele>92</ele>
        <time>2020-05-17T08:21:03Z</time>
      </trkpt>
      <trkpt lat="49.33864" lon="0.90382">
        <ele>91</ele>
        <time>2020-05-17T08:21:04Z</time>
      </trkpt>
      <trkpt lat="49.33867" lon="0.90376">
        <ele>91</ele>
        <time>2020-05-17T08:21:05Z</time>
      </trkpt>
      <trkpt lat="49.33869" lon="0.90372">
        <ele>91</ele>
        <time>2020-05-17T08:21:06Z</time>
      </trkpt>
      <trkpt lat="49.3387" lon="0.90369">
        <ele>91</ele>
        <time>2020-05-17T08:21:07Z</time>
      </trkpt>
      <trkpt lat="49.33871" lon="0.90366">
        <ele>91</ele>
        <time>2020-05-17T08:21:08Z</time>
      </trkpt>
      <trkpt lat="49.33872" lon="0.90364">
        <ele>90</ele>
        <time>2020-05-17T08:21:09Z</time>
      </trkpt>
      <trkpt lat="49.33874" lon="0.90362">
        <ele>90</ele>
        <time>2020-05-17T08:21:10Z</time>
      </trkpt>
      <trkpt lat="49.33876" lon="0.90359">
        <ele>90</ele>
        <time>2020-05-17T08:21:11Z</time>
      </trkpt>
      <trkpt lat="49.33877" lon="0.90357">
        <ele>90</ele>
        <time>2020-05-17T08:21:12Z</time>
      </trkpt>
      <trkpt lat="49.33877" lon="0.90353">
        <ele>90</ele>
        <time>2020-05-17T08:21:13Z</time>
      </trkpt>
      <trkpt lat="49.33879" lon="0.90349">
        <ele>90</ele>
        <time>2020-05-17T08:21:14Z</time>
      </trkpt>
      <trkpt lat="49.33881" lon="0.90346">
        <ele>90</ele>
        <time>2020-05-17T08:21:15Z</time>
      </trkpt>
      <trkpt lat="49.33882" lon="0.90343">
        <ele>90</ele>
        <time>2020-05-17T08:21:16Z</time>
      </trkpt>
      <trkpt lat="49.33895" lon="0.90321">
        <ele>91</ele>
        <time>2020-05-17T08:21:23Z</time>
      </trkpt>
      <trkpt lat="49.33896" lon="0.90317">
        <ele>91</ele>
        <time>2020-05-17T08:21:24Z</time>
      </trkpt>
      <trkpt lat="49.33908" lon="0.90291">
        <ele>91</ele>
        <time>2020-05-17T08:21:30Z</time>
      </trkpt>
      <trkpt lat="49.33924" lon="0.90252">
        <ele>91</ele>
        <time>2020-05-17T08:21:38Z</time>
      </trkpt>
      <trkpt lat="49.33937" lon="0.90214">
        <ele>91</ele>
        <time>2020-05-17T08:21:46Z</time>
      </trkpt>
      <trkpt lat="49.33944" lon="0.90188">
        <ele>91</ele>
        <time>2020-05-17T08:21:52Z</time>
      </trkpt>
      <trkpt lat="49.33954" lon="0.90162">
        <ele>91</ele>
        <time>2020-05-17T08:21:58Z</time>
      </trkpt>
      <trkpt lat="49.33964" lon="0.90131">
        <ele>91</ele>
        <time>2020-05-17T08:22:05Z</time>
      </trkpt>
      <trkpt lat="49.33972" lon="0.90098">
        <ele>90</ele>
        <time>2020-05-17T08:22:11Z</time>
      </trkpt>
      <trkpt lat="49.33983" lon="0.90073">
        <ele>90</ele>
        <time>2020-05-17T08:22:16Z</time>
      </trkpt>
      <trkpt lat="49.3399" lon="0.90058">
        <ele>91</ele>
        <time>2020-05-17T08:22:19Z</time>
      </trkpt>
      <trkpt lat="49.34004" lon="0.90024">
        <ele>94</ele>
        <time>2020-05-17T08:22:26Z</time>
      </trkpt>
      <trkpt lat="49.34015" lon="0.89997">
        <ele>97</ele>
        <time>2020-05-17T08:22:33Z</time>
      </trkpt>
      <trkpt lat="49.34028" lon="0.89963">
        <ele>98</ele>
        <time>2020-05-17T08:22:41Z</time>
      </trkpt>
      <trkpt lat="49.34042" lon="0.8992">
        <ele>94</ele>
        <time>2020-05-17T08:22:48Z</time>
      </trkpt>
      <trkpt lat="49.34044" lon="0.89915">
        <ele>93</ele>
        <time>2020-05-17T08:22:49Z</time>
      </trkpt>
      <trkpt lat="49.34047" lon="0.89909">
        <ele>92</ele>
        <time>2020-05-17T08:22:50Z</time>
      </trkpt>
      <trkpt lat="49.34049" lon="0.89904">
        <ele>91</ele>
        <time>2020-05-17T08:22:51Z</time>
      </trkpt>
      <trkpt lat="49.3405" lon="0.899">
        <ele>90</ele>
        <time>2020-05-17T08:22:52Z</time>
      </trkpt>
      <trkpt lat="49.34051" lon="0.89897">
        <ele>89</ele>
        <time>2020-05-17T08:22:53Z</time>
      </trkpt>
      <trkpt lat="49.34054" lon="0.89893">
        <ele>88</ele>
        <time>2020-05-17T08:22:56Z</time>
      </trkpt>
      <trkpt lat="49.34057" lon="0.89892">
        <ele>88</ele>
        <time>2020-05-17T08:22:59Z</time>
      </trkpt>
      <trkpt lat="49.34062" lon="0.89896">
        <ele>89</ele>
        <time>2020-05-17T08:23:05Z</time>
      </trkpt>
      <trkpt lat="49.34064" lon="0.89896">
        <ele>90</ele>
        <time>2020-05-17T08:23:14Z</time>
      </trkpt>
      <trkpt lat="49.34068" lon="0.89894">
        <ele>90</ele>
        <time>2020-05-17T08:23:29Z</time>
      </trkpt>
      <trkpt lat="49.34077" lon="0.89898">
        <ele>93</ele>
        <time>2020-05-17T08:23:35Z</time>
      </trkpt>
      <trkpt lat="49.34087" lon="0.89905">
        <ele>95</ele>
        <time>2020-05-17T08:23:42Z</time>
      </trkpt>
      <trkpt lat="49.341" lon="0.89914">
        <ele>97</ele>
        <time>2020-05-17T08:23:49Z</time>
      </trkpt>
      <trkpt lat="49.34112" lon="0.89922">
        <ele>100</ele>
        <time>2020-05-17T08:23:55Z</time>
      </trkpt>
      <trkpt lat="49.34127" lon="0.89934">
        <ele>103</ele>
        <time>2020-05-17T08:24:01Z</time>
      </trkpt>
      <trkpt lat="49.34129" lon="0.89937">
        <ele>103</ele>
        <time>2020-05-17T08:24:02Z</time>
      </trkpt>
      <trkpt lat="49.34137" lon="0.89941">
        <ele>104</ele>
        <time>2020-05-17T08:24:05Z</time>
      </trkpt>
      <trkpt lat="49.34145" lon="0.89937">
        <ele>105</ele>
        <time>2020-05-17T08:24:10Z</time>
      </trkpt>
      <trkpt lat="49.34144" lon="0.89935">
        <ele>103</ele>
        <time>2020-05-17T08:24:15Z</time>
      </trkpt>
      <trkpt lat="49.34146" lon="0.89937">
        <ele>103</ele>
        <time>2020-05-17T08:24:25Z</time>
      </trkpt>
      <trkpt lat="49.34154" lon="0.89939">
        <ele>103</ele>
        <time>2020-05-17T08:24:49Z</time>
      </trkpt>
      <trkpt lat="49.34157" lon="0.89942">
        <ele>103</ele>
        <time>2020-05-17T08:25:11Z</time>
      </trkpt>
      <trkpt lat="49.34156" lon="0.89941">
        <ele>103</ele>
        <time>2020-05-17T08:25:23Z</time>
      </trkpt>
      <trkpt lat="49.34156" lon="0.89938">
        <ele>103</ele>
        <time>2020-05-17T08:25:34Z</time>
      </trkpt>
      <trkpt lat="49.34153" lon="0.89929">
        <ele>103</ele>
        <time>2020-05-17T08:25:42Z</time>
      </trkpt>
      <trkpt lat="49.34153" lon="0.8993">
        <ele>103</ele>
        <time>2020-05-17T08:25:51Z</time>
      </trkpt>
      <trkpt lat="49.34153" lon="0.89931">
        <ele>103</ele>
        <time>2020-05-17T08:26:06Z</time>
      </trkpt>
      <trkpt lat="49.3415" lon="0.89933">
        <ele>102</ele>
        <time>2020-05-17T08:26:22Z</time>
      </trkpt>
      <trkpt lat="49.3415" lon="0.8993">
        <ele>102</ele>
        <time>2020-05-17T08:26:35Z</time>
      </trkpt>
      <trkpt lat="49.34148" lon="0.89914">
        <ele>102</ele>
        <time>2020-05-17T08:26:41Z</time>
      </trkpt>
      <trkpt lat="49.34147" lon="0.8991">
        <ele>102</ele>
        <time>2020-05-17T08:26:42Z</time>
      </trkpt>
      <trkpt lat="49.34146" lon="0.89906">
        <ele>102</ele>
        <time>2020-05-17T08:26:43Z</time>
      </trkpt>
      <trkpt lat="49.34146" lon="0.89904">
        <ele>102</ele>
        <time>2020-05-17T08:26:44Z</time>
      </trkpt>
      <trkpt lat="49.34145" lon="0.899">
        <ele>101</ele>
        <time>2020-05-17T08:26:45Z</time>
      </trkpt>
      <trkpt lat="49.34144" lon="0.89895">
        <ele>101</ele>
        <time>2020-05-17T08:26:46Z</time>
      </trkpt>
      <trkpt lat="49.34134" lon="0.89872">
        <ele>100</ele>
        <time>2020-05-17T08:26:52Z</time>
      </trkpt>
      <trkpt lat="49.34124" lon="0.89848">
        <ele>99</ele>
        <time>2020-05-17T08:26:59Z</time>
      </trkpt>
      <trkpt lat="49.34112" lon="0.89829">
        <ele>99</ele>
        <time>2020-05-17T08:27:05Z</time>
      </trkpt>
      <trkpt lat="49.34102" lon="0.8981">
        <ele>99</ele>
        <time>2020-05-17T08:27:12Z</time>
      </trkpt>
      <trkpt lat="49.34088" lon="0.89781">
        <ele>98</ele>
        <time>2020-05-17T08:27:19Z</time>
      </trkpt>
      <trkpt lat="49.34073" lon="0.8976">
        <ele>98</ele>
        <time>2020-05-17T08:27:24Z</time>
      </trkpt>
      <trkpt lat="49.34059" lon="0.89733">
        <ele>95</ele>
        <time>2020-05-17T08:27:30Z</time>
      </trkpt>
      <trkpt lat="49.34056" lon="0.89728">
        <ele>95</ele>
        <time>2020-05-17T08:27:31Z</time>
      </trkpt>
      <trkpt lat="49.34053" lon="0.89722">
        <ele>94</ele>
        <time>2020-05-17T08:27:32Z</time>
      </trkpt>
      <trkpt lat="49.34046" lon="0.8971">
        <ele>93</ele>
        <time>2020-05-17T08:27:34Z</time>
      </trkpt>
      <trkpt lat="49.34041" lon="0.89705">
        <ele>93</ele>
        <time>2020-05-17T08:27:35Z</time>
      </trkpt>
      <trkpt lat="49.34022" lon="0.89684">
        <ele>90</ele>
        <time>2020-05-17T08:27:39Z</time>
      </trkpt>
      <trkpt lat="49.34018" lon="0.89676">
        <ele>90</ele>
        <time>2020-05-17T08:27:40Z</time>
      </trkpt>
      <trkpt lat="49.34014" lon="0.89667">
        <ele>88</ele>
        <time>2020-05-17T08:27:41Z</time>
      </trkpt>
      <trkpt lat="49.34012" lon="0.8966">
        <ele>86</ele>
        <time>2020-05-17T08:27:42Z</time>
      </trkpt>
      <trkpt lat="49.34011" lon="0.89651">
        <ele>85</ele>
        <time>2020-05-17T08:27:43Z</time>
      </trkpt>
      <trkpt lat="49.3401" lon="0.89641">
        <ele>85</ele>
        <time>2020-05-17T08:27:44Z</time>
      </trkpt>
      <trkpt lat="49.34009" lon="0.8963">
        <ele>84</ele>
        <time>2020-05-17T08:27:45Z</time>
      </trkpt>
      <trkpt lat="49.34007" lon="0.89605">
        <ele>82</ele>
        <time>2020-05-17T08:27:47Z</time>
      </trkpt>
      <trkpt lat="49.34005" lon="0.89592">
        <ele>81</ele>
        <time>2020-05-17T08:27:48Z</time>
      </trkpt>
      <trkpt lat="49.33999" lon="0.89557">
        <ele>77</ele>
        <time>2020-05-17T08:27:51Z</time>
      </trkpt>
      <trkpt lat="49.33995" lon="0.89527">
        <ele>74</ele>
        <time>2020-05-17T08:27:54Z</time>
      </trkpt>
      <trkpt lat="49.33992" lon="0.89519">
        <ele>73</ele>
        <time>2020-05-17T08:27:55Z</time>
      </trkpt>
      <trkpt lat="49.33986" lon="0.89511">
        <ele>72</ele>
        <time>2020-05-17T08:27:56Z</time>
      </trkpt>
      <trkpt lat="49.33981" lon="0.89505">
        <ele>72</ele>
        <time>2020-05-17T08:27:57Z</time>
      </trkpt>
      <trkpt lat="49.33958" lon="0.89476">
        <ele>71</ele>
        <time>2020-05-17T08:28:01Z</time>
      </trkpt>
      <trkpt lat="49.33952" lon="0.8947">
        <ele>71</ele>
        <time>2020-05-17T08:28:02Z</time>
      </trkpt>
      <trkpt lat="49.33922" lon="0.89444">
        <ele>70</ele>
        <time>2020-05-17T08:28:07Z</time>
      </trkpt>
      <trkpt lat="49.33918" lon="0.8944">
        <ele>69</ele>
        <time>2020-05-17T08:28:08Z</time>
      </trkpt>
      <trkpt lat="49.33914" lon="0.89435">
        <ele>69</ele>
        <time>2020-05-17T08:28:09Z</time>
      </trkpt>
      <trkpt lat="49.3391" lon="0.89431">
        <ele>69</ele>
        <time>2020-05-17T08:28:10Z</time>
      </trkpt>
      <trkpt lat="49.33906" lon="0.89427">
        <ele>69</ele>
        <time>2020-05-17T08:28:11Z</time>
      </trkpt>
      <trkpt lat="49.33898" lon="0.8942">
        <ele>69</ele>
        <time>2020-05-17T08:28:13Z</time>
      </trkpt>
      <trkpt lat="49.33895" lon="0.89417">
        <ele>69</ele>
        <time>2020-05-17T08:28:14Z</time>
      </trkpt>
      <trkpt lat="49.3387" lon="0.89397">
        <ele>69</ele>
        <time>2020-05-17T08:28:22Z</time>
      </trkpt>
      <trkpt lat="49.3387" lon="0.89394">
        <ele>69</ele>
        <time>2020-05-17T08:28:23Z</time>
      </trkpt>
      <trkpt lat="49.33871" lon="0.89391">
        <ele>69</ele>
        <time>2020-05-17T08:28:26Z</time>
      </trkpt>
      <trkpt lat="49.33871" lon="0.89388">
        <ele>69</ele>
        <time>2020-05-17T08:28:34Z</time>
      </trkpt>
      <trkpt lat="49.33871" lon="0.89385">
        <ele>69</ele>
        <time>2020-05-17T08:28:52Z</time>
      </trkpt>
      <trkpt lat="49.33868" lon="0.89382">
        <ele>69</ele>
        <time>2020-05-17T08:29:10Z</time>
      </trkpt>
      <trkpt lat="49.3387" lon="0.89384">
        <ele>69</ele>
        <time>2020-05-17T08:29:25Z</time>
      </trkpt>
      <trkpt lat="49.33868" lon="0.89383">
        <ele>69</ele>
        <time>2020-05-17T08:29:43Z</time>
      </trkpt>
      <trkpt lat="49.33869" lon="0.89383">
        <ele>69</ele>
        <time>2020-05-17T08:30:01Z</time>
      </trkpt>
      <trkpt lat="49.33872" lon="0.89383">
        <ele>69</ele>
        <time>2020-05-17T08:30:20Z</time>
      </trkpt>
      <trkpt lat="49.33877" lon="0.89384">
        <ele>69</ele>
        <time>2020-05-17T08:30:28Z</time>
      </trkpt>
      <trkpt lat="49.33893" lon="0.89385">
        <ele>68</ele>
        <time>2020-05-17T08:30:35Z</time>
      </trkpt>
      <trkpt lat="49.3391" lon="0.89386">
        <ele>68</ele>
        <time>2020-05-17T08:30:42Z</time>
      </trkpt>
      <trkpt lat="49.33928" lon="0.89389">
        <ele>68</ele>
        <time>2020-05-17T08:30:49Z</time>
      </trkpt>
      <trkpt lat="49.33953" lon="0.89394">
        <ele>68</ele>
        <time>2020-05-17T08:30:58Z</time>
      </trkpt>
      <trkpt lat="49.33968" lon="0.89398">
        <ele>68</ele>
        <time>2020-05-17T08:31:03Z</time>
      </trkpt>
      <trkpt lat="49.33992" lon="0.89405">
        <ele>68</ele>
        <time>2020-05-17T08:31:12Z</time>
      </trkpt>
      <trkpt lat="49.34012" lon="0.89415">
        <ele>68</ele>
        <time>2020-05-17T08:31:19Z</time>
      </trkpt>
      <trkpt lat="49.34034" lon="0.89433">
        <ele>67</ele>
        <time>2020-05-17T08:31:26Z</time>
      </trkpt>
      <trkpt lat="49.34055" lon="0.8945">
        <ele>67</ele>
        <time>2020-05-17T08:31:33Z</time>
      </trkpt>
      <trkpt lat="49.34072" lon="0.89468">
        <ele>67</ele>
        <time>2020-05-17T08:31:40Z</time>
      </trkpt>
      <trkpt lat="49.34087" lon="0.89485">
        <ele>67</ele>
        <time>2020-05-17T08:31:47Z</time>
      </trkpt>
      <trkpt lat="49.34103" lon="0.89501">
        <ele>67</ele>
        <time>2020-05-17T08:31:53Z</time>
      </trkpt>
      <trkpt lat="49.34126" lon="0.89523">
        <ele>67</ele>
        <time>2020-05-17T08:32:01Z</time>
      </trkpt>
      <trkpt lat="49.34142" lon="0.89538">
        <ele>69</ele>
        <time>2020-05-17T08:32:07Z</time>
      </trkpt>
      <trkpt lat="49.34155" lon="0.89554">
        <ele>69</ele>
        <time>2020-05-17T08:32:13Z</time>
      </trkpt>
      <trkpt lat="49.34164" lon="0.89574">
        <ele>70</ele>
        <time>2020-05-17T08:32:20Z</time>
      </trkpt>
      <trkpt lat="49.34174" lon="0.89597">
        <ele>70</ele>
        <time>2020-05-17T08:32:27Z</time>
      </trkpt>
      <trkpt lat="49.34184" lon="0.8962">
        <ele>70</ele>
        <time>2020-05-17T08:32:33Z</time>
      </trkpt>
      <trkpt lat="49.34198" lon="0.89638">
        <ele>70</ele>
        <time>2020-05-17T08:32:40Z</time>
      </trkpt>
      <trkpt lat="49.342" lon="0.89641">
        <ele>71</ele>
        <time>2020-05-17T08:32:41Z</time>
      </trkpt>
      <trkpt lat="49.34211" lon="0.89654">
        <ele>71</ele>
        <time>2020-05-17T08:32:47Z</time>
      </trkpt>
      <trkpt lat="49.34213" lon="0.89655">
        <ele>71</ele>
        <time>2020-05-17T08:32:48Z</time>
      </trkpt>
      <trkpt lat="49.34215" lon="0.89655">
        <ele>71</ele>
        <time>2020-05-17T08:32:49Z</time>
      </trkpt>
      <trkpt lat="49.34218" lon="0.89654">
        <ele>71</ele>
        <time>2020-05-17T08:32:50Z</time>
      </trkpt>
      <trkpt lat="49.34227" lon="0.89646">
        <ele>74</ele>
        <time>2020-05-17T08:32:55Z</time>
      </trkpt>
      <trkpt lat="49.34237" lon="0.89627">
        <ele>78</ele>
        <time>2020-05-17T08:33:01Z</time>
      </trkpt>
      <trkpt lat="49.34242" lon="0.89615">
        <ele>80</ele>
        <time>2020-05-17T08:33:04Z</time>
      </trkpt>
      <trkpt lat="49.34244" lon="0.896">
        <ele>81</ele>
        <time>2020-05-17T08:33:09Z</time>
      </trkpt>
      <trkpt lat="49.34246" lon="0.89588">
        <ele>81</ele>
        <time>2020-05-17T08:33:15Z</time>
      </trkpt>
      <trkpt lat="49.34247" lon="0.89566">
        <ele>82</ele>
        <time>2020-05-17T08:33:23Z</time>
      </trkpt>
      <trkpt lat="49.3425" lon="0.89546">
        <ele>82</ele>
        <time>2020-05-17T08:33:30Z</time>
      </trkpt>
      <trkpt lat="49.34249" lon="0.89542">
        <ele>82</ele>
        <time>2020-05-17T08:33:32Z</time>
      </trkpt>
      <trkpt lat="49.3425" lon="0.89524">
        <ele>83</ele>
        <time>2020-05-17T08:33:40Z</time>
      </trkpt>
      <trkpt lat="49.34245" lon="0.89513">
        <ele>83</ele>
        <time>2020-05-17T08:33:45Z</time>
      </trkpt>
      <trkpt lat="49.34239" lon="0.89492">
        <ele>84</ele>
        <time>2020-05-17T08:33:55Z</time>
      </trkpt>
      <trkpt lat="49.3423" lon="0.89477">
        <ele>84</ele>
        <time>2020-05-17T08:34:03Z</time>
      </trkpt>
      <trkpt lat="49.34224" lon="0.89463">
        <ele>85</ele>
        <time>2020-05-17T08:34:11Z</time>
      </trkpt>
      <trkpt lat="49.34222" lon="0.89458">
        <ele>85</ele>
        <time>2020-05-17T08:34:17Z</time>
      </trkpt>
      <trkpt lat="49.34221" lon="0.8945">
        <ele>85</ele>
        <time>2020-05-17T08:34:24Z</time>
      </trkpt>
      <trkpt lat="49.34216" lon="0.89442">
        <ele>85</ele>
        <time>2020-05-17T08:34:32Z</time>
      </trkpt>
      <trkpt lat="49.34211" lon="0.89434">
        <ele>86</ele>
        <time>2020-05-17T08:34:40Z</time>
      </trkpt>
      <trkpt lat="49.34205" lon="0.89423">
        <ele>86</ele>
        <time>2020-05-17T08:34:51Z</time>
      </trkpt>
      <trkpt lat="49.34202" lon="0.8941">
        <ele>87</ele>
        <time>2020-05-17T08:35:00Z</time>
      </trkpt>
      <trkpt lat="49.34199" lon="0.89397">
        <ele>88</ele>
        <time>2020-05-17T08:35:08Z</time>
      </trkpt>
      <trkpt lat="49.34196" lon="0.89388">
        <ele>88</ele>
        <time>2020-05-17T08:35:15Z</time>
      </trkpt>
      <trkpt lat="49.34191" lon="0.89371">
        <ele>89</ele>
        <time>2020-05-17T08:35:20Z</time>
      </trkpt>
      <trkpt lat="49.3418" lon="0.89343">
        <ele>90</ele>
        <time>2020-05-17T08:35:29Z</time>
      </trkpt>
      <trkpt lat="49.34167" lon="0.89317">
        <ele>91</ele>
        <time>2020-05-17T08:35:37Z</time>
      </trkpt>
      <trkpt lat="49.34152" lon="0.89295">
        <ele>91</ele>
        <time>2020-05-17T08:35:45Z</time>
      </trkpt>
      <trkpt lat="49.34139" lon="0.89278">
        <ele>93</ele>
        <time>2020-05-17T08:35:52Z</time>
      </trkpt>
      <trkpt lat="49.34129" lon="0.89268">
        <ele>94</ele>
        <time>2020-05-17T08:35:57Z</time>
      </trkpt>
      <trkpt lat="49.3413" lon="0.89252">
        <ele>94</ele>
        <time>2020-05-17T08:36:03Z</time>
      </trkpt>
      <trkpt lat="49.3413" lon="0.89251">
        <ele>94</ele>
        <time>2020-05-17T08:36:04Z</time>
      </trkpt>
      <trkpt lat="49.34147" lon="0.89251">
        <ele>93</ele>
        <time>2020-05-17T08:36:10Z</time>
      </trkpt>
      <trkpt lat="49.3415" lon="0.8925">
        <ele>93</ele>
        <time>2020-05-17T08:36:11Z</time>
      </trkpt>
      <trkpt lat="49.34167" lon="0.89251">
        <ele>91</ele>
        <time>2020-05-17T08:36:17Z</time>
      </trkpt>
      <trkpt lat="49.34169" lon="0.89238">
        <ele>90</ele>
        <time>2020-05-17T08:36:21Z</time>
      </trkpt>
      <trkpt lat="49.34167" lon="0.89229">
        <ele>90</ele>
        <time>2020-05-17T08:36:24Z</time>
      </trkpt>
      <trkpt lat="49.34167" lon="0.89215">
        <ele>90</ele>
        <time>2020-05-17T08:36:27Z</time>
      </trkpt>
      <trkpt lat="49.34168" lon="0.89202">
        <ele>88</ele>
        <time>2020-05-17T08:36:29Z</time>
      </trkpt>
      <trkpt lat="49.34166" lon="0.89181">
        <ele>86</ele>
        <time>2020-05-17T08:36:32Z</time>
      </trkpt>
      <trkpt lat="49.34166" lon="0.89156">
        <ele>85</ele>
        <time>2020-05-17T08:36:35Z</time>
      </trkpt>
      <trkpt lat="49.34167" lon="0.89139">
        <ele>83</ele>
        <time>2020-05-17T08:36:37Z</time>
      </trkpt>
      <trkpt lat="49.34161" lon="0.89101">
        <ele>84</ele>
        <time>2020-05-17T08:36:44Z</time>
      </trkpt>
      <trkpt lat="49.34158" lon="0.89082">
        <ele>85</ele>
        <time>2020-05-17T08:36:49Z</time>
      </trkpt>
      <trkpt lat="49.3415" lon="0.8905">
        <ele>86</ele>
        <time>2020-05-17T08:36:57Z</time>
      </trkpt>
      <trkpt lat="49.34146" lon="0.89032">
        <ele>86</ele>
        <time>2020-05-17T08:37:03Z</time>
      </trkpt>
      <trkpt lat="49.34139" lon="0.89013">
        <ele>87</ele>
        <time>2020-05-17T08:37:10Z</time>
      </trkpt>
      <trkpt lat="49.34133" lon="0.88988">
        <ele>88</ele>
        <time>2020-05-17T08:37:18Z</time>
      </trkpt>
      <trkpt lat="49.34128" lon="0.88968">
        <ele>89</ele>
        <time>2020-05-17T08:37:24Z</time>
      </trkpt>
      <trkpt lat="49.34125" lon="0.88956">
        <ele>89</ele>
        <time>2020-05-17T08:37:29Z</time>
      </trkpt>
      <trkpt lat="49.34124" lon="0.88935">
        <ele>89</ele>
        <time>2020-05-17T08:37:35Z</time>
      </trkpt>
      <trkpt lat="49.34124" lon="0.8892">
        <ele>89</ele>
        <time>2020-05-17T08:37:40Z</time>
      </trkpt>
      <trkpt lat="49.34123" lon="0.88898">
        <ele>90</ele>
        <time>2020-05-17T08:37:47Z</time>
      </trkpt>
      <trkpt lat="49.34114" lon="0.88871">
        <ele>92</ele>
        <time>2020-05-17T08:37:55Z</time>
      </trkpt>
      <trkpt lat="49.34109" lon="0.88862">
        <ele>95</ele>
        <time>2020-05-17T08:37:59Z</time>
      </trkpt>
      <trkpt lat="49.34095" lon="0.88841">
        <ele>98</ele>
        <time>2020-05-17T08:38:07Z</time>
      </trkpt>
      <trkpt lat="49.3409" lon="0.88835">
        <ele>99</ele>
        <time>2020-05-17T08:38:11Z</time>
      </trkpt>
      <trkpt lat="49.34078" lon="0.8882">
        <ele>103</ele>
        <time>2020-05-17T08:38:19Z</time>
      </trkpt>
      <trkpt lat="49.34069" lon="0.8881">
        <ele>104</ele>
        <time>2020-05-17T08:38:25Z</time>
      </trkpt>
      <trkpt lat="49.34065" lon="0.88796">
        <ele>105</ele>
        <time>2020-05-17T08:38:32Z</time>
      </trkpt>
      <trkpt lat="49.34065" lon="0.88789">
        <ele>104</ele>
        <time>2020-05-17T08:38:39Z</time>
      </trkpt>
      <trkpt lat="49.34066" lon="0.88788">
        <ele>104</ele>
        <time>2020-05-17T08:38:54Z</time>
      </trkpt>
      <trkpt lat="49.34064" lon="0.8878">
        <ele>105</ele>
        <time>2020-05-17T08:39:12Z</time>
      </trkpt>
      <trkpt lat="49.34065" lon="0.88778">
        <ele>105</ele>
        <time>2020-05-17T08:39:26Z</time>
      </trkpt>
      <trkpt lat="49.34067" lon="0.88778">
        <ele>105</ele>
        <time>2020-05-17T08:39:41Z</time>
      </trkpt>
      <trkpt lat="49.34068" lon="0.88778">
        <ele>105</ele>
        <time>2020-05-17T08:39:55Z</time>
      </trkpt>
      <trkpt lat="49.34068" lon="0.88778">
        <ele>105</ele>
        <time>2020-05-17T08:40:08Z</time>
      </trkpt>
      <trkpt lat="49.34064" lon="0.88782">
        <ele>105</ele>
        <time>2020-05-17T08:40:24Z</time>
      </trkpt>
      <trkpt lat="49.34066" lon="0.88783">
        <ele>105</ele>
        <time>2020-05-17T08:40:45Z</time>
      </trkpt>
      <trkpt lat="49.34066" lon="0.88781">
        <ele>105</ele>
        <time>2020-05-17T08:40:53Z</time>
      </trkpt>
      <trkpt lat="49.3407" lon="0.88768">
        <ele>105</ele>
        <time>2020-05-17T08:41:01Z</time>
      </trkpt>
      <trkpt lat="49.34074" lon="0.88754">
        <ele>105</ele>
        <time>2020-05-17T08:41:07Z</time>
      </trkpt>
      <trkpt lat="49.34082" lon="0.88735">
        <ele>105</ele>
        <time>2020-05-17T08:41:14Z</time>
      </trkpt>
      <trkpt lat="49.34086" lon="0.88714">
        <ele>105</ele>
        <time>2020-05-17T08:41:20Z</time>
      </trkpt>
      <trkpt lat="49.34097" lon="0.88687">
        <ele>105</ele>
        <time>2020-05-17T08:41:29Z</time>
      </trkpt>
      <trkpt lat="49.34102" lon="0.88667">
        <ele>105</ele>
        <time>2020-05-17T08:41:36Z</time>
      </trkpt>
      <trkpt lat="49.34111" lon="0.88641">
        <ele>105</ele>
        <time>2020-05-17T08:41:45Z</time>
      </trkpt>
      <trkpt lat="49.34123" lon="0.88611">
        <ele>105</ele>
        <time>2020-05-17T08:41:53Z</time>
      </trkpt>
      <trkpt lat="49.34132" lon="0.88584">
        <ele>106</ele>
        <time>2020-05-17T08:42:01Z</time>
      </trkpt>
      <trkpt lat="49.34134" lon="0.88577">
        <ele>106</ele>
        <time>2020-05-17T08:42:03Z</time>
      </trkpt>
      <trkpt lat="49.34142" lon="0.88563">
        <ele>106</ele>
        <time>2020-05-17T08:42:08Z</time>
      </trkpt>
      <trkpt lat="49.34151" lon="0.88538">
        <ele>106</ele>
        <time>2020-05-17T08:42:15Z</time>
      </trkpt>
      <trkpt lat="49.34157" lon="0.88507">
        <ele>107</ele>
        <time>2020-05-17T08:42:22Z</time>
      </trkpt>
      <trkpt lat="49.34172" lon="0.88479">
        <ele>107</ele>
        <time>2020-05-17T08:42:28Z</time>
      </trkpt>
      <trkpt lat="49.34185" lon="0.88454">
        <ele>106</ele>
        <time>2020-05-17T08:42:34Z</time>
      </trkpt>
      <trkpt lat="49.34202" lon="0.88431">
        <ele>105</ele>
        <time>2020-05-17T08:42:40Z</time>
      </trkpt>
      <trkpt lat="49.34211" lon="0.8841">
        <ele>105</ele>
        <time>2020-05-17T08:42:45Z</time>
      </trkpt>
      <trkpt lat="49.34212" lon="0.88406">
        <ele>105</ele>
        <time>2020-05-17T08:42:46Z</time>
      </trkpt>
      <trkpt lat="49.34224" lon="0.88393">
        <ele>105</ele>
        <time>2020-05-17T08:42:51Z</time>
      </trkpt>
      <trkpt lat="49.34235" lon="0.8839">
        <ele>105</ele>
        <time>2020-05-17T08:42:56Z</time>
      </trkpt>
      <trkpt lat="49.34254" lon="0.88396">
        <ele>104</ele>
        <time>2020-05-17T08:43:04Z</time>
      </trkpt>
      <trkpt lat="49.34273" lon="0.88402">
        <ele>103</ele>
        <time>2020-05-17T08:43:09Z</time>
      </trkpt>
      <trkpt lat="49.34279" lon="0.88404">
        <ele>103</ele>
        <time>2020-05-17T08:43:10Z</time>
      </trkpt>
      <trkpt lat="49.34291" lon="0.88409">
        <ele>103</ele>
        <time>2020-05-17T08:43:12Z</time>
      </trkpt>
      <trkpt lat="49.34311" lon="0.88416">
        <ele>100</ele>
        <time>2020-05-17T08:43:15Z</time>
      </trkpt>
      <trkpt lat="49.34325" lon="0.88423">
        <ele>98</ele>
        <time>2020-05-17T08:43:17Z</time>
      </trkpt>
      <trkpt lat="49.34343" lon="0.88428">
        <ele>95</ele>
        <time>2020-05-17T08:43:20Z</time>
      </trkpt>
      <trkpt lat="49.34359" lon="0.88436">
        <ele>92</ele>
        <time>2020-05-17T08:43:24Z</time>
      </trkpt>
      <trkpt lat="49.34368" lon="0.8844">
        <ele>90</ele>
        <time>2020-05-17T08:43:27Z</time>
      </trkpt>
      <trkpt lat="49.3437" lon="0.88443">
        <ele>90</ele>
        <time>2020-05-17T08:43:28Z</time>
      </trkpt>
      <trkpt lat="49.34372" lon="0.88446">
        <ele>90</ele>
        <time>2020-05-17T08:43:29Z</time>
      </trkpt>
      <trkpt lat="49.34374" lon="0.88449">
        <ele>89</ele>
        <time>2020-05-17T08:43:30Z</time>
      </trkpt>
      <trkpt lat="49.34375" lon="0.88452">
        <ele>89</ele>
        <time>2020-05-17T08:43:31Z</time>
      </trkpt>
      <trkpt lat="49.34377" lon="0.88454">
        <ele>89</ele>
        <time>2020-05-17T08:43:32Z</time>
      </trkpt>
      <trkpt lat="49.34378" lon="0.88455">
        <ele>89</ele>
        <time>2020-05-17T08:43:33Z</time>
      </trkpt>
      <trkpt lat="49.3438" lon="0.88455">
        <ele>88</ele>
        <time>2020-05-17T08:43:34Z</time>
      </trkpt>
      <trkpt lat="49.34381" lon="0.88454">
        <ele>88</ele>
        <time>2020-05-17T08:43:35Z</time>
      </trkpt>
      <trkpt lat="49.34383" lon="0.88453">
        <ele>88</ele>
        <time>2020-05-17T08:43:36Z</time>
      </trkpt>
      <trkpt lat="49.34384" lon="0.88452">
        <ele>88</ele>
        <time>2020-05-17T08:43:37Z</time>
      </trkpt>
      <trkpt lat="49.34386" lon="0.88451">
        <ele>88</ele>
        <time>2020-05-17T08:43:39Z</time>
      </trkpt>
      <trkpt lat="49.34388" lon="0.88451">
        <ele>88</ele>
        <time>2020-05-17T08:43:40Z</time>
      </trkpt>
      <trkpt lat="49.3439" lon="0.88451">
        <ele>87</ele>
        <time>2020-05-17T08:43:41Z</time>
      </trkpt>
      <trkpt lat="49.34393" lon="0.88452">
        <ele>87</ele>
        <time>2020-05-17T08:43:42Z</time>
      </trkpt>
      <trkpt lat="49.34396" lon="0.88453">
        <ele>87</ele>
        <time>2020-05-17T08:43:43Z</time>
      </trkpt>
      <trkpt lat="49.34414" lon="0.88457">
        <ele>86</ele>
        <time>2020-05-17T08:43:49Z</time>
      </trkpt>
      <trkpt lat="49.3442" lon="0.88459">
        <ele>86</ele>
        <time>2020-05-17T08:43:51Z</time>
      </trkpt>
      <trkpt lat="49.34423" lon="0.88458">
        <ele>85</ele>
        <time>2020-05-17T08:43:52Z</time>
      </trkpt>
      <trkpt lat="49.34425" lon="0.88456">
        <ele>85</ele>
        <time>2020-05-17T08:43:53Z</time>
      </trkpt>
      <trkpt lat="49.34426" lon="0.88454">
        <ele>85</ele>
        <time>2020-05-17T08:43:54Z</time>
      </trkpt>
      <trkpt lat="49.34428" lon="0.88451">
        <ele>84</ele>
        <time>2020-05-17T08:43:55Z</time>
      </trkpt>
      <trkpt lat="49.34429" lon="0.88448">
        <ele>84</ele>
        <time>2020-05-17T08:43:56Z</time>
      </trkpt>
      <trkpt lat="49.34431" lon="0.88444">
        <ele>83</ele>
        <time>2020-05-17T08:43:57Z</time>
      </trkpt>
      <trkpt lat="49.34433" lon="0.88437">
        <ele>83</ele>
        <time>2020-05-17T08:43:58Z</time>
      </trkpt>
      <trkpt lat="49.34435" lon="0.8843">
        <ele>82</ele>
        <time>2020-05-17T08:43:59Z</time>
      </trkpt>
      <trkpt lat="49.34437" lon="0.88422">
        <ele>81</ele>
        <time>2020-05-17T08:44:00Z</time>
      </trkpt>
      <trkpt lat="49.34443" lon="0.88407">
        <ele>78</ele>
        <time>2020-05-17T08:44:03Z</time>
      </trkpt>
      <trkpt lat="49.34443" lon="0.88404">
        <ele>78</ele>
        <time>2020-05-17T08:44:04Z</time>
      </trkpt>
      <trkpt lat="49.34444" lon="0.88389">
        <ele>78</ele>
        <time>2020-05-17T08:44:09Z</time>
      </trkpt>
      <trkpt lat="49.34441" lon="0.88366">
        <ele>78</ele>
        <time>2020-05-17T08:44:16Z</time>
      </trkpt>
      <trkpt lat="49.34441" lon="0.88362">
        <ele>78</ele>
        <time>2020-05-17T08:44:17Z</time>
      </trkpt>
      <trkpt lat="49.34443" lon="0.88344">
        <ele>78</ele>
        <time>2020-05-17T08:44:22Z</time>
      </trkpt>
      <trkpt lat="49.34441" lon="0.88315">
        <ele>78</ele>
        <time>2020-05-17T08:44:29Z</time>
      </trkpt>
      <trkpt lat="49.34433" lon="0.88283">
        <ele>78</ele>
        <time>2020-05-17T08:44:36Z</time>
      </trkpt>
      <trkpt lat="49.34428" lon="0.88246">
        <ele>78</ele>
        <time>2020-05-17T08:44:43Z</time>
      </trkpt>
      <trkpt lat="49.34424" lon="0.88218">
        <ele>78</ele>
        <time>2020-05-17T08:44:49Z</time>
      </trkpt>
      <trkpt lat="49.3442" lon="0.88189">
        <ele>78</ele>
        <time>2020-05-17T08:44:55Z</time>
      </trkpt>
      <trkpt lat="49.34414" lon="0.88148">
        <ele>79</ele>
        <time>2020-05-17T08:45:03Z</time>
      </trkpt>
      <trkpt lat="49.34402" lon="0.88108">
        <ele>81</ele>
        <time>2020-05-17T08:45:10Z</time>
      </trkpt>
      <trkpt lat="49.34379" lon="0.88086">
        <ele>81</ele>
        <time>2020-05-17T08:45:17Z</time>
      </trkpt>
      <trkpt lat="49.34372" lon="0.88073">
        <ele>82</ele>
        <time>2020-05-17T08:45:21Z</time>
      </trkpt>
      <trkpt lat="49.34373" lon="0.88068">
        <ele>82</ele>
        <time>2020-05-17T08:45:24Z</time>
      </trkpt>
      <trkpt lat="49.34374" lon="0.88065">
        <ele>82</ele>
        <time>2020-05-17T08:45:29Z</time>
      </trkpt>
      <trkpt lat="49.34374" lon="0.88059">
        <ele>82</ele>
        <time>2020-05-17T08:45:40Z</time>
      </trkpt>
      <trkpt lat="49.34374" lon="0.88052">
        <ele>83</ele>
        <time>2020-05-17T08:48:22Z</time>
      </trkpt>
      <trkpt lat="49.34374" lon="0.88049">
        <ele>83</ele>
        <time>2020-05-17T08:48:23Z</time>
      </trkpt>
      <trkpt lat="49.34374" lon="0.88046">
        <ele>84</ele>
        <time>2020-05-17T08:48:24Z</time>
      </trkpt>
      <trkpt lat="49.34373" lon="0.88044">
        <ele>84</ele>
        <time>2020-05-17T08:48:25Z</time>
      </trkpt>
      <trkpt lat="49.34373" lon="0.88042">
        <ele>84</ele>
        <time>2020-05-17T08:48:26Z</time>
      </trkpt>
      <trkpt lat="49.34373" lon="0.8804">
        <ele>84</ele>
        <time>2020-05-17T08:48:27Z</time>
      </trkpt>
      <trkpt lat="49.34373" lon="0.88039">
        <ele>85</ele>
        <time>2020-05-17T08:48:28Z</time>
      </trkpt>
      <trkpt lat="49.34373" lon="0.88037">
        <ele>85</ele>
        <time>2020-05-17T08:48:29Z</time>
      </trkpt>
      <trkpt lat="49.34367" lon="0.88022">
        <ele>87</ele>
        <time>2020-05-17T08:48:38Z</time>
      </trkpt>
      <trkpt lat="49.34361" lon="0.88008">
        <ele>88</ele>
        <time>2020-05-17T08:48:47Z</time>
      </trkpt>
      <trkpt lat="49.3436" lon="0.88006">
        <ele>88</ele>
        <time>2020-05-17T08:48:48Z</time>
      </trkpt>
      <trkpt lat="49.34359" lon="0.88004">
        <ele>89</ele>
        <time>2020-05-17T08:48:49Z</time>
      </trkpt>
      <trkpt lat="49.34359" lon="0.88002">
        <ele>89</ele>
        <time>2020-05-17T08:48:50Z</time>
      </trkpt>
      <trkpt lat="49.3435" lon="0.87982">
        <ele>90</ele>
        <time>2020-05-17T08:48:59Z</time>
      </trkpt>
      <trkpt lat="49.3434" lon="0.87962">
        <ele>91</ele>
        <time>2020-05-17T08:49:07Z</time>
      </trkpt>
      <trkpt lat="49.34331" lon="0.87935">
        <ele>91</ele>
        <time>2020-05-17T08:49:16Z</time>
      </trkpt>
      <trkpt lat="49.34322" lon="0.87911">
        <ele>92</ele>
        <time>2020-05-17T08:49:24Z</time>
      </trkpt>
      <trkpt lat="49.34318" lon="0.87889">
        <ele>92</ele>
        <time>2020-05-17T08:49:31Z</time>
      </trkpt>
      <trkpt lat="49.34308" lon="0.87863">
        <ele>94</ele>
        <time>2020-05-17T08:49:40Z</time>
      </trkpt>
      <trkpt lat="49.34299" lon="0.87846">
        <ele>95</ele>
        <time>2020-05-17T08:49:47Z</time>
      </trkpt>
      <trkpt lat="49.34289" lon="0.87829">
        <ele>95</ele>
        <time>2020-05-17T08:49:55Z</time>
      </trkpt>
      <trkpt lat="49.3428" lon="0.8781">
        <ele>96</ele>
        <time>2020-05-17T08:50:03Z</time>
      </trkpt>
      <trkpt lat="49.34273" lon="0.87796">
        <ele>97</ele>
        <time>2020-05-17T08:50:10Z</time>
      </trkpt>
      <trkpt lat="49.34304" lon="0.87623">
        <ele>86</ele>
        <time>2020-05-17T08:50:20Z</time>
      </trkpt>
      <trkpt lat="49.34262" lon="0.87419">
        <ele>90</ele>
        <time>2020-05-17T08:50:27Z</time>
      </trkpt>
      <trkpt lat="49.34265" lon="0.8735">
        <ele>88</ele>
      </trkpt>
      <trkpt lat="49.34252" lon="0.87273">
        <ele>87</ele>
      </trkpt>
      <trkpt lat="49.34162" lon="0.87144">
        <ele>96</ele>
      </trkpt>
      <trkpt lat="49.34174" lon="0.87041">
        <ele>94</ele>
      </trkpt>
      <trkpt lat="49.34168" lon="0.86937">
        <ele>97</ele>
      </trkpt>
      <trkpt lat="49.34141" lon="0.86869">
        <ele>103</ele>
      </trkpt>
      <trkpt lat="49.34067" lon="0.86833">
        <ele>111</ele>
      </trkpt>
      <trkpt lat="49.33958" lon="0.86804">
        <ele>114</ele>
        <time>2020-05-17T08:55:10Z</time>
      </trkpt>
      <trkpt lat="49.33929" lon="0.86755">
        <ele>123</ele>
        <time>2020-05-17T08:55:17Z</time>
      </trkpt>
      <trkpt lat="49.33918" lon="0.86734">
        <ele>123</ele>
        <time>2020-05-17T08:55:22Z</time>
      </trkpt>
      <trkpt lat="49.33905" lon="0.8671">
        <ele>124</ele>
        <time>2020-05-17T08:55:28Z</time>
      </trkpt>
      <trkpt lat="49.33888" lon="0.86681">
        <ele>124</ele>
        <time>2020-05-17T08:55:35Z</time>
      </trkpt>
      <trkpt lat="49.33872" lon="0.86651">
        <ele>125</ele>
        <time>2020-05-17T08:55:42Z</time>
      </trkpt>
      <trkpt lat="49.33859" lon="0.86618">
        <ele>126</ele>
        <time>2020-05-17T08:55:49Z</time>
      </trkpt>
      <trkpt lat="49.33848" lon="0.86592">
        <ele>127</ele>
        <time>2020-05-17T08:55:55Z</time>
      </trkpt>
      <trkpt lat="49.33833" lon="0.86562">
        <ele>127</ele>
        <time>2020-05-17T08:56:02Z</time>
      </trkpt>
      <trkpt lat="49.33816" lon="0.86531">
        <ele>127</ele>
        <time>2020-05-17T08:56:10Z</time>
      </trkpt>
      <trkpt lat="49.33805" lon="0.86513">
        <ele>128</ele>
        <time>2020-05-17T08:56:16Z</time>
      </trkpt>
      <trkpt lat="49.33789" lon="0.86481">
        <ele>128</ele>
        <time>2020-05-17T08:56:24Z</time>
      </trkpt>
      <trkpt lat="49.33778" lon="0.86452">
        <ele>128</ele>
        <time>2020-05-17T08:56:30Z</time>
      </trkpt>
      <trkpt lat="49.33774" lon="0.86427">
        <ele>128</ele>
        <time>2020-05-17T08:56:35Z</time>
      </trkpt>
      <trkpt lat="49.33768" lon="0.86387">
        <ele>128</ele>
        <time>2020-05-17T08:56:42Z</time>
      </trkpt>
      <trkpt lat="49.33761" lon="0.86349">
        <ele>128</ele>
        <time>2020-05-17T08:56:49Z</time>
      </trkpt>
      <trkpt lat="49.33747" lon="0.86319">
        <ele>128</ele>
        <time>2020-05-17T08:56:55Z</time>
      </trkpt>
      <trkpt lat="49.33728" lon="0.86282">
        <ele>128</ele>
        <time>2020-05-17T08:57:02Z</time>
      </trkpt>
      <trkpt lat="49.33725" lon="0.86277">
        <ele>129</ele>
        <time>2020-05-17T08:57:03Z</time>
      </trkpt>
      <trkpt lat="49.33717" lon="0.86249">
        <ele>128</ele>
        <time>2020-05-17T08:57:08Z</time>
      </trkpt>
      <trkpt lat="49.33716" lon="0.86236">
        <ele>128</ele>
        <time>2020-05-17T08:57:10Z</time>
      </trkpt>
      <trkpt lat="49.3372" lon="0.86215">
        <ele>123</ele>
        <time>2020-05-17T08:57:11Z</time>
      </trkpt>
      <trkpt lat="49.33716" lon="0.86213">
        <ele>128</ele>
        <time>2020-05-11T07:59:23Z</time>
      </trkpt>
      <trkpt lat="49.33707" lon="0.86215">
        <ele>130</ele>
        <time>2020-05-11T08:08:13Z</time>
      </trkpt>
      <trkpt lat="49.33708" lon="0.86227">
        <ele>123</ele>
        <time>2020-05-11T08:08:20Z</time>
      </trkpt>
      <trkpt lat="49.33712" lon="0.86247">
        <ele>123</ele>
        <time>2020-05-11T08:08:21Z</time>
      </trkpt>
      <trkpt lat="49.33726" lon="0.86276">
        <ele>131</ele>
        <time>2020-05-11T08:08:27Z</time>
      </trkpt>
      <trkpt lat="49.33746" lon="0.86313">
        <ele>131</ele>
        <time>2020-05-11T08:08:35Z</time>
      </trkpt>
      <trkpt lat="49.33758" lon="0.86344">
        <ele>129</ele>
        <time>2020-05-11T08:08:41Z</time>
      </trkpt>
      <trkpt lat="49.33767" lon="0.86392">
        <ele>129</ele>
        <time>2020-05-11T08:08:49Z</time>
      </trkpt>
      <trkpt lat="49.33778" lon="0.86439">
        <ele>129</ele>
        <time>2020-05-11T08:08:56Z</time>
      </trkpt>
      <trkpt lat="49.33785" lon="0.86457">
        <ele>129</ele>
        <time>2020-05-11T08:08:59Z</time>
      </trkpt>
      <trkpt lat="49.3381" lon="0.86507">
        <ele>129</ele>
        <time>2020-05-11T08:09:08Z</time>
      </trkpt>
      <trkpt lat="49.33821" lon="0.86528">
        <ele>129</ele>
        <time>2020-05-11T08:09:13Z</time>
      </trkpt>
      <trkpt lat="49.33825" lon="0.86537">
        <ele>128</ele>
        <time>2020-05-11T08:09:19Z</time>
      </trkpt>
      <trkpt lat="49.3383" lon="0.86543">
        <ele>129</ele>
        <time>2020-05-11T08:09:35Z</time>
      </trkpt>
      <trkpt lat="49.3383" lon="0.86545">
        <ele>129</ele>
        <time>2020-05-11T08:09:36Z</time>
      </trkpt>
      <trkpt lat="49.33829" lon="0.86549">
        <ele>129</ele>
        <time>2020-05-11T08:09:37Z</time>
      </trkpt>
      <trkpt lat="49.33829" lon="0.86553">
        <ele>129</ele>
        <time>2020-05-11T08:09:38Z</time>
      </trkpt>
      <trkpt lat="49.33829" lon="0.86557">
        <ele>129</ele>
        <time>2020-05-11T08:09:39Z</time>
      </trkpt>
      <trkpt lat="49.33829" lon="0.86562">
        <ele>128</ele>
        <time>2020-05-11T08:09:40Z</time>
      </trkpt>
      <trkpt lat="49.33828" lon="0.86566">
        <ele>128</ele>
        <time>2020-05-11T08:09:41Z</time>
      </trkpt>
      <trkpt lat="49.33828" lon="0.86571">
        <ele>128</ele>
        <time>2020-05-11T08:09:42Z</time>
      </trkpt>
      <trkpt lat="49.33827" lon="0.86595">
        <ele>128</ele>
        <time>2020-05-11T08:09:48Z</time>
      </trkpt>
      <trkpt lat="49.33826" lon="0.86605">
        <ele>127</ele>
        <time>2020-05-11T08:09:53Z</time>
      </trkpt>
      <trkpt lat="49.33824" lon="0.86614">
        <ele>127</ele>
        <time>2020-05-11T08:10:12Z</time>
      </trkpt>
      <trkpt lat="49.3382" lon="0.86619">
        <ele>127</ele>
        <time>2020-05-11T08:10:26Z</time>
      </trkpt>
      <trkpt lat="49.3382" lon="0.86623">
        <ele>127</ele>
        <time>2020-05-11T08:10:32Z</time>
      </trkpt>
      <trkpt lat="49.33817" lon="0.86642">
        <ele>127</ele>
        <time>2020-05-11T08:10:37Z</time>
      </trkpt>
      <trkpt lat="49.33812" lon="0.86667">
        <ele>127</ele>
        <time>2020-05-11T08:10:42Z</time>
      </trkpt>
      <trkpt lat="49.33807" lon="0.86712">
        <ele>127</ele>
        <time>2020-05-11T08:10:50Z</time>
      </trkpt>
      <trkpt lat="49.33802" lon="0.86759">
        <ele>125</ele>
        <time>2020-05-11T08:10:58Z</time>
      </trkpt>
      <trkpt lat="49.33797" lon="0.86803">
        <ele>123</ele>
        <time>2020-05-11T08:11:05Z</time>
      </trkpt>
      <trkpt lat="49.33794" lon="0.86836">
        <ele>121</ele>
        <time>2020-05-11T08:11:11Z</time>
      </trkpt>
      <trkpt lat="49.33793" lon="0.86843">
        <ele>120</ele>
        <time>2020-05-11T08:11:16Z</time>
      </trkpt>
      <trkpt lat="49.33789" lon="0.86853">
        <ele>120</ele>
        <time>2020-05-11T08:11:29Z</time>
      </trkpt>
      <trkpt lat="49.3378" lon="0.86892">
        <ele>108</ele>
        <time>2020-05-11T08:11:40Z</time>
      </trkpt>
      <trkpt lat="49.33781" lon="0.86906">
        <ele>106</ele>
        <time>2020-05-11T08:11:41Z</time>
      </trkpt>
      <trkpt lat="49.3378" lon="0.86916">
        <ele>104</ele>
        <time>2020-05-11T08:11:47Z</time>
      </trkpt>
      <trkpt lat="49.33779" lon="0.86926">
        <ele>103</ele>
        <time>2020-05-11T08:11:51Z</time>
      </trkpt>
      <trkpt lat="49.33786" lon="0.86932">
        <ele>110</ele>
        <time>2020-05-11T08:11:54Z</time>
      </trkpt>
      <trkpt lat="49.33787" lon="0.86944">
        <ele>107</ele>
        <time>2020-05-11T08:11:57Z</time>
      </trkpt>
      <trkpt lat="49.33789" lon="0.86952">
        <ele>106</ele>
        <time>2020-05-11T08:11:59Z</time>
      </trkpt>
      <trkpt lat="49.33795" lon="0.8697">
        <ele>102</ele>
        <time>2020-05-11T08:12:02Z</time>
      </trkpt>
      <trkpt lat="49.33798" lon="0.86977">
        <ele>102</ele>
        <time>2020-05-11T08:12:03Z</time>
      </trkpt>
      <trkpt lat="49.338" lon="0.86982">
        <ele>100</ele>
        <time>2020-05-11T08:12:04Z</time>
      </trkpt>
      <trkpt lat="49.33802" lon="0.86987">
        <ele>100</ele>
        <time>2020-05-11T08:12:05Z</time>
      </trkpt>
      <trkpt lat="49.33805" lon="0.86991">
        <ele>100</ele>
        <time>2020-05-11T08:12:06Z</time>
      </trkpt>
      <trkpt lat="49.33808" lon="0.86996">
        <ele>99</ele>
        <time>2020-05-11T08:12:07Z</time>
      </trkpt>
      <trkpt lat="49.33831" lon="0.87031">
        <ele>98</ele>
        <time>2020-05-11T08:12:14Z</time>
      </trkpt>
      <trkpt lat="49.3385" lon="0.87063">
        <ele>97</ele>
        <time>2020-05-11T08:12:20Z</time>
      </trkpt>
      <trkpt lat="49.33857" lon="0.87074">
        <ele>97</ele>
        <time>2020-05-11T08:12:22Z</time>
      </trkpt>
      <trkpt lat="49.3386" lon="0.8708">
        <ele>97</ele>
        <time>2020-05-11T08:12:23Z</time>
      </trkpt>
      <trkpt lat="49.33862" lon="0.87085">
        <ele>97</ele>
        <time>2020-05-11T08:12:24Z</time>
      </trkpt>
      <trkpt lat="49.33864" lon="0.8709">
        <ele>97</ele>
        <time>2020-05-11T08:12:25Z</time>
      </trkpt>
      <trkpt lat="49.33866" lon="0.87095">
        <ele>97</ele>
        <time>2020-05-11T08:12:26Z</time>
      </trkpt>
      <trkpt lat="49.33871" lon="0.87115">
        <ele>96</ele>
        <time>2020-05-11T08:12:33Z</time>
      </trkpt>
      <trkpt lat="49.33874" lon="0.87122">
        <ele>95</ele>
        <time>2020-05-11T08:12:36Z</time>
      </trkpt>
      <trkpt lat="49.33875" lon="0.87126">
        <ele>95</ele>
        <time>2020-05-11T08:12:37Z</time>
      </trkpt>
      <trkpt lat="49.33883" lon="0.87153">
        <ele>94</ele>
        <time>2020-05-11T08:12:42Z</time>
      </trkpt>
      <trkpt lat="49.33886" lon="0.87159">
        <ele>94</ele>
        <time>2020-05-11T08:12:43Z</time>
      </trkpt>
      <trkpt lat="49.33889" lon="0.87166">
        <ele>93</ele>
        <time>2020-05-11T08:12:44Z</time>
      </trkpt>
      <trkpt lat="49.33893" lon="0.87173">
        <ele>92</ele>
        <time>2020-05-11T08:12:45Z</time>
      </trkpt>
      <trkpt lat="49.33897" lon="0.8718">
        <ele>92</ele>
        <time>2020-05-11T08:12:46Z</time>
      </trkpt>
      <trkpt lat="49.33902" lon="0.87187">
        <ele>92</ele>
        <time>2020-05-11T08:12:47Z</time>
      </trkpt>
      <trkpt lat="49.33932" lon="0.87231">
        <ele>90</ele>
        <time>2020-05-11T08:12:54Z</time>
      </trkpt>
      <trkpt lat="49.3394" lon="0.87243">
        <ele>89</ele>
        <time>2020-05-11T08:12:56Z</time>
      </trkpt>
      <trkpt lat="49.33956" lon="0.87265">
        <ele>88</ele>
        <time>2020-05-11T08:13:00Z</time>
      </trkpt>
      <trkpt lat="49.3396" lon="0.87272">
        <ele>88</ele>
        <time>2020-05-11T08:13:01Z</time>
      </trkpt>
      <trkpt lat="49.33963" lon="0.8728">
        <ele>87</ele>
        <time>2020-05-11T08:13:02Z</time>
      </trkpt>
      <trkpt lat="49.33979" lon="0.87322">
        <ele>85</ele>
        <time>2020-05-11T08:13:07Z</time>
      </trkpt>
      <trkpt lat="49.33983" lon="0.87331">
        <ele>85</ele>
        <time>2020-05-11T08:13:08Z</time>
      </trkpt>
      <trkpt lat="49.34007" lon="0.8738">
        <ele>84</ele>
        <time>2020-05-11T08:13:15Z</time>
      </trkpt>
      <trkpt lat="49.3401" lon="0.87386">
        <ele>84</ele>
        <time>2020-05-11T08:13:16Z</time>
      </trkpt>
      <trkpt lat="49.34013" lon="0.87392">
        <ele>84</ele>
        <time>2020-05-11T08:13:17Z</time>
      </trkpt>
      <trkpt lat="49.34015" lon="0.87399">
        <ele>84</ele>
        <time>2020-05-11T08:13:18Z</time>
      </trkpt>
      <trkpt lat="49.34017" lon="0.87405">
        <ele>84</ele>
        <time>2020-05-11T08:13:19Z</time>
      </trkpt>
      <trkpt lat="49.34019" lon="0.87411">
        <ele>84</ele>
        <time>2020-05-11T08:13:20Z</time>
      </trkpt>
      <trkpt lat="49.34033" lon="0.87441">
        <ele>83</ele>
        <time>2020-05-11T08:13:27Z</time>
      </trkpt>
      <trkpt lat="49.34044" lon="0.87472">
        <ele>83</ele>
        <time>2020-05-11T08:13:31Z</time>
      </trkpt>
      <trkpt lat="49.34051" lon="0.87498">
        <ele>82</ele>
        <time>2020-05-11T08:13:32Z</time>
      </trkpt>
      <trkpt lat="49.34058" lon="0.87528">
        <ele>82</ele>
        <time>2020-05-11T08:13:36Z</time>
      </trkpt>
      <trkpt lat="49.3406" lon="0.8756">
        <ele>80</ele>
        <time>2020-05-11T08:13:42Z</time>
      </trkpt>
      <trkpt lat="49.34065" lon="0.87578">
        <ele>81</ele>
        <time>2020-05-11T08:13:44Z</time>
      </trkpt>
      <trkpt lat="49.34067" lon="0.87615">
        <ele>81</ele>
        <time>2020-05-11T08:13:45Z</time>
      </trkpt>
      <trkpt lat="49.34067" lon="0.87648">
        <ele>81</ele>
        <time>2020-05-11T08:13:46Z</time>
      </trkpt>
      <trkpt lat="49.34068" lon="0.87672">
        <ele>80</ele>
        <time>2020-05-11T08:13:49Z</time>
      </trkpt>
      <trkpt lat="49.34068" lon="0.87698">
        <ele>80</ele>
        <time>2020-05-11T08:13:54Z</time>
      </trkpt>
      <trkpt lat="49.3407" lon="0.87717">
        <ele>80</ele>
        <time>2020-05-11T08:14:00Z</time>
      </trkpt>
      <trkpt lat="49.3407" lon="0.8773">
        <ele>80</ele>
        <time>2020-05-11T08:14:04Z</time>
      </trkpt>
      <trkpt lat="49.34071" lon="0.87745">
        <ele>80</ele>
        <time>2020-05-11T08:14:06Z</time>
      </trkpt>
      <trkpt lat="49.34071" lon="0.87751">
        <ele>79</ele>
        <time>2020-05-11T08:14:07Z</time>
      </trkpt>
      <trkpt lat="49.34069" lon="0.8776">
        <ele>79</ele>
        <time>2020-05-11T08:14:13Z</time>
      </trkpt>
      <trkpt lat="49.34069" lon="0.87763">
        <ele>79</ele>
        <time>2020-05-11T08:14:17Z</time>
      </trkpt>
      <trkpt lat="49.34069" lon="0.87773">
        <ele>79</ele>
        <time>2020-05-11T08:14:18Z</time>
      </trkpt>
      <trkpt lat="49.34069" lon="0.87781">
        <ele>78</ele>
        <time>2020-05-11T08:14:26Z</time>
      </trkpt>
      <trkpt lat="49.34068" lon="0.87789">
        <ele>78</ele>
        <time>2020-05-11T08:14:32Z</time>
      </trkpt>
      <trkpt lat="49.34069" lon="0.878">
        <ele>77</ele>
        <time>2020-05-11T08:14:35Z</time>
      </trkpt>
      <trkpt lat="49.34072" lon="0.87817">
        <ele>86</ele>
        <time>2020-05-11T08:14:46Z</time>
      </trkpt>
      <trkpt lat="49.34072" lon="0.87823">
        <ele>86</ele>
        <time>2020-05-11T08:14:56Z</time>
      </trkpt>
      <trkpt lat="49.34074" lon="0.87831">
        <ele>85</ele>
        <time>2020-05-11T08:15:02Z</time>
      </trkpt>
      <trkpt lat="49.34077" lon="0.87839">
        <ele>85</ele>
        <time>2020-05-11T08:15:06Z</time>
      </trkpt>
      <trkpt lat="49.34077" lon="0.87843">
        <ele>85</ele>
        <time>2020-05-11T08:15:07Z</time>
      </trkpt>
      <trkpt lat="49.34077" lon="0.87847">
        <ele>86</ele>
        <time>2020-05-11T08:15:08Z</time>
      </trkpt>
      <trkpt lat="49.34077" lon="0.87851">
        <ele>86</ele>
        <time>2020-05-11T08:15:09Z</time>
      </trkpt>
      <trkpt lat="49.34078" lon="0.87856">
        <ele>86</ele>
        <time>2020-05-11T08:15:10Z</time>
      </trkpt>
      <trkpt lat="49.34079" lon="0.87861">
        <ele>85</ele>
        <time>2020-05-11T08:15:11Z</time>
      </trkpt>
      <trkpt lat="49.3408" lon="0.87866">
        <ele>84</ele>
        <time>2020-05-11T08:15:12Z</time>
      </trkpt>
      <trkpt lat="49.3408" lon="0.87869">
        <ele>83</ele>
        <time>2020-05-11T08:15:13Z</time>
      </trkpt>
      <trkpt lat="49.3408" lon="0.87871">
        <ele>82</ele>
        <time>2020-05-11T08:15:14Z</time>
      </trkpt>
      <trkpt lat="49.34082" lon="0.87879">
        <ele>82</ele>
        <time>2020-05-11T08:15:21Z</time>
      </trkpt>
      <trkpt lat="49.34081" lon="0.87882">
        <ele>84</ele>
        <time>2020-05-11T08:15:25Z</time>
      </trkpt>
      <trkpt lat="49.3408" lon="0.87888">
        <ele>84</ele>
        <time>2020-05-11T08:15:35Z</time>
      </trkpt>
      <trkpt lat="49.34081" lon="0.8789">
        <ele>83</ele>
        <time>2020-05-11T08:15:37Z</time>
      </trkpt>
      <trkpt lat="49.34084" lon="0.87905">
        <ele>81</ele>
        <time>2020-05-11T08:15:43Z</time>
      </trkpt>
      <trkpt lat="49.34091" lon="0.87918">
        <ele>80</ele>
        <time>2020-05-11T08:15:50Z</time>
      </trkpt>
      <trkpt lat="49.34092" lon="0.87926">
        <ele>80</ele>
        <time>2020-05-11T08:16:02Z</time>
      </trkpt>
      <trkpt lat="49.34092" lon="0.87928">
        <ele>80</ele>
        <time>2020-05-11T08:16:12Z</time>
      </trkpt>
      <trkpt lat="49.3409" lon="0.87931">
        <ele>80</ele>
        <time>2020-05-11T08:16:19Z</time>
      </trkpt>
      <trkpt lat="49.34089" lon="0.87934">
        <ele>80</ele>
        <time>2020-05-11T08:16:20Z</time>
      </trkpt>
      <trkpt lat="49.34084" lon="0.87954">
        <ele>78</ele>
        <time>2020-05-11T08:16:24Z</time>
      </trkpt>
      <trkpt lat="49.34078" lon="0.87956">
        <ele>78</ele>
        <time>2020-05-11T08:16:27Z</time>
      </trkpt>
      <trkpt lat="49.34073" lon="0.87952">
        <ele>77</ele>
        <time>2020-05-11T08:16:31Z</time>
      </trkpt>
      <trkpt lat="49.34047" lon="0.87946">
        <ele>77</ele>
        <time>2020-05-11T08:16:45Z</time>
      </trkpt>
      <trkpt lat="49.3404" lon="0.87945">
        <ele>78</ele>
        <time>2020-05-11T08:16:47Z</time>
      </trkpt>
      <trkpt lat="49.34039" lon="0.87944">
        <ele>78</ele>
        <time>2020-05-11T08:16:48Z</time>
      </trkpt>
      <trkpt lat="49.34035" lon="0.87918">
        <ele>78</ele>
        <time>2020-05-11T08:16:55Z</time>
      </trkpt>
      <trkpt lat="49.34031" lon="0.87909">
        <ele>77</ele>
        <time>2020-05-11T08:16:58Z</time>
      </trkpt>
      <trkpt lat="49.34024" lon="0.87906">
        <ele>77</ele>
        <time>2020-05-11T08:17:01Z</time>
      </trkpt>
      <trkpt lat="49.3402" lon="0.87906">
        <ele>78</ele>
        <time>2020-05-11T08:17:03Z</time>
      </trkpt>
      <trkpt lat="49.34012" lon="0.87908">
        <ele>81</ele>
        <time>2020-05-11T08:17:07Z</time>
      </trkpt>
      <trkpt lat="49.34009" lon="0.87912">
        <ele>82</ele>
        <time>2020-05-11T08:17:11Z</time>
      </trkpt>
      <trkpt lat="49.34008" lon="0.87918">
        <ele>84</ele>
        <time>2020-05-11T08:17:17Z</time>
      </trkpt>
      <trkpt lat="49.34007" lon="0.87926">
        <ele>86</ele>
        <time>2020-05-11T08:17:23Z</time>
      </trkpt>
      <trkpt lat="49.34006" lon="0.8793">
        <ele>86</ele>
        <time>2020-05-11T08:17:29Z</time>
      </trkpt>
      <trkpt lat="49.34005" lon="0.87933">
        <ele>86</ele>
        <time>2020-05-11T08:17:33Z</time>
      </trkpt>
      <trkpt lat="49.34001" lon="0.87953">
        <ele>90</ele>
        <time>2020-05-11T08:17:41Z</time>
      </trkpt>
      <trkpt lat="49.34004" lon="0.87963">
        <ele>91</ele>
        <time>2020-05-11T08:17:45Z</time>
      </trkpt>
      <trkpt lat="49.34008" lon="0.87976">
        <ele>93</ele>
        <time>2020-05-11T08:17:50Z</time>
      </trkpt>
      <trkpt lat="49.3401" lon="0.87983">
        <ele>93</ele>
        <time>2020-05-11T08:17:53Z</time>
      </trkpt>
      <trkpt lat="49.34012" lon="0.87992">
        <ele>95</ele>
        <time>2020-05-11T08:17:57Z</time>
      </trkpt>
      <trkpt lat="49.34015" lon="0.88012">
        <ele>98</ele>
        <time>2020-05-11T08:18:03Z</time>
      </trkpt>
      <trkpt lat="49.34018" lon="0.88034">
        <ele>101</ele>
        <time>2020-05-11T08:18:12Z</time>
      </trkpt>
      <trkpt lat="49.34019" lon="0.88036">
        <ele>101</ele>
        <time>2020-05-11T08:18:13Z</time>
      </trkpt>
      <trkpt lat="49.34017" lon="0.8806">
        <ele>103</ele>
        <time>2020-05-11T08:18:22Z</time>
      </trkpt>
      <trkpt lat="49.34016" lon="0.88069">
        <ele>103</ele>
        <time>2020-05-11T08:18:26Z</time>
      </trkpt>
      <trkpt lat="49.34017" lon="0.8808">
        <ele>105</ele>
        <time>2020-05-11T08:18:34Z</time>
      </trkpt>
      <trkpt lat="49.34017" lon="0.88082">
        <ele>103</ele>
        <time>2020-05-11T08:18:43Z</time>
      </trkpt>
      <trkpt lat="49.34019" lon="0.88096">
        <ele>102</ele>
        <time>2020-05-11T08:18:49Z</time>
      </trkpt>
      <trkpt lat="49.34022" lon="0.88121">
        <ele>99</ele>
        <time>2020-05-11T08:18:53Z</time>
      </trkpt>
      <trkpt lat="49.34021" lon="0.88154">
        <ele>97</ele>
        <time>2020-05-11T08:18:58Z</time>
      </trkpt>
      <trkpt lat="49.34018" lon="0.88178">
        <ele>94</ele>
        <time>2020-05-11T08:19:01Z</time>
      </trkpt>
      <trkpt lat="49.34016" lon="0.88187">
        <ele>94</ele>
        <time>2020-05-11T08:19:02Z</time>
      </trkpt>
      <trkpt lat="49.3401" lon="0.88209">
        <ele>94</ele>
        <time>2020-05-11T08:19:05Z</time>
      </trkpt>
      <trkpt lat="49.34007" lon="0.88215">
        <ele>94</ele>
        <time>2020-05-11T08:19:06Z</time>
      </trkpt>
      <trkpt lat="49.34004" lon="0.8822">
        <ele>95</ele>
        <time>2020-05-11T08:19:07Z</time>
      </trkpt>
      <trkpt lat="49.33994" lon="0.88237">
        <ele>96</ele>
        <time>2020-05-11T08:19:10Z</time>
      </trkpt>
      <trkpt lat="49.33991" lon="0.88244">
        <ele>96</ele>
        <time>2020-05-11T08:19:11Z</time>
      </trkpt>
      <trkpt lat="49.33988" lon="0.88252">
        <ele>97</ele>
        <time>2020-05-11T08:19:12Z</time>
      </trkpt>
      <trkpt lat="49.33986" lon="0.88259">
        <ele>97</ele>
        <time>2020-05-11T08:19:13Z</time>
      </trkpt>
      <trkpt lat="49.33983" lon="0.88266">
        <ele>97</ele>
        <time>2020-05-11T08:19:14Z</time>
      </trkpt>
      <trkpt lat="49.33975" lon="0.88283">
        <ele>97</ele>
        <time>2020-05-11T08:19:17Z</time>
      </trkpt>
      <trkpt lat="49.33972" lon="0.88289">
        <ele>97</ele>
        <time>2020-05-11T08:19:18Z</time>
      </trkpt>
      <trkpt lat="49.3397" lon="0.88294">
        <ele>97</ele>
        <time>2020-05-11T08:19:19Z</time>
      </trkpt>
      <trkpt lat="49.33964" lon="0.88314">
        <ele>97</ele>
        <time>2020-05-11T08:19:22Z</time>
      </trkpt>
      <trkpt lat="49.33961" lon="0.88321">
        <ele>97</ele>
        <time>2020-05-11T08:19:23Z</time>
      </trkpt>
      <trkpt lat="49.33958" lon="0.88328">
        <ele>97</ele>
        <time>2020-05-11T08:19:24Z</time>
      </trkpt>
      <trkpt lat="49.33956" lon="0.88334">
        <ele>97</ele>
        <time>2020-05-11T08:19:25Z</time>
      </trkpt>
      <trkpt lat="49.33954" lon="0.8834">
        <ele>97</ele>
        <time>2020-05-11T08:19:26Z</time>
      </trkpt>
      <trkpt lat="49.33951" lon="0.88353">
        <ele>97</ele>
        <time>2020-05-11T08:19:28Z</time>
      </trkpt>
      <trkpt lat="49.3395" lon="0.88359">
        <ele>97</ele>
        <time>2020-05-11T08:19:29Z</time>
      </trkpt>
      <trkpt lat="49.33946" lon="0.88386">
        <ele>96</ele>
        <time>2020-05-11T08:19:34Z</time>
      </trkpt>
      <trkpt lat="49.33945" lon="0.88394">
        <ele>94</ele>
        <time>2020-05-11T08:19:36Z</time>
      </trkpt>
      <trkpt lat="49.33944" lon="0.88397">
        <ele>94</ele>
        <time>2020-05-11T08:19:37Z</time>
      </trkpt>
      <trkpt lat="49.33943" lon="0.88404">
        <ele>93</ele>
        <time>2020-05-11T08:19:39Z</time>
      </trkpt>
      <trkpt lat="49.3394" lon="0.88426">
        <ele>89</ele>
        <time>2020-05-11T08:19:43Z</time>
      </trkpt>
      <trkpt lat="49.33937" lon="0.88437">
        <ele>88</ele>
        <time>2020-05-11T08:19:44Z</time>
      </trkpt>
      <trkpt lat="49.33933" lon="0.8845">
        <ele>88</ele>
        <time>2020-05-11T08:19:45Z</time>
      </trkpt>
      <trkpt lat="49.3393" lon="0.88464">
        <ele>87</ele>
        <time>2020-05-11T08:19:46Z</time>
      </trkpt>
      <trkpt lat="49.33928" lon="0.88477">
        <ele>86</ele>
        <time>2020-05-11T08:19:47Z</time>
      </trkpt>
      <trkpt lat="49.33926" lon="0.88489">
        <ele>85</ele>
        <time>2020-05-11T08:19:48Z</time>
      </trkpt>
      <trkpt lat="49.33923" lon="0.88501">
        <ele>85</ele>
        <time>2020-05-11T08:19:49Z</time>
      </trkpt>
      <trkpt lat="49.3392" lon="0.88514">
        <ele>85</ele>
        <time>2020-05-11T08:19:50Z</time>
      </trkpt>
      <trkpt lat="49.33903" lon="0.88577">
        <ele>83</ele>
        <time>2020-05-11T08:19:55Z</time>
      </trkpt>
      <trkpt lat="49.33893" lon="0.88605">
        <ele>82</ele>
        <time>2020-05-11T08:19:58Z</time>
      </trkpt>
      <trkpt lat="49.33884" lon="0.88621">
        <ele>81</ele>
        <time>2020-05-11T08:20:00Z</time>
      </trkpt>
      <trkpt lat="49.33879" lon="0.88629">
        <ele>81</ele>
        <time>2020-05-11T08:20:01Z</time>
      </trkpt>
      <trkpt lat="49.33857" lon="0.88682">
        <ele>80</ele>
        <time>2020-05-11T08:20:07Z</time>
      </trkpt>
      <trkpt lat="49.33846" lon="0.88717">
        <ele>79</ele>
        <time>2020-05-11T08:20:12Z</time>
      </trkpt>
      <trkpt lat="49.33843" lon="0.88718">
        <ele>79</ele>
        <time>2020-05-11T08:20:13Z</time>
      </trkpt>
      <trkpt lat="49.3384" lon="0.88716">
        <ele>79</ele>
        <time>2020-05-11T08:20:14Z</time>
      </trkpt>
      <trkpt lat="49.3383" lon="0.88699">
        <ele>80</ele>
        <time>2020-05-11T08:20:19Z</time>
      </trkpt>
      <trkpt lat="49.33828" lon="0.88692">
        <ele>80</ele>
        <time>2020-05-11T08:20:20Z</time>
      </trkpt>
      <trkpt lat="49.3382" lon="0.88675">
        <ele>81</ele>
        <time>2020-05-11T08:20:23Z</time>
      </trkpt>
      <trkpt lat="49.33807" lon="0.88655">
        <ele>83</ele>
        <time>2020-05-11T08:20:27Z</time>
      </trkpt>
      <trkpt lat="49.33799" lon="0.88637">
        <ele>84</ele>
        <time>2020-05-11T08:20:30Z</time>
      </trkpt>
      <trkpt lat="49.33781" lon="0.88605">
        <ele>86</ele>
        <time>2020-05-11T08:20:35Z</time>
      </trkpt>
      <trkpt lat="49.33778" lon="0.886">
        <ele>86</ele>
        <time>2020-05-11T08:20:36Z</time>
      </trkpt>
      <trkpt lat="49.33776" lon="0.88594">
        <ele>86</ele>
        <time>2020-05-11T08:20:37Z</time>
      </trkpt>
      <trkpt lat="49.33769" lon="0.88574">
        <ele>86</ele>
        <time>2020-05-11T08:20:40Z</time>
      </trkpt>
      <trkpt lat="49.33768" lon="0.88567">
        <ele>86</ele>
        <time>2020-05-11T08:20:41Z</time>
      </trkpt>
      <trkpt lat="49.33765" lon="0.88531">
        <ele>89</ele>
        <time>2020-05-11T08:20:47Z</time>
      </trkpt>
      <trkpt lat="49.33769" lon="0.88513">
        <ele>90</ele>
        <time>2020-05-11T08:20:50Z</time>
      </trkpt>
      <trkpt lat="49.33772" lon="0.88507">
        <ele>90</ele>
        <time>2020-05-11T08:20:51Z</time>
      </trkpt>
      <trkpt lat="49.33774" lon="0.88501">
        <ele>90</ele>
        <time>2020-05-11T08:20:52Z</time>
      </trkpt>
      <trkpt lat="49.33776" lon="0.88496">
        <ele>90</ele>
        <time>2020-05-11T08:20:53Z</time>
      </trkpt>
      <trkpt lat="49.33779" lon="0.88489">
        <ele>91</ele>
        <time>2020-05-11T08:20:54Z</time>
      </trkpt>
      <trkpt lat="49.33781" lon="0.88482">
        <ele>91</ele>
        <time>2020-05-11T08:20:55Z</time>
      </trkpt>
      <trkpt lat="49.33783" lon="0.88475">
        <ele>92</ele>
        <time>2020-05-11T08:20:56Z</time>
      </trkpt>
      <trkpt lat="49.33783" lon="0.88468">
        <ele>92</ele>
        <time>2020-05-11T08:20:57Z</time>
      </trkpt>
      <trkpt lat="49.33784" lon="0.88461">
        <ele>92</ele>
        <time>2020-05-11T08:20:58Z</time>
      </trkpt>
      <trkpt lat="49.33785" lon="0.88453">
        <ele>92</ele>
        <time>2020-05-11T08:20:59Z</time>
      </trkpt>
      <trkpt lat="49.33785" lon="0.88445">
        <ele>92</ele>
        <time>2020-05-11T08:21:00Z</time>
      </trkpt>
      <trkpt lat="49.33786" lon="0.88437">
        <ele>93</ele>
        <time>2020-05-11T08:21:01Z</time>
      </trkpt>
      <trkpt lat="49.33786" lon="0.88398">
        <ele>94</ele>
        <time>2020-05-11T08:21:06Z</time>
      </trkpt>
      <trkpt lat="49.33786" lon="0.8839">
        <ele>95</ele>
        <time>2020-05-11T08:21:07Z</time>
      </trkpt>
      <trkpt lat="49.33785" lon="0.8835">
        <ele>98</ele>
        <time>2020-05-11T08:21:13Z</time>
      </trkpt>
      <trkpt lat="49.33773" lon="0.88318">
        <ele>99</ele>
        <time>2020-05-11T08:21:18Z</time>
      </trkpt>
      <trkpt lat="49.33766" lon="0.88297">
        <ele>100</ele>
        <time>2020-05-11T08:21:21Z</time>
      </trkpt>
      <trkpt lat="49.33764" lon="0.8829">
        <ele>100</ele>
        <time>2020-05-11T08:21:22Z</time>
      </trkpt>
      <trkpt lat="49.33748" lon="0.88256">
        <ele>100</ele>
        <time>2020-05-11T08:21:29Z</time>
      </trkpt>
      <trkpt lat="49.33738" lon="0.88225">
        <ele>100</ele>
        <time>2020-05-11T08:21:35Z</time>
      </trkpt>
      <trkpt lat="49.33735" lon="0.88206">
        <ele>100</ele>
        <time>2020-05-11T08:21:40Z</time>
      </trkpt>
      <trkpt lat="49.33735" lon="0.88202">
        <ele>100</ele>
        <time>2020-05-11T08:21:41Z</time>
      </trkpt>
      <trkpt lat="49.33734" lon="0.88199">
        <ele>100</ele>
        <time>2020-05-11T08:21:42Z</time>
      </trkpt>
      <trkpt lat="49.33733" lon="0.88196">
        <ele>100</ele>
        <time>2020-05-11T08:21:43Z</time>
      </trkpt>
      <trkpt lat="49.33733" lon="0.88192">
        <ele>100</ele>
        <time>2020-05-11T08:21:44Z</time>
      </trkpt>
      <trkpt lat="49.3373" lon="0.88171">
        <ele>101</ele>
        <time>2020-05-11T08:21:49Z</time>
      </trkpt>
      <trkpt lat="49.3373" lon="0.8813">
        <ele>103</ele>
        <time>2020-05-11T08:21:56Z</time>
      </trkpt>
      <trkpt lat="49.33732" lon="0.88098">
        <ele>105</ele>
        <time>2020-05-11T08:22:02Z</time>
      </trkpt>
      <trkpt lat="49.33738" lon="0.88058">
        <ele>105</ele>
        <time>2020-05-11T08:22:09Z</time>
      </trkpt>
      <trkpt lat="49.33738" lon="0.88024">
        <ele>108</ele>
        <time>2020-05-11T08:22:15Z</time>
      </trkpt>
      <trkpt lat="49.3374" lon="0.87988">
        <ele>110</ele>
        <time>2020-05-11T08:22:22Z</time>
      </trkpt>
      <trkpt lat="49.3374" lon="0.87983">
        <ele>111</ele>
        <time>2020-05-11T08:22:23Z</time>
      </trkpt>
      <trkpt lat="49.3374" lon="0.87977">
        <ele>111</ele>
        <time>2020-05-11T08:22:24Z</time>
      </trkpt>
      <trkpt lat="49.3374" lon="0.87971">
        <ele>111</ele>
        <time>2020-05-11T08:22:25Z</time>
      </trkpt>
      <trkpt lat="49.3374" lon="0.87966">
        <ele>112</ele>
        <time>2020-05-11T08:22:26Z</time>
      </trkpt>
      <trkpt lat="49.33739" lon="0.8796">
        <ele>113</ele>
        <time>2020-05-11T08:22:27Z</time>
      </trkpt>
      <trkpt lat="49.33738" lon="0.87954">
        <ele>113</ele>
        <time>2020-05-11T08:22:28Z</time>
      </trkpt>
      <trkpt lat="49.33737" lon="0.87939">
        <ele>114</ele>
        <time>2020-05-11T08:22:31Z</time>
      </trkpt>
      <trkpt lat="49.33731" lon="0.87909">
        <ele>116</ele>
        <time>2020-05-11T08:22:37Z</time>
      </trkpt>
      <trkpt lat="49.33718" lon="0.87887">
        <ele>118</ele>
        <time>2020-05-11T08:22:43Z</time>
      </trkpt>
      <trkpt lat="49.33703" lon="0.87872">
        <ele>121</ele>
        <time>2020-05-11T08:22:48Z</time>
      </trkpt>
      <trkpt lat="49.33692" lon="0.87863">
        <ele>123</ele>
        <time>2020-05-11T08:22:52Z</time>
      </trkpt>
      <trkpt lat="49.33679" lon="0.87841">
        <ele>124</ele>
        <time>2020-05-11T08:22:58Z</time>
      </trkpt>
      <trkpt lat="49.33662" lon="0.87822">
        <ele>125</ele>
        <time>2020-05-11T08:23:04Z</time>
      </trkpt>
      <trkpt lat="49.33661" lon="0.87817">
        <ele>125</ele>
        <time>2020-05-11T08:23:05Z</time>
      </trkpt>
      <trkpt lat="49.33661" lon="0.87813">
        <ele>125</ele>
        <time>2020-05-11T08:23:06Z</time>
      </trkpt>
      <trkpt lat="49.3366" lon="0.87809">
        <ele>125</ele>
        <time>2020-05-11T08:23:07Z</time>
      </trkpt>
      <trkpt lat="49.3366" lon="0.87805">
        <ele>125</ele>
        <time>2020-05-11T08:23:08Z</time>
      </trkpt>
      <trkpt lat="49.33659" lon="0.878">
        <ele>125</ele>
        <time>2020-05-11T08:23:09Z</time>
      </trkpt>
      <trkpt lat="49.33659" lon="0.87795">
        <ele>125</ele>
        <time>2020-05-11T08:23:10Z</time>
      </trkpt>
      <trkpt lat="49.33659" lon="0.87786">
        <ele>126</ele>
        <time>2020-05-11T08:23:12Z</time>
      </trkpt>
      <trkpt lat="49.3366" lon="0.87781">
        <ele>126</ele>
        <time>2020-05-11T08:23:13Z</time>
      </trkpt>
      <trkpt lat="49.3366" lon="0.87775">
        <ele>126</ele>
        <time>2020-05-11T08:23:14Z</time>
      </trkpt>
      <trkpt lat="49.33664" lon="0.8775">
        <ele>127</ele>
        <time>2020-05-11T08:23:18Z</time>
      </trkpt>
      <trkpt lat="49.33666" lon="0.87742">
        <ele>127</ele>
        <time>2020-05-11T08:23:19Z</time>
      </trkpt>
      <trkpt lat="49.33667" lon="0.87734">
        <ele>127</ele>
        <time>2020-05-11T08:23:20Z</time>
      </trkpt>
      <trkpt lat="49.3367" lon="0.8772">
        <ele>127</ele>
        <time>2020-05-11T08:23:22Z</time>
      </trkpt>
      <trkpt lat="49.33672" lon="0.87713">
        <ele>127</ele>
        <time>2020-05-11T08:23:23Z</time>
      </trkpt>
      <trkpt lat="49.33674" lon="0.87705">
        <ele>127</ele>
        <time>2020-05-11T08:23:24Z</time>
      </trkpt>
      <trkpt lat="49.33675" lon="0.87696">
        <ele>126</ele>
        <time>2020-05-11T08:23:25Z</time>
      </trkpt>
      <trkpt lat="49.33677" lon="0.87688">
        <ele>126</ele>
        <time>2020-05-11T08:23:26Z</time>
      </trkpt>
      <trkpt lat="49.33679" lon="0.8768">
        <ele>126</ele>
        <time>2020-05-11T08:23:27Z</time>
      </trkpt>
      <trkpt lat="49.33681" lon="0.87673">
        <ele>126</ele>
        <time>2020-05-11T08:23:28Z</time>
      </trkpt>
      <trkpt lat="49.33682" lon="0.87665">
        <ele>126</ele>
        <time>2020-05-11T08:23:29Z</time>
      </trkpt>
      <trkpt lat="49.33684" lon="0.87658">
        <ele>126</ele>
        <time>2020-05-11T08:23:30Z</time>
      </trkpt>
      <trkpt lat="49.33685" lon="0.87651">
        <ele>125</ele>
        <time>2020-05-11T08:23:31Z</time>
      </trkpt>
      <trkpt lat="49.33687" lon="0.87645">
        <ele>125</ele>
        <time>2020-05-11T08:23:32Z</time>
      </trkpt>
      <trkpt lat="49.33689" lon="0.87638">
        <ele>125</ele>
        <time>2020-05-11T08:23:33Z</time>
      </trkpt>
      <trkpt lat="49.33691" lon="0.87632">
        <ele>125</ele>
        <time>2020-05-11T08:23:34Z</time>
      </trkpt>
      <trkpt lat="49.33701" lon="0.87594">
        <ele>125</ele>
        <time>2020-05-11T08:23:41Z</time>
      </trkpt>
      <trkpt lat="49.33706" lon="0.87571">
        <ele>125</ele>
        <time>2020-05-11T08:23:46Z</time>
      </trkpt>
      <trkpt lat="49.33714" lon="0.87536">
        <ele>125</ele>
        <time>2020-05-11T08:23:52Z</time>
      </trkpt>
      <trkpt lat="49.33713" lon="0.87513">
        <ele>125</ele>
        <time>2020-05-11T08:23:57Z</time>
      </trkpt>
      <trkpt lat="49.33704" lon="0.87486">
        <ele>127</ele>
        <time>2020-05-11T08:24:03Z</time>
      </trkpt>
      <trkpt lat="49.33695" lon="0.87461">
        <ele>128</ele>
        <time>2020-05-11T08:24:09Z</time>
      </trkpt>
      <trkpt lat="49.33692" lon="0.87458">
        <ele>128</ele>
        <time>2020-05-11T08:24:10Z</time>
      </trkpt>
      <trkpt lat="49.3369" lon="0.87456">
        <ele>128</ele>
        <time>2020-05-11T08:24:11Z</time>
      </trkpt>
      <trkpt lat="49.33671" lon="0.87433">
        <ele>128</ele>
        <time>2020-05-11T08:24:18Z</time>
      </trkpt>
      <trkpt lat="49.33646" lon="0.87415">
        <ele>129</ele>
        <time>2020-05-11T08:24:24Z</time>
      </trkpt>
      <trkpt lat="49.33622" lon="0.87395">
        <ele>129</ele>
        <time>2020-05-11T08:24:30Z</time>
      </trkpt>
      <trkpt lat="49.33592" lon="0.87367">
        <ele>129</ele>
        <time>2020-05-11T08:24:37Z</time>
      </trkpt>
      <trkpt lat="49.3357" lon="0.87354">
        <ele>130</ele>
        <time>2020-05-11T08:24:42Z</time>
      </trkpt>
      <trkpt lat="49.33545" lon="0.87341">
        <ele>131</ele>
        <time>2020-05-11T08:24:47Z</time>
      </trkpt>
      <trkpt lat="49.33527" lon="0.87332">
        <ele>131</ele>
        <time>2020-05-11T08:24:51Z</time>
      </trkpt>
      <trkpt lat="49.33501" lon="0.87325">
        <ele>132</ele>
        <time>2020-05-11T08:24:57Z</time>
      </trkpt>
      <trkpt lat="49.33486" lon="0.87311">
        <ele>132</ele>
        <time>2020-05-11T08:25:02Z</time>
      </trkpt>
      <trkpt lat="49.33467" lon="0.87302">
        <ele>131</ele>
        <time>2020-05-11T08:25:07Z</time>
      </trkpt>
      <trkpt lat="49.33442" lon="0.87295">
        <ele>131</ele>
        <time>2020-05-11T08:25:12Z</time>
      </trkpt>
      <trkpt lat="49.33437" lon="0.87296">
        <ele>131</ele>
        <time>2020-05-11T08:25:13Z</time>
      </trkpt>
      <trkpt lat="49.33432" lon="0.87295">
        <ele>131</ele>
        <time>2020-05-11T08:25:14Z</time>
      </trkpt>
      <trkpt lat="49.33423" lon="0.87292">
        <ele>131</ele>
        <time>2020-05-11T08:25:16Z</time>
      </trkpt>
      <trkpt lat="49.33418" lon="0.87289">
        <ele>131</ele>
        <time>2020-05-11T08:25:17Z</time>
      </trkpt>
      <trkpt lat="49.33413" lon="0.87287">
        <ele>131</ele>
        <time>2020-05-11T08:25:18Z</time>
      </trkpt>
      <trkpt lat="49.33408" lon="0.87285">
        <ele>131</ele>
        <time>2020-05-11T08:25:19Z</time>
      </trkpt>
      <trkpt lat="49.33403" lon="0.87282">
        <ele>131</ele>
        <time>2020-05-11T08:25:20Z</time>
      </trkpt>
      <trkpt lat="49.33384" lon="0.87267">
        <ele>131</ele>
        <time>2020-05-11T08:25:25Z</time>
      </trkpt>
      <trkpt lat="49.33384" lon="0.8726">
        <ele>133</ele>
        <time>2020-05-11T08:25:27Z</time>
      </trkpt>
      <trkpt lat="49.33386" lon="0.87253">
        <ele>133</ele>
        <time>2020-05-11T08:25:29Z</time>
      </trkpt>
      <trkpt lat="49.33386" lon="0.87237">
        <ele>134</ele>
        <time>2020-05-11T08:25:33Z</time>
      </trkpt>
      <trkpt lat="49.33389" lon="0.87234">
        <ele>134</ele>
        <time>2020-05-11T08:25:34Z</time>
      </trkpt>
      <trkpt lat="49.33391" lon="0.87231">
        <ele>134</ele>
        <time>2020-05-11T08:25:35Z</time>
      </trkpt>
      <trkpt lat="49.33406" lon="0.87213">
        <ele>134</ele>
        <time>2020-05-11T08:25:41Z</time>
      </trkpt>
      <trkpt lat="49.33419" lon="0.87201">
        <ele>133</ele>
        <time>2020-05-11T08:25:45Z</time>
      </trkpt>
      <trkpt lat="49.33422" lon="0.87198">
        <ele>133</ele>
        <time>2020-05-11T08:25:46Z</time>
      </trkpt>
      <trkpt lat="49.33425" lon="0.87194">
        <ele>132</ele>
        <time>2020-05-11T08:25:47Z</time>
      </trkpt>
      <trkpt lat="49.33436" lon="0.87182">
        <ele>132</ele>
        <time>2020-05-11T08:25:51Z</time>
      </trkpt>
      <trkpt lat="49.33439" lon="0.87179">
        <ele>132</ele>
        <time>2020-05-11T08:25:52Z</time>
      </trkpt>
      <trkpt lat="49.33465" lon="0.87161">
        <ele>131</ele>
        <time>2020-05-11T08:25:59Z</time>
      </trkpt>
      <trkpt lat="49.33481" lon="0.87151">
        <ele>129</ele>
        <time>2020-05-11T08:26:03Z</time>
      </trkpt>
      <trkpt lat="49.33487" lon="0.8715">
        <ele>129</ele>
        <time>2020-05-11T08:26:04Z</time>
      </trkpt>
      <trkpt lat="49.33499" lon="0.87149">
        <ele>128</ele>
        <time>2020-05-11T08:26:06Z</time>
      </trkpt>
      <trkpt lat="49.33505" lon="0.8715">
        <ele>128</ele>
        <time>2020-05-11T08:26:07Z</time>
      </trkpt>
      <trkpt lat="49.33547" lon="0.8717">
        <ele>127</ele>
        <time>2020-05-11T08:26:14Z</time>
      </trkpt>
      <trkpt lat="49.33578" lon="0.87194">
        <ele>124</ele>
        <time>2020-05-11T08:26:19Z</time>
      </trkpt>
      <trkpt lat="49.33583" lon="0.872">
        <ele>124</ele>
        <time>2020-05-11T08:26:20Z</time>
      </trkpt>
      <trkpt lat="49.33629" lon="0.87236">
        <ele>121</ele>
        <time>2020-05-11T08:26:27Z</time>
      </trkpt>
      <trkpt lat="49.33685" lon="0.87269">
        <ele>117</ele>
        <time>2020-05-11T08:26:35Z</time>
      </trkpt>
      <trkpt lat="49.33734" lon="0.87288">
        <ele>115</ele>
        <time>2020-05-11T08:26:41Z</time>
      </trkpt>
      <trkpt lat="49.33751" lon="0.87295">
        <ele>114</ele>
        <time>2020-05-11T08:26:43Z</time>
      </trkpt>
      <trkpt lat="49.33776" lon="0.87303">
        <ele>112</ele>
        <time>2020-05-11T08:26:46Z</time>
      </trkpt>
      <trkpt lat="49.33816" lon="0.87314">
        <ele>109</ele>
        <time>2020-05-11T08:26:51Z</time>
      </trkpt>
      <trkpt lat="49.33829" lon="0.87319">
        <ele>109</ele>
        <time>2020-05-11T08:26:53Z</time>
      </trkpt>
      <trkpt lat="49.33836" lon="0.87323">
        <ele>108</ele>
        <time>2020-05-11T08:26:54Z</time>
      </trkpt>
      <trkpt lat="49.33841" lon="0.87328">
        <ele>108</ele>
        <time>2020-05-11T08:26:55Z</time>
      </trkpt>
      <trkpt lat="49.33853" lon="0.87343">
        <ele>106</ele>
        <time>2020-05-11T08:26:58Z</time>
      </trkpt>
      <trkpt lat="49.33856" lon="0.87349">
        <ele>105</ele>
        <time>2020-05-11T08:26:59Z</time>
      </trkpt>
      <trkpt lat="49.33864" lon="0.87369">
        <ele>104</ele>
        <time>2020-05-11T08:27:02Z</time>
      </trkpt>
      <trkpt lat="49.33878" lon="0.87408">
        <ele>101</ele>
        <time>2020-05-11T08:27:06Z</time>
      </trkpt>
      <trkpt lat="49.33885" lon="0.87428">
        <ele>101</ele>
        <time>2020-05-11T08:27:08Z</time>
      </trkpt>
      <trkpt lat="49.33887" lon="0.87437">
        <ele>99</ele>
        <time>2020-05-11T08:27:09Z</time>
      </trkpt>
      <trkpt lat="49.33891" lon="0.87446">
        <ele>99</ele>
        <time>2020-05-11T08:27:10Z</time>
      </trkpt>
      <trkpt lat="49.33895" lon="0.87454">
        <ele>99</ele>
        <time>2020-05-11T08:27:11Z</time>
      </trkpt>
      <trkpt lat="49.33899" lon="0.87462">
        <ele>99</ele>
        <time>2020-05-11T08:27:12Z</time>
      </trkpt>
      <trkpt lat="49.33902" lon="0.8747">
        <ele>99</ele>
        <time>2020-05-11T08:27:13Z</time>
      </trkpt>
      <trkpt lat="49.33905" lon="0.87479">
        <ele>99</ele>
        <time>2020-05-11T08:27:14Z</time>
      </trkpt>
      <trkpt lat="49.33908" lon="0.87487">
        <ele>99</ele>
        <time>2020-05-11T08:27:15Z</time>
      </trkpt>
      <trkpt lat="49.3394" lon="0.87551">
        <ele>96</ele>
        <time>2020-05-11T08:27:22Z</time>
      </trkpt>
      <trkpt lat="49.33948" lon="0.87566">
        <ele>95</ele>
        <time>2020-05-11T08:27:24Z</time>
      </trkpt>
      <trkpt lat="49.33956" lon="0.87578">
        <ele>94</ele>
        <time>2020-05-11T08:27:26Z</time>
      </trkpt>
      <trkpt lat="49.33962" lon="0.87584">
        <ele>93</ele>
        <time>2020-05-11T08:27:27Z</time>
      </trkpt>
      <trkpt lat="49.33967" lon="0.87587">
        <ele>93</ele>
        <time>2020-05-11T08:27:28Z</time>
      </trkpt>
      <trkpt lat="49.33972" lon="0.87589">
        <ele>92</ele>
        <time>2020-05-11T08:27:29Z</time>
      </trkpt>
      <trkpt lat="49.33976" lon="0.87588">
        <ele>91</ele>
        <time>2020-05-11T08:27:30Z</time>
      </trkpt>
      <trkpt lat="49.33981" lon="0.87584">
        <ele>91</ele>
        <time>2020-05-11T08:27:31Z</time>
      </trkpt>
      <trkpt lat="49.33984" lon="0.87581">
        <ele>91</ele>
        <time>2020-05-11T08:27:32Z</time>
      </trkpt>
      <trkpt lat="49.33986" lon="0.87576">
        <ele>91</ele>
        <time>2020-05-11T08:27:33Z</time>
      </trkpt>
      <trkpt lat="49.33987" lon="0.87571">
        <ele>91</ele>
        <time>2020-05-11T08:27:34Z</time>
      </trkpt>
      <trkpt lat="49.33987" lon="0.87567">
        <ele>91</ele>
        <time>2020-05-11T08:27:35Z</time>
      </trkpt>
      <trkpt lat="49.33987" lon="0.87562">
        <ele>91</ele>
        <time>2020-05-11T08:27:36Z</time>
      </trkpt>
      <trkpt lat="49.33986" lon="0.87557">
        <ele>91</ele>
        <time>2020-05-11T08:27:37Z</time>
      </trkpt>
      <trkpt lat="49.33986" lon="0.87553">
        <ele>91</ele>
        <time>2020-05-11T08:27:38Z</time>
      </trkpt>
      <trkpt lat="49.33985" lon="0.87548">
        <ele>91</ele>
        <time>2020-05-11T08:27:39Z</time>
      </trkpt>
      <trkpt lat="49.33985" lon="0.87544">
        <ele>91</ele>
        <time>2020-05-11T08:27:40Z</time>
      </trkpt>
      <trkpt lat="49.33985" lon="0.87539">
        <ele>92</ele>
        <time>2020-05-11T08:27:41Z</time>
      </trkpt>
      <trkpt lat="49.33984" lon="0.87534">
        <ele>92</ele>
        <time>2020-05-11T08:27:42Z</time>
      </trkpt>
      <trkpt lat="49.33977" lon="0.87503">
        <ele>93</ele>
        <time>2020-05-11T08:27:48Z</time>
      </trkpt>
      <trkpt lat="49.33971" lon="0.87467">
        <ele>93</ele>
        <time>2020-05-11T08:27:54Z</time>
      </trkpt>
      <trkpt lat="49.3397" lon="0.87462">
        <ele>93</ele>
        <time>2020-05-11T08:27:55Z</time>
      </trkpt>
      <trkpt lat="49.33969" lon="0.87456">
        <ele>93</ele>
        <time>2020-05-11T08:27:56Z</time>
      </trkpt>
      <trkpt lat="49.33968" lon="0.87451">
        <ele>93</ele>
        <time>2020-05-11T08:27:57Z</time>
      </trkpt>
      <trkpt lat="49.33967" lon="0.87445">
        <ele>93</ele>
        <time>2020-05-11T08:27:58Z</time>
      </trkpt>
      <trkpt lat="49.33966" lon="0.87439">
        <ele>93</ele>
        <time>2020-05-11T08:27:59Z</time>
      </trkpt>
      <trkpt lat="49.33964" lon="0.87434">
        <ele>93</ele>
        <time>2020-05-11T08:28:00Z</time>
      </trkpt>
      <trkpt lat="49.33963" lon="0.87428">
        <ele>93</ele>
        <time>2020-05-11T08:28:01Z</time>
      </trkpt>
      <trkpt lat="49.33961" lon="0.87422">
        <ele>93</ele>
        <time>2020-05-11T08:28:02Z</time>
      </trkpt>
      <trkpt lat="49.33948" lon="0.87393">
        <ele>93</ele>
        <time>2020-05-11T08:28:07Z</time>
      </trkpt>
      <trkpt lat="49.33941" lon="0.87382">
        <ele>92</ele>
        <time>2020-05-11T08:28:09Z</time>
      </trkpt>
      <trkpt lat="49.33921" lon="0.87346">
        <ele>90</ele>
        <time>2020-05-11T08:28:15Z</time>
      </trkpt>
      <trkpt lat="49.33896" lon="0.87297">
        <ele>89</ele>
        <time>2020-05-11T08:28:22Z</time>
      </trkpt>
      <trkpt lat="49.33888" lon="0.87286">
        <ele>88</ele>
        <time>2020-05-11T08:28:24Z</time>
      </trkpt>
      <trkpt lat="49.33881" lon="0.87278">
        <ele>88</ele>
        <time>2020-05-11T08:28:26Z</time>
      </trkpt>
      <trkpt lat="49.33876" lon="0.87273">
        <ele>88</ele>
        <time>2020-05-11T08:28:27Z</time>
      </trkpt>
      <trkpt lat="49.33872" lon="0.87268">
        <ele>88</ele>
        <time>2020-05-11T08:28:28Z</time>
      </trkpt>
      <trkpt lat="49.33841" lon="0.8724">
        <ele>89</ele>
        <time>2020-05-11T08:28:35Z</time>
      </trkpt>
      <trkpt lat="49.33837" lon="0.87236">
        <ele>89</ele>
        <time>2020-05-11T08:28:36Z</time>
      </trkpt>
      <trkpt lat="49.33803" lon="0.87208">
        <ele>90</ele>
        <time>2020-05-11T08:28:43Z</time>
      </trkpt>
      <trkpt lat="49.33794" lon="0.872">
        <ele>90</ele>
        <time>2020-05-11T08:28:45Z</time>
      </trkpt>
      <trkpt lat="49.3379" lon="0.87196">
        <ele>90</ele>
        <time>2020-05-11T08:28:46Z</time>
      </trkpt>
      <trkpt lat="49.3376" lon="0.87172">
        <ele>90</ele>
        <time>2020-05-11T08:28:52Z</time>
      </trkpt>
      <trkpt lat="49.33742" lon="0.87156">
        <ele>90</ele>
        <time>2020-05-11T08:28:56Z</time>
      </trkpt>
      <trkpt lat="49.33737" lon="0.87153">
        <ele>90</ele>
        <time>2020-05-11T08:28:57Z</time>
      </trkpt>
      <trkpt lat="49.33733" lon="0.87149">
        <ele>90</ele>
        <time>2020-05-11T08:28:58Z</time>
      </trkpt>
      <trkpt lat="49.33728" lon="0.87146">
        <ele>90</ele>
        <time>2020-05-11T08:28:59Z</time>
      </trkpt>
      <trkpt lat="49.33722" lon="0.87141">
        <ele>90</ele>
        <time>2020-05-11T08:29:00Z</time>
      </trkpt>
      <trkpt lat="49.33718" lon="0.87138">
        <ele>90</ele>
        <time>2020-05-11T08:29:01Z</time>
      </trkpt>
      <trkpt lat="49.33713" lon="0.87134">
        <ele>90</ele>
        <time>2020-05-11T08:29:02Z</time>
      </trkpt>
      <trkpt lat="49.33709" lon="0.87129">
        <ele>90</ele>
        <time>2020-05-11T08:29:03Z</time>
      </trkpt>
      <trkpt lat="49.33704" lon="0.87124">
        <ele>90</ele>
        <time>2020-05-11T08:29:04Z</time>
      </trkpt>
      <trkpt lat="49.33694" lon="0.87113">
        <ele>90</ele>
        <time>2020-05-11T08:29:06Z</time>
      </trkpt>
      <trkpt lat="49.33665" lon="0.87068">
        <ele>90</ele>
        <time>2020-05-11T08:29:13Z</time>
      </trkpt>
      <trkpt lat="49.33662" lon="0.87062">
        <ele>90</ele>
        <time>2020-05-11T08:29:14Z</time>
      </trkpt>
      <trkpt lat="49.33658" lon="0.87055">
        <ele>90</ele>
        <time>2020-05-11T08:29:15Z</time>
      </trkpt>
      <trkpt lat="49.33626" lon="0.87004">
        <ele>90</ele>
        <time>2020-05-11T08:29:23Z</time>
      </trkpt>
      <trkpt lat="49.33622" lon="0.86998">
        <ele>90</ele>
        <time>2020-05-11T08:29:24Z</time>
      </trkpt>
      <trkpt lat="49.33617" lon="0.86991">
        <ele>91</ele>
        <time>2020-05-11T08:29:25Z</time>
      </trkpt>
      <trkpt lat="49.33593" lon="0.86953">
        <ele>92</ele>
        <time>2020-05-11T08:29:31Z</time>
      </trkpt>
      <trkpt lat="49.33571" lon="0.86918">
        <ele>92</ele>
        <time>2020-05-11T08:29:37Z</time>
      </trkpt>
      <trkpt lat="49.33559" lon="0.86905">
        <ele>92</ele>
        <time>2020-05-11T08:29:40Z</time>
      </trkpt>
      <trkpt lat="49.33555" lon="0.86901">
        <ele>92</ele>
        <time>2020-05-11T08:29:41Z</time>
      </trkpt>
      <trkpt lat="49.33551" lon="0.86897">
        <ele>93</ele>
        <time>2020-05-11T08:29:42Z</time>
      </trkpt>
      <trkpt lat="49.33546" lon="0.86894">
        <ele>93</ele>
        <time>2020-05-11T08:29:43Z</time>
      </trkpt>
      <trkpt lat="49.33541" lon="0.86891">
        <ele>92</ele>
        <time>2020-05-11T08:29:44Z</time>
      </trkpt>
      <trkpt lat="49.33536" lon="0.86888">
        <ele>92</ele>
        <time>2020-05-11T08:29:45Z</time>
      </trkpt>
      <trkpt lat="49.33492" lon="0.86866">
        <ele>93</ele>
        <time>2020-05-11T08:29:53Z</time>
      </trkpt>
      <trkpt lat="49.33431" lon="0.86838">
        <ele>96</ele>
        <time>2020-05-11T08:30:05Z</time>
      </trkpt>
      <trkpt lat="49.33383" lon="0.8682">
        <ele>96</ele>
        <time>2020-05-11T08:30:15Z</time>
      </trkpt>
      <trkpt lat="49.33348" lon="0.86805">
        <ele>98</ele>
        <time>2020-05-11T08:30:23Z</time>
      </trkpt>
      <trkpt lat="49.33343" lon="0.86803">
        <ele>98</ele>
        <time>2020-05-11T08:30:24Z</time>
      </trkpt>
      <trkpt lat="49.33324" lon="0.86793">
        <ele>98</ele>
        <time>2020-05-11T08:30:29Z</time>
      </trkpt>
      <trkpt lat="49.33314" lon="0.86771">
        <ele>98</ele>
        <time>2020-05-11T08:30:34Z</time>
      </trkpt>
      <trkpt lat="49.33305" lon="0.8676">
        <ele>97</ele>
        <time>2020-05-11T08:30:39Z</time>
      </trkpt>
      <trkpt lat="49.33303" lon="0.86759">
        <ele>97</ele>
        <time>2020-05-11T08:30:40Z</time>
      </trkpt>
      <trkpt lat="49.33299" lon="0.86755">
        <ele>96</ele>
        <time>2020-05-11T08:30:43Z</time>
      </trkpt>
      <trkpt lat="49.33297" lon="0.86753">
        <ele>96</ele>
        <time>2020-05-11T08:30:44Z</time>
      </trkpt>
      <trkpt lat="49.33295" lon="0.86751">
        <ele>96</ele>
        <time>2020-05-11T08:30:45Z</time>
      </trkpt>
      <trkpt lat="49.33294" lon="0.86748">
        <ele>96</ele>
        <time>2020-05-11T08:30:46Z</time>
      </trkpt>
      <trkpt lat="49.33292" lon="0.86745">
        <ele>96</ele>
        <time>2020-05-11T08:30:47Z</time>
      </trkpt>
      <trkpt lat="49.33285" lon="0.86734">
        <ele>95</ele>
        <time>2020-05-11T08:30:50Z</time>
      </trkpt>
      <trkpt lat="49.33282" lon="0.86732">
        <ele>95</ele>
        <time>2020-05-11T08:30:51Z</time>
      </trkpt>
      <trkpt lat="49.33279" lon="0.86729">
        <ele>94</ele>
        <time>2020-05-11T08:30:52Z</time>
      </trkpt>
      <trkpt lat="49.33277" lon="0.86728">
        <ele>94</ele>
        <time>2020-05-11T08:30:53Z</time>
      </trkpt>
      <trkpt lat="49.33275" lon="0.86726">
        <ele>94</ele>
        <time>2020-05-11T08:30:54Z</time>
      </trkpt>
      <trkpt lat="49.33273" lon="0.86724">
        <ele>94</ele>
        <time>2020-05-11T08:30:55Z</time>
      </trkpt>
      <trkpt lat="49.33272" lon="0.86722">
        <ele>94</ele>
        <time>2020-05-11T08:30:56Z</time>
      </trkpt>
      <trkpt lat="49.33271" lon="0.86719">
        <ele>93</ele>
        <time>2020-05-11T08:30:57Z</time>
      </trkpt>
      <trkpt lat="49.33272" lon="0.86717">
        <ele>93</ele>
        <time>2020-05-11T08:30:58Z</time>
      </trkpt>
      <trkpt lat="49.33272" lon="0.86714">
        <ele>93</ele>
        <time>2020-05-11T08:30:59Z</time>
      </trkpt>
      <trkpt lat="49.33273" lon="0.86711">
        <ele>93</ele>
        <time>2020-05-11T08:31:00Z</time>
      </trkpt>
      <trkpt lat="49.33274" lon="0.86708">
        <ele>93</ele>
        <time>2020-05-11T08:31:01Z</time>
      </trkpt>
      <trkpt lat="49.33275" lon="0.86706">
        <ele>93</ele>
        <time>2020-05-11T08:31:02Z</time>
      </trkpt>
      <trkpt lat="49.33276" lon="0.86702">
        <ele>93</ele>
        <time>2020-05-11T08:31:03Z</time>
      </trkpt>
      <trkpt lat="49.33276" lon="0.86699">
        <ele>93</ele>
        <time>2020-05-11T08:31:04Z</time>
      </trkpt>
      <trkpt lat="49.33275" lon="0.86696">
        <ele>93</ele>
        <time>2020-05-11T08:31:05Z</time>
      </trkpt>
      <trkpt lat="49.33274" lon="0.86693">
        <ele>93</ele>
        <time>2020-05-11T08:31:06Z</time>
      </trkpt>
      <trkpt lat="49.33267" lon="0.86669">
        <ele>95</ele>
        <time>2020-05-11T08:31:12Z</time>
      </trkpt>
      <trkpt lat="49.33266" lon="0.86666">
        <ele>95</ele>
        <time>2020-05-11T08:31:13Z</time>
      </trkpt>
      <trkpt lat="49.33256" lon="0.86659">
        <ele>95</ele>
        <time>2020-05-11T08:31:18Z</time>
      </trkpt>
      <trkpt lat="49.3325" lon="0.8665">
        <ele>95</ele>
        <time>2020-05-11T08:31:22Z</time>
      </trkpt>
      <trkpt lat="49.33243" lon="0.86642">
        <ele>96</ele>
        <time>2020-05-11T08:31:25Z</time>
      </trkpt>
      <trkpt lat="49.33229" lon="0.86622">
        <ele>97</ele>
        <time>2020-05-11T08:31:33Z</time>
      </trkpt>
      <trkpt lat="49.33227" lon="0.86618">
        <ele>97</ele>
        <time>2020-05-11T08:31:35Z</time>
      </trkpt>
      <trkpt lat="49.33223" lon="0.86611">
        <ele>97</ele>
        <time>2020-05-11T08:31:38Z</time>
      </trkpt>
      <trkpt lat="49.33219" lon="0.86598">
        <ele>98</ele>
        <time>2020-05-11T08:31:43Z</time>
      </trkpt>
      <trkpt lat="49.33204" lon="0.86575">
        <ele>100</ele>
        <time>2020-05-11T08:31:50Z</time>
      </trkpt>
      <trkpt lat="49.33202" lon="0.86572">
        <ele>101</ele>
        <time>2020-05-11T08:31:51Z</time>
      </trkpt>
      <trkpt lat="49.33177" lon="0.86556">
        <ele>104</ele>
        <time>2020-05-11T08:31:58Z</time>
      </trkpt>
      <trkpt lat="49.33163" lon="0.86548">
        <ele>107</ele>
        <time>2020-05-11T08:32:02Z</time>
      </trkpt>
      <trkpt lat="49.33153" lon="0.86547">
        <ele>109</ele>
        <time>2020-05-11T08:32:05Z</time>
      </trkpt>
      <trkpt lat="49.33139" lon="0.86545">
        <ele>112</ele>
        <time>2020-05-11T08:32:09Z</time>
      </trkpt>
      <trkpt lat="49.33128" lon="0.86543">
        <ele>115</ele>
        <time>2020-05-11T08:32:14Z</time>
      </trkpt>
      <trkpt lat="49.33118" lon="0.86542">
        <ele>119</ele>
        <time>2020-05-11T08:32:21Z</time>
      </trkpt>
      <trkpt lat="49.33113" lon="0.8654">
        <ele>120</ele>
        <time>2020-05-11T08:32:24Z</time>
      </trkpt>
      <trkpt lat="49.33109" lon="0.86538">
        <ele>122</ele>
        <time>2020-05-11T08:32:27Z</time>
      </trkpt>
      <trkpt lat="49.33105" lon="0.86534">
        <ele>123</ele>
        <time>2020-05-11T08:32:30Z</time>
      </trkpt>
      <trkpt lat="49.33101" lon="0.86531">
        <ele>123</ele>
        <time>2020-05-11T08:32:33Z</time>
      </trkpt>
      <trkpt lat="49.33086" lon="0.86517">
        <ele>124</ele>
        <time>2020-05-11T08:32:41Z</time>
      </trkpt>
      <trkpt lat="49.33068" lon="0.86505">
        <ele>124</ele>
        <time>2020-05-11T08:32:48Z</time>
      </trkpt>
      <trkpt lat="49.33045" lon="0.86495">
        <ele>125</ele>
        <time>2020-05-11T08:32:57Z</time>
      </trkpt>
      <trkpt lat="49.33026" lon="0.86489">
        <ele>125</ele>
        <time>2020-05-11T08:33:04Z</time>
      </trkpt>
      <trkpt lat="49.33006" lon="0.86485">
        <ele>125</ele>
        <time>2020-05-11T08:33:10Z</time>
      </trkpt>
      <trkpt lat="49.33001" lon="0.86487">
        <ele>125</ele>
        <time>2020-05-11T08:33:12Z</time>
      </trkpt>
      <trkpt lat="49.32999" lon="0.8649">
        <ele>125</ele>
        <time>2020-05-11T08:33:13Z</time>
      </trkpt>
      <trkpt lat="49.32998" lon="0.86492">
        <ele>125</ele>
        <time>2020-05-11T08:33:14Z</time>
      </trkpt>
      <trkpt lat="49.32992" lon="0.86524">
        <ele>127</ele>
        <time>2020-05-11T08:33:22Z</time>
      </trkpt>
      <trkpt lat="49.32983" lon="0.86568">
        <ele>127</ele>
        <time>2020-05-11T08:33:31Z</time>
      </trkpt>
      <trkpt lat="49.32975" lon="0.86603">
        <ele>127</ele>
        <time>2020-05-11T08:33:38Z</time>
      </trkpt>
      <trkpt lat="49.32966" lon="0.86645">
        <ele>128</ele>
        <time>2020-05-11T08:33:46Z</time>
      </trkpt>
      <trkpt lat="49.3296" lon="0.8668">
        <ele>128</ele>
        <time>2020-05-11T08:33:52Z</time>
      </trkpt>
      <trkpt lat="49.32959" lon="0.86687">
        <ele>128</ele>
        <time>2020-05-11T08:33:53Z</time>
      </trkpt>
      <trkpt lat="49.32947" lon="0.8675">
        <ele>128</ele>
        <time>2020-05-11T08:34:03Z</time>
      </trkpt>
      <trkpt lat="49.32942" lon="0.86786">
        <ele>128</ele>
        <time>2020-05-11T08:34:10Z</time>
      </trkpt>
      <trkpt lat="49.32937" lon="0.86822">
        <ele>128</ele>
        <time>2020-05-11T08:34:18Z</time>
      </trkpt>
      <trkpt lat="49.3293" lon="0.86864">
        <ele>128</ele>
        <time>2020-05-11T08:34:26Z</time>
      </trkpt>
      <trkpt lat="49.32928" lon="0.86879">
        <ele>127</ele>
        <time>2020-05-11T08:34:29Z</time>
      </trkpt>
      <trkpt lat="49.32927" lon="0.86883">
        <ele>127</ele>
        <time>2020-05-11T08:34:30Z</time>
      </trkpt>
      <trkpt lat="49.32926" lon="0.86887">
        <ele>127</ele>
        <time>2020-05-11T08:34:31Z</time>
      </trkpt>
      <trkpt lat="49.32926" lon="0.86892">
        <ele>127</ele>
        <time>2020-05-11T08:34:32Z</time>
      </trkpt>
      <trkpt lat="49.32926" lon="0.86897">
        <ele>127</ele>
        <time>2020-05-11T08:34:33Z</time>
      </trkpt>
      <trkpt lat="49.32925" lon="0.86902">
        <ele>128</ele>
        <time>2020-05-11T08:34:34Z</time>
      </trkpt>
      <trkpt lat="49.32924" lon="0.86907">
        <ele>128</ele>
        <time>2020-05-11T08:34:35Z</time>
      </trkpt>
      <trkpt lat="49.32923" lon="0.86913">
        <ele>128</ele>
        <time>2020-05-11T08:34:36Z</time>
      </trkpt>
      <trkpt lat="49.32923" lon="0.86919">
        <ele>128</ele>
        <time>2020-05-11T08:34:37Z</time>
      </trkpt>
      <trkpt lat="49.32921" lon="0.86932">
        <ele>127</ele>
        <time>2020-05-11T08:34:39Z</time>
      </trkpt>
      <trkpt lat="49.32918" lon="0.86957">
        <ele>128</ele>
        <time>2020-05-11T08:34:43Z</time>
      </trkpt>
      <trkpt lat="49.32909" lon="0.87005">
        <ele>128</ele>
        <time>2020-05-11T08:34:51Z</time>
      </trkpt>
      <trkpt lat="49.32903" lon="0.87032">
        <ele>126</ele>
        <time>2020-05-11T08:34:55Z</time>
      </trkpt>
      <trkpt lat="49.32896" lon="0.87082">
        <ele>125</ele>
        <time>2020-05-11T08:35:03Z</time>
      </trkpt>
      <trkpt lat="49.32893" lon="0.87107">
        <ele>125</ele>
        <time>2020-05-11T08:35:09Z</time>
      </trkpt>
      <trkpt lat="49.32892" lon="0.87112">
        <ele>125</ele>
        <time>2020-05-11T08:35:11Z</time>
      </trkpt>
      <trkpt lat="49.32892" lon="0.87115">
        <ele>126</ele>
        <time>2020-05-11T08:35:12Z</time>
      </trkpt>
      <trkpt lat="49.32886" lon="0.87136">
        <ele>128</ele>
        <time>2020-05-11T08:35:20Z</time>
      </trkpt>
      <trkpt lat="49.32885" lon="0.87148">
        <ele>128</ele>
        <time>2020-05-11T08:35:23Z</time>
      </trkpt>
      <trkpt lat="49.32884" lon="0.87153">
        <ele>128</ele>
        <time>2020-05-11T08:35:24Z</time>
      </trkpt>
      <trkpt lat="49.32881" lon="0.87173">
        <ele>129</ele>
        <time>2020-05-11T08:35:29Z</time>
      </trkpt>
      <trkpt lat="49.32874" lon="0.87209">
        <ele>130</ele>
        <time>2020-05-11T08:35:36Z</time>
      </trkpt>
      <trkpt lat="49.32869" lon="0.87237">
        <ele>129</ele>
        <time>2020-05-11T08:35:42Z</time>
      </trkpt>
      <trkpt lat="49.32867" lon="0.8724">
        <ele>129</ele>
        <time>2020-05-11T08:35:43Z</time>
      </trkpt>
      <trkpt lat="49.32865" lon="0.87241">
        <ele>129</ele>
        <time>2020-05-11T08:35:44Z</time>
      </trkpt>
      <trkpt lat="49.32863" lon="0.8724">
        <ele>129</ele>
        <time>2020-05-11T08:35:45Z</time>
      </trkpt>
      <trkpt lat="49.32861" lon="0.87239">
        <ele>129</ele>
        <time>2020-05-11T08:35:46Z</time>
      </trkpt>
      <trkpt lat="49.32847" lon="0.87227">
        <ele>130</ele>
        <time>2020-05-11T08:35:52Z</time>
      </trkpt>
      <trkpt lat="49.32834" lon="0.8721">
        <ele>130</ele>
        <time>2020-05-11T08:35:57Z</time>
      </trkpt>
      <trkpt lat="49.32805" lon="0.87173">
        <ele>130</ele>
        <time>2020-05-11T08:36:05Z</time>
      </trkpt>
      <trkpt lat="49.32771" lon="0.87129">
        <ele>130</ele>
        <time>2020-05-11T08:36:13Z</time>
      </trkpt>
      <trkpt lat="49.32754" lon="0.87107">
        <ele>128</ele>
        <time>2020-05-11T08:36:17Z</time>
      </trkpt>
      <trkpt lat="49.32718" lon="0.87061">
        <ele>128</ele>
        <time>2020-05-11T08:36:25Z</time>
      </trkpt>
      <trkpt lat="49.32685" lon="0.8702">
        <ele>123</ele>
        <time>2020-05-11T08:36:32Z</time>
      </trkpt>
      <trkpt lat="49.32681" lon="0.87015">
        <ele>131</ele>
        <time>2020-05-11T08:36:33Z</time>
      </trkpt>
      <trkpt lat="49.32676" lon="0.87009">
        <ele>129</ele>
        <time>2020-05-11T08:36:34Z</time>
      </trkpt>
      <trkpt lat="49.32636" lon="0.86957">
        <ele>128</ele>
        <time>2020-05-11T08:36:43Z</time>
      </trkpt>
      <trkpt lat="49.326" lon="0.86909">
        <ele>128</ele>
        <time>2020-05-11T08:36:51Z</time>
      </trkpt>
      <trkpt lat="49.32579" lon="0.86878">
        <ele>128</ele>
        <time>2020-05-11T08:36:56Z</time>
      </trkpt>
      <trkpt lat="49.32577" lon="0.86873">
        <ele>127</ele>
        <time>2020-05-11T08:36:57Z</time>
      </trkpt>
      <trkpt lat="49.32574" lon="0.86869">
        <ele>127</ele>
        <time>2020-05-11T08:36:58Z</time>
      </trkpt>
      <trkpt lat="49.3257" lon="0.86866">
        <ele>127</ele>
        <time>2020-05-11T08:36:59Z</time>
      </trkpt>
      <trkpt lat="49.32567" lon="0.86864">
        <ele>127</ele>
        <time>2020-05-11T08:37:00Z</time>
      </trkpt>
      <trkpt lat="49.32564" lon="0.86862">
        <ele>128</ele>
        <time>2020-05-11T08:37:01Z</time>
      </trkpt>
      <trkpt lat="49.32562" lon="0.86859">
        <ele>128</ele>
        <time>2020-05-11T08:37:02Z</time>
      </trkpt>
      <trkpt lat="49.32559" lon="0.86855">
        <ele>128</ele>
        <time>2020-05-11T08:37:03Z</time>
      </trkpt>
      <trkpt lat="49.3255" lon="0.86835">
        <ele>127</ele>
        <time>2020-05-11T08:37:09Z</time>
      </trkpt>
      <trkpt lat="49.32548" lon="0.86833">
        <ele>127</ele>
        <time>2020-05-11T08:37:10Z</time>
      </trkpt>
      <trkpt lat="49.32545" lon="0.86831">
        <ele>127</ele>
        <time>2020-05-11T08:37:11Z</time>
      </trkpt>
      <trkpt lat="49.32543" lon="0.86828">
        <ele>126</ele>
        <time>2020-05-11T08:37:12Z</time>
      </trkpt>
      <trkpt lat="49.32543" lon="0.86829">
        <ele>122.7</ele>
      </trkpt>
      <trkpt lat="49.32548" lon="0.86834">
        <ele>122.9</ele>
      </trkpt>
      <trkpt lat="49.32542" lon="0.86881">
        <ele>122.8</ele>
      </trkpt>
      <trkpt lat="49.32533" lon="0.86938">
        <ele>122.7</ele>
      </trkpt>
      <trkpt lat="49.32519" lon="0.87035">
        <ele>122.7</ele>
      </trkpt>
      <trkpt lat="49.32508" lon="0.87113">
        <ele>124.4</ele>
      </trkpt>
      <trkpt lat="49.32495" lon="0.87199">
        <ele>127.6</ele>
      </trkpt>
      <trkpt lat="49.32486" lon="0.87262">
        <ele>128.6</ele>
      </trkpt>
      <trkpt lat="49.32473" lon="0.87349">
        <ele>129.9</ele>
      </trkpt>
      <trkpt lat="49.32468" lon="0.87382">
        <ele>129.8</ele>
      </trkpt>
      <trkpt lat="49.32453" lon="0.8748">
        <ele>132.6</ele>
      </trkpt>
      <trkpt lat="49.32453" lon="0.87481">
        <ele>132.7</ele>
      </trkpt>
      <trkpt lat="49.32443" lon="0.87543">
        <ele>134.4</ele>
      </trkpt>
      <trkpt lat="49.32431" lon="0.87623">
        <ele>134.5</ele>
      </trkpt>
      <trkpt lat="49.32428" lon="0.8764">
        <ele>134.1</ele>
      </trkpt>
      <trkpt lat="49.32417" lon="0.87715">
        <ele>131.9</ele>
      </trkpt>
      <trkpt lat="49.32403" lon="0.87808">
        <ele>130.3</ele>
      </trkpt>
      <trkpt lat="49.32414" lon="0.87816">
        <ele>130.2</ele>
      </trkpt>
      <trkpt lat="49.32426" lon="0.87823">
        <ele>130.6</ele>
      </trkpt>
      <trkpt lat="49.32436" lon="0.87827">
        <ele>131</ele>
      </trkpt>
      <trkpt lat="49.32393" lon="0.87807">
        <ele>118</ele>
        <time>2020-05-11T07:15:59Z</time>
      </trkpt>
      <trkpt lat="49.32393" lon="0.87807">
        <ele>118</ele>
        <time>2020-05-11T07:15:59Z</time>
      </trkpt>
      <trkpt lat="49.32395" lon="0.87809">
        <ele>118</ele>
        <time>2020-05-11T07:16:00Z</time>
      </trkpt>
      <trkpt lat="49.32402" lon="0.87815">
        <ele>118</ele>
        <time>2020-05-11T07:16:05Z</time>
      </trkpt>
      <trkpt lat="49.3242" lon="0.87826">
        <ele>118</ele>
        <time>2020-05-11T07:16:10Z</time>
      </trkpt>
      <trkpt lat="49.32443" lon="0.87833">
        <ele>119</ele>
        <time>2020-05-11T07:16:16Z</time>
      </trkpt>
      <trkpt lat="49.32468" lon="0.87841">
        <ele>120</ele>
        <time>2020-05-11T07:16:22Z</time>
      </trkpt>
      <trkpt lat="49.32495" lon="0.87851">
        <ele>121</ele>
        <time>2020-05-11T07:16:28Z</time>
      </trkpt>
      <trkpt lat="49.32522" lon="0.87863">
        <ele>121</ele>
        <time>2020-05-11T07:16:34Z</time>
      </trkpt>
      <trkpt lat="49.32526" lon="0.87865">
        <ele>122</ele>
        <time>2020-05-11T07:16:35Z</time>
      </trkpt>
      <trkpt lat="49.32557" lon="0.87875">
        <ele>123</ele>
        <time>2020-05-11T07:16:42Z</time>
      </trkpt>
      <trkpt lat="49.32562" lon="0.87877">
        <ele>123</ele>
        <time>2020-05-11T07:16:43Z</time>
      </trkpt>
      <trkpt lat="49.32567" lon="0.8788">
        <ele>123</ele>
        <time>2020-05-11T07:16:44Z</time>
      </trkpt>
      <trkpt lat="49.32571" lon="0.87882">
        <ele>123</ele>
        <time>2020-05-11T07:16:45Z</time>
      </trkpt>
      <trkpt lat="49.32576" lon="0.87884">
        <ele>123</ele>
        <time>2020-05-11T07:16:46Z</time>
      </trkpt>
      <trkpt lat="49.32581" lon="0.87886">
        <ele>123</ele>
        <time>2020-05-11T07:16:47Z</time>
      </trkpt>
      <trkpt lat="49.32585" lon="0.87888">
        <ele>123</ele>
        <time>2020-05-11T07:16:48Z</time>
      </trkpt>
      <trkpt lat="49.32609" lon="0.87893">
        <ele>124</ele>
        <time>2020-05-11T07:16:53Z</time>
      </trkpt>
      <trkpt lat="49.32628" lon="0.87896">
        <ele>124</ele>
        <time>2020-05-11T07:16:57Z</time>
      </trkpt>
      <trkpt lat="49.3265" lon="0.87901">
        <ele>125</ele>
        <time>2020-05-11T07:17:02Z</time>
      </trkpt>
      <trkpt lat="49.32654" lon="0.87903">
        <ele>126</ele>
        <time>2020-05-11T07:17:03Z</time>
      </trkpt>
      <trkpt lat="49.32658" lon="0.87904">
        <ele>126</ele>
        <time>2020-05-11T07:17:04Z</time>
      </trkpt>
      <trkpt lat="49.32669" lon="0.87908">
        <ele>126</ele>
        <time>2020-05-11T07:17:06Z</time>
      </trkpt>
      <trkpt lat="49.32683" lon="0.87913">
        <ele>126</ele>
        <time>2020-05-11T07:17:09Z</time>
      </trkpt>
      <trkpt lat="49.32688" lon="0.87915">
        <ele>126</ele>
        <time>2020-05-11T07:17:10Z</time>
      </trkpt>
      <trkpt lat="49.32693" lon="0.87916">
        <ele>126</ele>
        <time>2020-05-11T07:17:11Z</time>
      </trkpt>
      <trkpt lat="49.32698" lon="0.87917">
        <ele>126</ele>
        <time>2020-05-11T07:17:12Z</time>
      </trkpt>
      <trkpt lat="49.32703" lon="0.87919">
        <ele>126</ele>
        <time>2020-05-11T07:17:13Z</time>
      </trkpt>
      <trkpt lat="49.32707" lon="0.8792">
        <ele>126</ele>
        <time>2020-05-11T07:17:14Z</time>
      </trkpt>
      <trkpt lat="49.32712" lon="0.87921">
        <ele>126</ele>
        <time>2020-05-11T07:17:15Z</time>
      </trkpt>
      <trkpt lat="49.32732" lon="0.87933">
        <ele>127</ele>
        <time>2020-05-11T07:17:20Z</time>
      </trkpt>
      <trkpt lat="49.32748" lon="0.87939">
        <ele>126</ele>
        <time>2020-05-11T07:17:25Z</time>
      </trkpt>
      <trkpt lat="49.32767" lon="0.87949">
        <ele>125</ele>
        <time>2020-05-11T07:17:31Z</time>
      </trkpt>
      <trkpt lat="49.32768" lon="0.87951">
        <ele>125</ele>
        <time>2020-05-11T07:17:32Z</time>
      </trkpt>
      <trkpt lat="49.32769" lon="0.87953">
        <ele>125</ele>
        <time>2020-05-11T07:17:33Z</time>
      </trkpt>
      <trkpt lat="49.32769" lon="0.87954">
        <ele>125</ele>
        <time>2020-05-11T07:17:34Z</time>
      </trkpt>
      <trkpt lat="49.32769" lon="0.87956">
        <ele>125</ele>
        <time>2020-05-11T07:17:35Z</time>
      </trkpt>
      <trkpt lat="49.32769" lon="0.87958">
        <ele>125</ele>
        <time>2020-05-11T07:17:36Z</time>
      </trkpt>
      <trkpt lat="49.3277" lon="0.8796">
        <ele>125</ele>
        <time>2020-05-11T07:17:37Z</time>
      </trkpt>
      <trkpt lat="49.3277" lon="0.87964">
        <ele>126</ele>
        <time>2020-05-11T07:17:38Z</time>
      </trkpt>
      <trkpt lat="49.3277" lon="0.87966">
        <ele>126</ele>
        <time>2020-05-11T07:17:39Z</time>
      </trkpt>
      <trkpt lat="49.32769" lon="0.87995">
        <ele>127</ele>
        <time>2020-05-11T07:17:46Z</time>
      </trkpt>
      <trkpt lat="49.32765" lon="0.8803">
        <ele>126</ele>
        <time>2020-05-11T07:17:53Z</time>
      </trkpt>
      <trkpt lat="49.32764" lon="0.88058">
        <ele>126</ele>
        <time>2020-05-11T07:17:58Z</time>
      </trkpt>
      <trkpt lat="49.32759" lon="0.8809">
        <ele>126</ele>
        <time>2020-05-11T07:18:04Z</time>
      </trkpt>
      <trkpt lat="49.32757" lon="0.88115">
        <ele>126</ele>
        <time>2020-05-11T07:18:08Z</time>
      </trkpt>
      <trkpt lat="49.32755" lon="0.8812">
        <ele>126</ele>
        <time>2020-05-11T07:18:09Z</time>
      </trkpt>
      <trkpt lat="49.32752" lon="0.88149">
        <ele>125</ele>
        <time>2020-05-11T07:18:14Z</time>
      </trkpt>
      <trkpt lat="49.32747" lon="0.88176">
        <ele>125</ele>
        <time>2020-05-11T07:18:19Z</time>
      </trkpt>
      <trkpt lat="49.32743" lon="0.88216">
        <ele>125</ele>
        <time>2020-05-11T07:18:26Z</time>
      </trkpt>
      <trkpt lat="49.32745" lon="0.88224">
        <ele>127</ele>
        <time>2020-05-11T07:18:28Z</time>
      </trkpt>
      <trkpt lat="49.32748" lon="0.88227">
        <ele>127</ele>
        <time>2020-05-11T07:18:29Z</time>
      </trkpt>
      <trkpt lat="49.32751" lon="0.88228">
        <ele>127</ele>
        <time>2020-05-11T07:18:30Z</time>
      </trkpt>
      <trkpt lat="49.32755" lon="0.88229">
        <ele>128</ele>
        <time>2020-05-11T07:18:31Z</time>
      </trkpt>
      <trkpt lat="49.32759" lon="0.8823">
        <ele>128</ele>
        <time>2020-05-11T07:18:32Z</time>
      </trkpt>
      <trkpt lat="49.32762" lon="0.88231">
        <ele>128</ele>
        <time>2020-05-11T07:18:33Z</time>
      </trkpt>
      <trkpt lat="49.3277" lon="0.88233">
        <ele>128</ele>
        <time>2020-05-11T07:18:35Z</time>
      </trkpt>
      <trkpt lat="49.32778" lon="0.88237">
        <ele>128</ele>
        <time>2020-05-11T07:18:37Z</time>
      </trkpt>
      <trkpt lat="49.32803" lon="0.88245">
        <ele>128</ele>
        <time>2020-05-11T07:18:43Z</time>
      </trkpt>
      <trkpt lat="49.32824" lon="0.88253">
        <ele>128</ele>
        <time>2020-05-11T07:18:48Z</time>
      </trkpt>
      <trkpt lat="49.32828" lon="0.88255">
        <ele>128</ele>
        <time>2020-05-11T07:18:49Z</time>
      </trkpt>
      <trkpt lat="49.3284" lon="0.88258">
        <ele>129</ele>
        <time>2020-05-11T07:18:52Z</time>
      </trkpt>
      <trkpt lat="49.32844" lon="0.8826">
        <ele>129</ele>
        <time>2020-05-11T07:18:53Z</time>
      </trkpt>
      <trkpt lat="49.32848" lon="0.88262">
        <ele>129</ele>
        <time>2020-05-11T07:18:54Z</time>
      </trkpt>
      <trkpt lat="49.32885" lon="0.88275">
        <ele>130</ele>
        <time>2020-05-11T07:19:03Z</time>
      </trkpt>
      <trkpt lat="49.32902" lon="0.88282">
        <ele>131</ele>
        <time>2020-05-11T07:19:07Z</time>
      </trkpt>
      <trkpt lat="49.32906" lon="0.88283">
        <ele>131</ele>
        <time>2020-05-11T07:19:08Z</time>
      </trkpt>
      <trkpt lat="49.3291" lon="0.88285">
        <ele>131</ele>
        <time>2020-05-11T07:19:09Z</time>
      </trkpt>
      <trkpt lat="49.32914" lon="0.88287">
        <ele>131</ele>
        <time>2020-05-11T07:19:10Z</time>
      </trkpt>
      <trkpt lat="49.32918" lon="0.88288">
        <ele>131</ele>
        <time>2020-05-11T07:19:11Z</time>
      </trkpt>
      <trkpt lat="49.3294" lon="0.88294">
        <ele>131</ele>
        <time>2020-05-11T07:19:16Z</time>
      </trkpt>
      <trkpt lat="49.32966" lon="0.88304">
        <ele>129</ele>
        <time>2020-05-11T07:19:22Z</time>
      </trkpt>
      <trkpt lat="49.32989" lon="0.8831">
        <ele>130</ele>
        <time>2020-05-11T07:19:28Z</time>
      </trkpt>
      <trkpt lat="49.33024" lon="0.88318">
        <ele>131</ele>
        <time>2020-05-11T07:19:37Z</time>
      </trkpt>
      <trkpt lat="49.33041" lon="0.88324">
        <ele>131</ele>
        <time>2020-05-11T07:19:43Z</time>
      </trkpt>
      <trkpt lat="49.33045" lon="0.88329">
        <ele>131</ele>
        <time>2020-05-11T07:19:46Z</time>
      </trkpt>
      <trkpt lat="49.33048" lon="0.8833">
        <ele>131</ele>
        <time>2020-05-11T07:19:47Z</time>
      </trkpt>
      <trkpt lat="49.33057" lon="0.88332">
        <ele>129</ele>
        <time>2020-05-11T07:19:52Z</time>
      </trkpt>
      <trkpt lat="49.33059" lon="0.88333">
        <ele>129</ele>
        <time>2020-05-11T07:19:58Z</time>
      </trkpt>
      <trkpt lat="49.3306" lon="0.88334">
        <ele>129</ele>
        <time>2020-05-11T07:19:59Z</time>
      </trkpt>
      <trkpt lat="49.33063" lon="0.8834">
        <ele>130</ele>
        <time>2020-05-11T07:20:03Z</time>
      </trkpt>
      <trkpt lat="49.33064" lon="0.8834">
        <ele>130</ele>
        <time>2020-05-11T07:20:04Z</time>
      </trkpt>
      <trkpt lat="49.33066" lon="0.8834">
        <ele>131</ele>
        <time>2020-05-11T07:20:05Z</time>
      </trkpt>
      <trkpt lat="49.33068" lon="0.8834">
        <ele>131</ele>
        <time>2020-05-11T07:20:06Z</time>
      </trkpt>
      <trkpt lat="49.33069" lon="0.88339">
        <ele>131</ele>
        <time>2020-05-11T07:20:07Z</time>
      </trkpt>
      <trkpt lat="49.3307" lon="0.88338">
        <ele>131</ele>
        <time>2020-05-11T07:20:08Z</time>
      </trkpt>
      <trkpt lat="49.33071" lon="0.88337">
        <ele>131</ele>
        <time>2020-05-11T07:20:09Z</time>
      </trkpt>
      <trkpt lat="49.33072" lon="0.88337">
        <ele>131</ele>
        <time>2020-05-11T07:20:10Z</time>
      </trkpt>
      <trkpt lat="49.33082" lon="0.88338">
        <ele>131</ele>
        <time>2020-05-11T07:20:15Z</time>
      </trkpt>
      <trkpt lat="49.33096" lon="0.88342">
        <ele>131</ele>
        <time>2020-05-11T07:20:20Z</time>
      </trkpt>
      <trkpt lat="49.33098" lon="0.88342">
        <ele>131</ele>
        <time>2020-05-11T07:20:21Z</time>
      </trkpt>
      <trkpt lat="49.33106" lon="0.88349">
        <ele>131</ele>
        <time>2020-05-11T07:20:27Z</time>
      </trkpt>
      <trkpt lat="49.3312" lon="0.88357">
        <ele>131</ele>
        <time>2020-05-11T07:20:34Z</time>
      </trkpt>
      <trkpt lat="49.33122" lon="0.88357">
        <ele>131</ele>
        <time>2020-05-11T07:20:35Z</time>
      </trkpt>
      <trkpt lat="49.33124" lon="0.88356">
        <ele>131</ele>
        <time>2020-05-11T07:20:36Z</time>
      </trkpt>
      <trkpt lat="49.33125" lon="0.88354">
        <ele>131</ele>
        <time>2020-05-11T07:20:37Z</time>
      </trkpt>
      <trkpt lat="49.33126" lon="0.88352">
        <ele>131</ele>
        <time>2020-05-11T07:20:38Z</time>
      </trkpt>
      <trkpt lat="49.33127" lon="0.88348">
        <ele>131</ele>
        <time>2020-05-11T07:20:39Z</time>
      </trkpt>
      <trkpt lat="49.33128" lon="0.88345">
        <ele>131</ele>
        <time>2020-05-11T07:20:40Z</time>
      </trkpt>
      <trkpt lat="49.33129" lon="0.88341">
        <ele>132</ele>
        <time>2020-05-11T07:20:41Z</time>
      </trkpt>
      <trkpt lat="49.33134" lon="0.88313">
        <ele>132</ele>
        <time>2020-05-11T07:20:47Z</time>
      </trkpt>
      <trkpt lat="49.33143" lon="0.8826">
        <ele>131</ele>
        <time>2020-05-11T07:20:54Z</time>
      </trkpt>
      <trkpt lat="49.33154" lon="0.88196">
        <ele>130</ele>
        <time>2020-05-11T07:21:01Z</time>
      </trkpt>
      <trkpt lat="49.33167" lon="0.88112">
        <ele>129</ele>
        <time>2020-05-11T07:21:10Z</time>
      </trkpt>
      <trkpt lat="49.3317" lon="0.88093">
        <ele>129</ele>
        <time>2020-05-11T07:21:12Z</time>
      </trkpt>
      <trkpt lat="49.33183" lon="0.88009">
        <ele>129</ele>
        <time>2020-05-11T07:21:21Z</time>
      </trkpt>
      <trkpt lat="49.33193" lon="0.87944">
        <ele>128</ele>
        <time>2020-05-11T07:21:28Z</time>
      </trkpt>
      <trkpt lat="49.33206" lon="0.87861">
        <ele>128</ele>
        <time>2020-05-11T07:21:37Z</time>
      </trkpt>
      <trkpt lat="49.33218" lon="0.87787">
        <ele>127</ele>
        <time>2020-05-11T07:21:45Z</time>
      </trkpt>
      <trkpt lat="49.33227" lon="0.87736">
        <ele>126</ele>
        <time>2020-05-11T07:21:51Z</time>
      </trkpt>
      <trkpt lat="49.3323" lon="0.87731">
        <ele>126</ele>
        <time>2020-05-11T07:21:52Z</time>
      </trkpt>
      <trkpt lat="49.33234" lon="0.87729">
        <ele>126</ele>
        <time>2020-05-11T07:21:53Z</time>
      </trkpt>
      <trkpt lat="49.33237" lon="0.87729">
        <ele>125</ele>
        <time>2020-05-11T07:21:54Z</time>
      </trkpt>
      <trkpt lat="49.3324" lon="0.87731">
        <ele>126</ele>
        <time>2020-05-11T07:21:55Z</time>
      </trkpt>
      <trkpt lat="49.33243" lon="0.87734">
        <ele>125</ele>
        <time>2020-05-11T07:21:56Z</time>
      </trkpt>
      <trkpt lat="49.33246" lon="0.87738">
        <ele>125</ele>
        <time>2020-05-11T07:21:57Z</time>
      </trkpt>
      <trkpt lat="49.33257" lon="0.8775">
        <ele>125</ele>
        <time>2020-05-11T07:22:02Z</time>
      </trkpt>
      <trkpt lat="49.33275" lon="0.8777">
        <ele>125</ele>
        <time>2020-05-11T07:22:07Z</time>
      </trkpt>
      <trkpt lat="49.33287" lon="0.87787">
        <ele>125</ele>
        <time>2020-05-11T07:22:10Z</time>
      </trkpt>
      <trkpt lat="49.33319" lon="0.87828">
        <ele>126</ele>
        <time>2020-05-11T07:22:17Z</time>
      </trkpt>
      <trkpt lat="49.3335" lon="0.87867">
        <ele>127</ele>
        <time>2020-05-11T07:22:24Z</time>
      </trkpt>
      <trkpt lat="49.33355" lon="0.87873">
        <ele>127</ele>
        <time>2020-05-11T07:22:25Z</time>
      </trkpt>
      <trkpt lat="49.33359" lon="0.8788">
        <ele>127</ele>
        <time>2020-05-11T07:22:26Z</time>
      </trkpt>
      <trkpt lat="49.33378" lon="0.87905">
        <ele>127</ele>
        <time>2020-05-11T07:22:30Z</time>
      </trkpt>
      <trkpt lat="49.3342" lon="0.87959">
        <ele>127</ele>
        <time>2020-05-11T07:22:39Z</time>
      </trkpt>
      <trkpt lat="49.33454" lon="0.88003">
        <ele>127</ele>
        <time>2020-05-11T07:22:47Z</time>
      </trkpt>
      <trkpt lat="49.33462" lon="0.88014">
        <ele>127</ele>
        <time>2020-05-11T07:22:49Z</time>
      </trkpt>
      <trkpt lat="49.33466" lon="0.88021">
        <ele>127</ele>
        <time>2020-05-11T07:22:50Z</time>
      </trkpt>
      <trkpt lat="49.3349" lon="0.88052">
        <ele>126</ele>
        <time>2020-05-11T07:22:56Z</time>
      </trkpt>
      <trkpt lat="49.3353" lon="0.88103">
        <ele>125</ele>
        <time>2020-05-11T07:23:06Z</time>
      </trkpt>
      <trkpt lat="49.33534" lon="0.88109">
        <ele>125</ele>
        <time>2020-05-11T07:23:07Z</time>
      </trkpt>
      <trkpt lat="49.33572" lon="0.88159">
        <ele>124</ele>
        <time>2020-05-11T07:23:15Z</time>
      </trkpt>
      <trkpt lat="49.33574" lon="0.88164">
        <ele>124</ele>
        <time>2020-05-11T07:23:16Z</time>
      </trkpt>
      <trkpt lat="49.33576" lon="0.88172">
        <ele>124</ele>
        <time>2020-05-11T07:23:17Z</time>
      </trkpt>
      <trkpt lat="49.33575" lon="0.88182">
        <ele>122</ele>
        <time>2020-05-11T07:23:18Z</time>
      </trkpt>
      <trkpt lat="49.33573" lon="0.88188">
        <ele>122</ele>
        <time>2020-05-11T07:23:19Z</time>
      </trkpt>
      <trkpt lat="49.3357" lon="0.88196">
        <ele>122</ele>
        <time>2020-05-11T07:23:20Z</time>
      </trkpt>
      <trkpt lat="49.33567" lon="0.88204">
        <ele>122</ele>
        <time>2020-05-11T07:23:21Z</time>
      </trkpt>
      <trkpt lat="49.33565" lon="0.88212">
        <ele>122</ele>
        <time>2020-05-11T07:23:22Z</time>
      </trkpt>
      <trkpt lat="49.33563" lon="0.88221">
        <ele>122</ele>
        <time>2020-05-11T07:23:23Z</time>
      </trkpt>
      <trkpt lat="49.3356" lon="0.88258">
        <ele>121</ele>
        <time>2020-05-11T07:23:27Z</time>
      </trkpt>
      <trkpt lat="49.33559" lon="0.88267">
        <ele>121</ele>
        <time>2020-05-11T07:23:28Z</time>
      </trkpt>
      <trkpt lat="49.33558" lon="0.88276">
        <ele>120</ele>
        <time>2020-05-11T07:23:29Z</time>
      </trkpt>
      <trkpt lat="49.33557" lon="0.88284">
        <ele>120</ele>
        <time>2020-05-11T07:23:30Z</time>
      </trkpt>
      <trkpt lat="49.33557" lon="0.88293">
        <ele>120</ele>
        <time>2020-05-11T07:23:31Z</time>
      </trkpt>
      <trkpt lat="49.33556" lon="0.883">
        <ele>119</ele>
        <time>2020-05-11T07:23:32Z</time>
      </trkpt>
      <trkpt lat="49.33555" lon="0.88308">
        <ele>119</ele>
        <time>2020-05-11T07:23:33Z</time>
      </trkpt>
      <trkpt lat="49.33554" lon="0.88316">
        <ele>118</ele>
        <time>2020-05-11T07:23:34Z</time>
      </trkpt>
      <trkpt lat="49.33554" lon="0.88324">
        <ele>118</ele>
        <time>2020-05-11T07:23:35Z</time>
      </trkpt>
      <trkpt lat="49.33553" lon="0.88332">
        <ele>118</ele>
        <time>2020-05-11T07:23:36Z</time>
      </trkpt>
      <trkpt lat="49.33548" lon="0.88371">
        <ele>115</ele>
        <time>2020-05-11T07:23:40Z</time>
      </trkpt>
      <trkpt lat="49.33547" lon="0.88392">
        <ele>114</ele>
        <time>2020-05-11T07:23:42Z</time>
      </trkpt>
      <trkpt lat="49.33541" lon="0.88449">
        <ele>110</ele>
        <time>2020-05-11T07:23:48Z</time>
      </trkpt>
      <trkpt lat="49.3354" lon="0.8846">
        <ele>109</ele>
        <time>2020-05-11T07:23:49Z</time>
      </trkpt>
      <trkpt lat="49.33539" lon="0.88467">
        <ele>108</ele>
        <time>2020-05-11T07:23:50Z</time>
      </trkpt>
      <trkpt lat="49.33538" lon="0.88476">
        <ele>107</ele>
        <time>2020-05-11T07:23:51Z</time>
      </trkpt>
      <trkpt lat="49.33536" lon="0.88483">
        <ele>106</ele>
        <time>2020-05-11T07:23:52Z</time>
      </trkpt>
      <trkpt lat="49.33535" lon="0.88489">
        <ele>105</ele>
        <time>2020-05-11T07:23:53Z</time>
      </trkpt>
      <trkpt lat="49.33534" lon="0.88493">
        <ele>104</ele>
        <time>2020-05-11T07:23:54Z</time>
      </trkpt>
      <trkpt lat="49.33533" lon="0.88496">
        <ele>104</ele>
        <time>2020-05-11T07:23:55Z</time>
      </trkpt>
      <trkpt lat="49.33528" lon="0.88523">
        <ele>103</ele>
        <time>2020-05-11T07:24:02Z</time>
      </trkpt>
      <trkpt lat="49.33528" lon="0.88527">
        <ele>103</ele>
        <time>2020-05-11T07:24:03Z</time>
      </trkpt>
      <trkpt lat="49.33527" lon="0.88533">
        <ele>104</ele>
        <time>2020-05-11T07:24:04Z</time>
      </trkpt>
      <trkpt lat="49.33527" lon="0.88538">
        <ele>105</ele>
        <time>2020-05-11T07:24:05Z</time>
      </trkpt>
      <trkpt lat="49.33526" lon="0.88544">
        <ele>105</ele>
        <time>2020-05-11T07:24:06Z</time>
      </trkpt>
      <trkpt lat="49.33518" lon="0.88598">
        <ele>103</ele>
        <time>2020-05-11T07:24:13Z</time>
      </trkpt>
      <trkpt lat="49.33517" lon="0.88606">
        <ele>102</ele>
        <time>2020-05-11T07:24:14Z</time>
      </trkpt>
      <trkpt lat="49.33508" lon="0.88654">
        <ele>98</ele>
        <time>2020-05-11T07:24:20Z</time>
      </trkpt>
      <trkpt lat="49.33507" lon="0.88661">
        <ele>98</ele>
        <time>2020-05-11T07:24:21Z</time>
      </trkpt>
      <trkpt lat="49.33501" lon="0.88698">
        <ele>97</ele>
        <time>2020-05-11T07:24:26Z</time>
      </trkpt>
      <trkpt lat="49.33499" lon="0.88715">
        <ele>97</ele>
        <time>2020-05-11T07:24:29Z</time>
      </trkpt>
      <trkpt lat="49.33496" lon="0.88724">
        <ele>97</ele>
        <time>2020-05-11T07:24:32Z</time>
      </trkpt>
      <trkpt lat="49.33495" lon="0.88727">
        <ele>97</ele>
        <time>2020-05-11T07:24:33Z</time>
      </trkpt>
      <trkpt lat="49.33495" lon="0.88731">
        <ele>97</ele>
        <time>2020-05-11T07:24:34Z</time>
      </trkpt>
      <trkpt lat="49.33495" lon="0.88735">
        <ele>97</ele>
        <time>2020-05-11T07:24:35Z</time>
      </trkpt>
      <trkpt lat="49.33495" lon="0.88738">
        <ele>97</ele>
        <time>2020-05-11T07:24:36Z</time>
      </trkpt>
      <trkpt lat="49.33495" lon="0.88742">
        <ele>98</ele>
        <time>2020-05-11T07:24:37Z</time>
      </trkpt>
      <trkpt lat="49.33494" lon="0.88746">
        <ele>98</ele>
        <time>2020-05-11T07:24:38Z</time>
      </trkpt>
      <trkpt lat="49.33488" lon="0.8878">
        <ele>101</ele>
        <time>2020-05-11T07:24:46Z</time>
      </trkpt>
      <trkpt lat="49.33488" lon="0.88784">
        <ele>101</ele>
        <time>2020-05-11T07:24:47Z</time>
      </trkpt>
      <trkpt lat="49.33483" lon="0.88802">
        <ele>101</ele>
        <time>2020-05-11T07:24:53Z</time>
      </trkpt>
      <trkpt lat="49.33481" lon="0.88805">
        <ele>101</ele>
        <time>2020-05-11T07:24:54Z</time>
      </trkpt>
      <trkpt lat="49.33479" lon="0.88809">
        <ele>101</ele>
        <time>2020-05-11T07:24:56Z</time>
      </trkpt>
      <trkpt lat="49.33473" lon="0.88812">
        <ele>101</ele>
        <time>2020-05-11T07:25:02Z</time>
      </trkpt>
      <trkpt lat="49.33464" lon="0.88813">
        <ele>101</ele>
        <time>2020-05-11T07:25:11Z</time>
      </trkpt>
      <trkpt lat="49.33453" lon="0.88812">
        <ele>101</ele>
        <time>2020-05-11T07:25:16Z</time>
      </trkpt>
      <trkpt lat="49.33437" lon="0.88807">
        <ele>101</ele>
        <time>2020-05-11T07:25:22Z</time>
      </trkpt>
      <trkpt lat="49.33424" lon="0.88805">
        <ele>101</ele>
        <time>2020-05-11T07:25:26Z</time>
      </trkpt>
      <trkpt lat="49.33409" lon="0.888">
        <ele>102</ele>
        <time>2020-05-11T07:25:31Z</time>
      </trkpt>
      <trkpt lat="49.33394" lon="0.88793">
        <ele>103</ele>
        <time>2020-05-11T07:25:36Z</time>
      </trkpt>
      <trkpt lat="49.33376" lon="0.88788">
        <ele>104</ele>
        <time>2020-05-11T07:25:43Z</time>
      </trkpt>
      <trkpt lat="49.33368" lon="0.88786">
        <ele>106</ele>
        <time>2020-05-11T07:25:47Z</time>
      </trkpt>
      <trkpt lat="49.33359" lon="0.88781">
        <ele>107</ele>
        <time>2020-05-11T07:25:54Z</time>
      </trkpt>
      <trkpt lat="49.33353" lon="0.8878">
        <ele>107</ele>
        <time>2020-05-11T07:26:01Z</time>
      </trkpt>
      <trkpt lat="49.33347" lon="0.88777">
        <ele>107</ele>
        <time>2020-05-11T07:26:09Z</time>
      </trkpt>
      <trkpt lat="49.33342" lon="0.88779">
        <ele>108</ele>
        <time>2020-05-11T07:26:16Z</time>
      </trkpt>
      <trkpt lat="49.3334" lon="0.88779">
        <ele>109</ele>
        <time>2020-05-11T07:26:19Z</time>
      </trkpt>
      <trkpt lat="49.33331" lon="0.88777">
        <ele>110</ele>
        <time>2020-05-11T07:26:25Z</time>
      </trkpt>
      <trkpt lat="49.3333" lon="0.88776">
        <ele>111</ele>
        <time>2020-05-11T07:26:26Z</time>
      </trkpt>
      <trkpt lat="49.33324" lon="0.88775">
        <ele>113</ele>
        <time>2020-05-11T07:26:29Z</time>
      </trkpt>
      <trkpt lat="49.33317" lon="0.88771">
        <ele>116</ele>
        <time>2020-05-11T07:26:34Z</time>
      </trkpt>
      <trkpt lat="49.33308" lon="0.8877">
        <ele>119</ele>
        <time>2020-05-11T07:26:40Z</time>
      </trkpt>
      <trkpt lat="49.33299" lon="0.88766">
        <ele>121</ele>
        <time>2020-05-11T07:26:46Z</time>
      </trkpt>
      <trkpt lat="49.33284" lon="0.88759">
        <ele>123</ele>
        <time>2020-05-11T07:26:54Z</time>
      </trkpt>
      <trkpt lat="49.33271" lon="0.88753">
        <ele>125</ele>
        <time>2020-05-11T07:27:01Z</time>
      </trkpt>
      <trkpt lat="49.33258" lon="0.88748">
        <ele>126</ele>
        <time>2020-05-11T07:27:09Z</time>
      </trkpt>
      <trkpt lat="49.33247" lon="0.88746">
        <ele>126</ele>
        <time>2020-05-11T07:27:15Z</time>
      </trkpt>
      <trkpt lat="49.33236" lon="0.88741">
        <ele>128</ele>
        <time>2020-05-11T07:27:22Z</time>
      </trkpt>
      <trkpt lat="49.33228" lon="0.88736">
        <ele>128</ele>
        <time>2020-05-11T07:27:27Z</time>
      </trkpt>
      <trkpt lat="49.33217" lon="0.88731">
        <ele>129</ele>
        <time>2020-05-11T07:27:33Z</time>
      </trkpt>
      <trkpt lat="49.33201" lon="0.88728">
        <ele>129</ele>
        <time>2020-05-11T07:27:40Z</time>
      </trkpt>
      <trkpt lat="49.33182" lon="0.88721">
        <ele>130</ele>
        <time>2020-05-11T07:27:46Z</time>
      </trkpt>
      <trkpt lat="49.33163" lon="0.88714">
        <ele>131</ele>
        <time>2020-05-11T07:27:53Z</time>
      </trkpt>
      <trkpt lat="49.33145" lon="0.88708">
        <ele>132</ele>
        <time>2020-05-11T07:27:59Z</time>
      </trkpt>
      <trkpt lat="49.33128" lon="0.88702">
        <ele>132</ele>
        <time>2020-05-11T07:28:05Z</time>
      </trkpt>
      <trkpt lat="49.33109" lon="0.88699">
        <ele>133</ele>
        <time>2020-05-11T07:28:11Z</time>
      </trkpt>
      <trkpt lat="49.331" lon="0.88712">
        <ele>133</ele>
        <time>2020-05-11T07:28:20Z</time>
      </trkpt>
      <trkpt lat="49.33093" lon="0.88733">
        <ele>133</ele>
        <time>2020-05-11T07:28:27Z</time>
      </trkpt>
      <trkpt lat="49.33087" lon="0.88765">
        <ele>133</ele>
        <time>2020-05-11T07:28:34Z</time>
      </trkpt>
      <trkpt lat="49.33081" lon="0.88799">
        <ele>134</ele>
        <time>2020-05-11T07:28:40Z</time>
      </trkpt>
      <trkpt lat="49.33072" lon="0.88854">
        <ele>134</ele>
        <time>2020-05-11T07:28:48Z</time>
      </trkpt>
      <trkpt lat="49.33063" lon="0.88911">
        <ele>134</ele>
        <time>2020-05-11T07:28:55Z</time>
      </trkpt>
      <trkpt lat="49.33055" lon="0.88948">
        <ele>134</ele>
        <time>2020-05-11T07:29:00Z</time>
      </trkpt>
      <trkpt lat="49.33052" lon="0.88955">
        <ele>134</ele>
        <time>2020-05-11T07:29:01Z</time>
      </trkpt>
      <trkpt lat="49.33051" lon="0.88959">
        <ele>132</ele>
        <time>2020-05-11T07:29:02Z</time>
      </trkpt>
      <trkpt lat="49.33052" lon="0.88961">
        <ele>132</ele>
        <time>2020-05-11T07:29:03Z</time>
      </trkpt>
      <trkpt lat="49.33054" lon="0.88962">
        <ele>132</ele>
        <time>2020-05-11T07:29:04Z</time>
      </trkpt>
      <trkpt lat="49.33056" lon="0.88963">
        <ele>132</ele>
        <time>2020-05-11T07:29:05Z</time>
      </trkpt>
      <trkpt lat="49.33072" lon="0.88968">
        <ele>132</ele>
        <time>2020-05-11T07:29:11Z</time>
      </trkpt>
      <trkpt lat="49.33076" lon="0.8897">
        <ele>132</ele>
        <time>2020-05-11T07:29:12Z</time>
      </trkpt>
      <trkpt lat="49.33084" lon="0.88972">
        <ele>132</ele>
        <time>2020-05-11T07:29:14Z</time>
      </trkpt>
      <trkpt lat="49.3312" lon="0.8898">
        <ele>131</ele>
        <time>2020-05-11T07:29:22Z</time>
      </trkpt>
      <trkpt lat="49.33159" lon="0.88992">
        <ele>128</ele>
        <time>2020-05-11T07:29:29Z</time>
      </trkpt>
      <trkpt lat="49.33178" lon="0.89004">
        <ele>125</ele>
        <time>2020-05-11T07:29:32Z</time>
      </trkpt>
      <trkpt lat="49.33192" lon="0.89008">
        <ele>120</ele>
        <time>2020-05-11T07:29:34Z</time>
      </trkpt>
      <trkpt lat="49.33208" lon="0.8901">
        <ele>116</ele>
        <time>2020-05-11T07:29:36Z</time>
      </trkpt>
      <trkpt lat="49.33223" lon="0.89013">
        <ele>113</ele>
        <time>2020-05-11T07:29:38Z</time>
      </trkpt>
      <trkpt lat="49.33256" lon="0.89021">
        <ele>110</ele>
        <time>2020-05-11T07:29:42Z</time>
      </trkpt>
      <trkpt lat="49.33293" lon="0.89032">
        <ele>107</ele>
        <time>2020-05-11T07:29:47Z</time>
      </trkpt>
      <trkpt lat="49.33324" lon="0.89039">
        <ele>106</ele>
        <time>2020-05-11T07:29:51Z</time>
      </trkpt>
      <trkpt lat="49.33367" lon="0.89047">
        <ele>105</ele>
        <time>2020-05-11T07:29:57Z</time>
      </trkpt>
      <trkpt lat="49.33373" lon="0.89048">
        <ele>105</ele>
        <time>2020-05-11T07:29:58Z</time>
      </trkpt>
      <trkpt lat="49.33379" lon="0.89049">
        <ele>105</ele>
        <time>2020-05-11T07:29:59Z</time>
      </trkpt>
      <trkpt lat="49.33385" lon="0.89049">
        <ele>105</ele>
        <time>2020-05-11T07:30:00Z</time>
      </trkpt>
      <trkpt lat="49.3339" lon="0.8905">
        <ele>105</ele>
        <time>2020-05-11T07:30:01Z</time>
      </trkpt>
      <trkpt lat="49.33396" lon="0.89051">
        <ele>105</ele>
        <time>2020-05-11T07:30:02Z</time>
      </trkpt>
      <trkpt lat="49.33401" lon="0.89051">
        <ele>105</ele>
        <time>2020-05-11T07:30:03Z</time>
      </trkpt>
      <trkpt lat="49.33406" lon="0.89053">
        <ele>105</ele>
        <time>2020-05-11T07:30:04Z</time>
      </trkpt>
      <trkpt lat="49.3341" lon="0.89055">
        <ele>104</ele>
        <time>2020-05-11T07:30:05Z</time>
      </trkpt>
      <trkpt lat="49.33413" lon="0.89057">
        <ele>104</ele>
        <time>2020-05-11T07:30:06Z</time>
      </trkpt>
      <trkpt lat="49.33416" lon="0.8906">
        <ele>104</ele>
        <time>2020-05-11T07:30:07Z</time>
      </trkpt>
      <trkpt lat="49.33418" lon="0.89063">
        <ele>104</ele>
        <time>2020-05-11T07:30:08Z</time>
      </trkpt>
      <trkpt lat="49.33419" lon="0.89066">
        <ele>105</ele>
        <time>2020-05-11T07:30:09Z</time>
      </trkpt>
      <trkpt lat="49.33421" lon="0.8907">
        <ele>105</ele>
        <time>2020-05-11T07:30:10Z</time>
      </trkpt>
      <trkpt lat="49.33422" lon="0.89075">
        <ele>105</ele>
        <time>2020-05-11T07:30:11Z</time>
      </trkpt>
      <trkpt lat="49.33423" lon="0.8908">
        <ele>105</ele>
        <time>2020-05-11T07:30:12Z</time>
      </trkpt>
      <trkpt lat="49.33425" lon="0.89084">
        <ele>106</ele>
        <time>2020-05-11T07:30:13Z</time>
      </trkpt>
      <trkpt lat="49.33427" lon="0.89087">
        <ele>106</ele>
        <time>2020-05-11T07:30:14Z</time>
      </trkpt>
      <trkpt lat="49.33428" lon="0.89091">
        <ele>106</ele>
        <time>2020-05-11T07:30:15Z</time>
      </trkpt>
      <trkpt lat="49.33429" lon="0.89095">
        <ele>106</ele>
        <time>2020-05-11T07:30:16Z</time>
      </trkpt>
      <trkpt lat="49.33428" lon="0.89129">
        <ele>106</ele>
        <time>2020-05-11T07:30:25Z</time>
      </trkpt>
      <trkpt lat="49.33423" lon="0.89162">
        <ele>106</ele>
        <time>2020-05-11T07:30:31Z</time>
      </trkpt>
      <trkpt lat="49.3342" lon="0.89191">
        <ele>106</ele>
        <time>2020-05-11T07:30:35Z</time>
      </trkpt>
      <trkpt lat="49.33414" lon="0.89231">
        <ele>105</ele>
        <time>2020-05-11T07:30:40Z</time>
      </trkpt>
      <trkpt lat="49.33411" lon="0.89248">
        <ele>105</ele>
        <time>2020-05-11T07:30:42Z</time>
      </trkpt>
      <trkpt lat="49.33408" lon="0.89265">
        <ele>104</ele>
        <time>2020-05-11T07:30:44Z</time>
      </trkpt>
      <trkpt lat="49.33407" lon="0.89275">
        <ele>104</ele>
        <time>2020-05-11T07:30:45Z</time>
      </trkpt>
      <trkpt lat="49.33406" lon="0.89285">
        <ele>104</ele>
        <time>2020-05-11T07:30:46Z</time>
      </trkpt>
      <trkpt lat="49.33399" lon="0.89318">
        <ele>102</ele>
        <time>2020-05-11T07:30:50Z</time>
      </trkpt>
      <trkpt lat="49.33397" lon="0.8933">
        <ele>102</ele>
        <time>2020-05-11T07:30:52Z</time>
      </trkpt>
      <trkpt lat="49.33396" lon="0.89336">
        <ele>102</ele>
        <time>2020-05-11T07:30:53Z</time>
      </trkpt>
      <trkpt lat="49.33396" lon="0.89343">
        <ele>102</ele>
        <time>2020-05-11T07:30:54Z</time>
      </trkpt>
      <trkpt lat="49.33395" lon="0.8935">
        <ele>102</ele>
        <time>2020-05-11T07:30:55Z</time>
      </trkpt>
      <trkpt lat="49.33395" lon="0.89357">
        <ele>102</ele>
        <time>2020-05-11T07:30:56Z</time>
      </trkpt>
      <trkpt lat="49.33395" lon="0.89366">
        <ele>102</ele>
        <time>2020-05-11T07:30:57Z</time>
      </trkpt>
      <trkpt lat="49.33393" lon="0.89375">
        <ele>102</ele>
        <time>2020-05-11T07:30:58Z</time>
      </trkpt>
      <trkpt lat="49.3339" lon="0.894">
        <ele>104</ele>
        <time>2020-05-11T07:31:01Z</time>
      </trkpt>
      <trkpt lat="49.33387" lon="0.89417">
        <ele>105</ele>
        <time>2020-05-11T07:31:03Z</time>
      </trkpt>
      <trkpt lat="49.33385" lon="0.89427">
        <ele>105</ele>
        <time>2020-05-11T07:31:04Z</time>
      </trkpt>
      <trkpt lat="49.33378" lon="0.89464">
        <ele>107</ele>
        <time>2020-05-11T07:31:08Z</time>
      </trkpt>
      <trkpt lat="49.33377" lon="0.89471">
        <ele>107</ele>
        <time>2020-05-11T07:31:09Z</time>
      </trkpt>
      <trkpt lat="49.33375" lon="0.895">
        <ele>108</ele>
        <time>2020-05-11T07:31:14Z</time>
      </trkpt>
      <trkpt lat="49.33371" lon="0.89526">
        <ele>108</ele>
        <time>2020-05-11T07:31:20Z</time>
      </trkpt>
      <trkpt lat="49.33369" lon="0.89548">
        <ele>109</ele>
        <time>2020-05-11T07:31:25Z</time>
      </trkpt>
      <trkpt lat="49.33367" lon="0.89562">
        <ele>109</ele>
        <time>2020-05-11T07:31:29Z</time>
      </trkpt>
      <trkpt lat="49.33367" lon="0.89564">
        <ele>109</ele>
        <time>2020-05-11T07:31:30Z</time>
      </trkpt>
      <trkpt lat="49.33368" lon="0.89568">
        <ele>109</ele>
        <time>2020-05-11T07:31:31Z</time>
      </trkpt>
      <trkpt lat="49.33368" lon="0.89571">
        <ele>109</ele>
        <time>2020-05-11T07:31:32Z</time>
      </trkpt>
      <trkpt lat="49.33369" lon="0.89573">
        <ele>109</ele>
        <time>2020-05-11T07:31:33Z</time>
      </trkpt>
      <trkpt lat="49.3337" lon="0.89575">
        <ele>109</ele>
        <time>2020-05-11T07:31:34Z</time>
      </trkpt>
      <trkpt lat="49.33371" lon="0.8958">
        <ele>109</ele>
        <time>2020-05-11T07:31:36Z</time>
      </trkpt>
      <trkpt lat="49.3337" lon="0.89583">
        <ele>109</ele>
        <time>2020-05-11T07:31:37Z</time>
      </trkpt>
      <trkpt lat="49.33369" lon="0.89586">
        <ele>110</ele>
        <time>2020-05-11T07:31:39Z</time>
      </trkpt>
      <trkpt lat="49.33367" lon="0.89587">
        <ele>110</ele>
        <time>2020-05-11T07:31:40Z</time>
      </trkpt>
      <trkpt lat="49.33366" lon="0.89588">
        <ele>110</ele>
        <time>2020-05-11T07:31:41Z</time>
      </trkpt>
      <trkpt lat="49.33364" lon="0.89592">
        <ele>110</ele>
        <time>2020-05-11T07:31:47Z</time>
      </trkpt>
      <trkpt lat="49.33363" lon="0.89597">
        <ele>110</ele>
        <time>2020-05-11T07:31:57Z</time>
      </trkpt>
      <trkpt lat="49.33362" lon="0.896">
        <ele>110</ele>
        <time>2020-05-11T07:31:58Z</time>
      </trkpt>
      <trkpt lat="49.33361" lon="0.89603">
        <ele>110</ele>
        <time>2020-05-11T07:31:59Z</time>
      </trkpt>
      <trkpt lat="49.33361" lon="0.89606">
        <ele>110</ele>
        <time>2020-05-11T07:32:00Z</time>
      </trkpt>
      <trkpt lat="49.3336" lon="0.8961">
        <ele>110</ele>
        <time>2020-05-11T07:32:01Z</time>
      </trkpt>
      <trkpt lat="49.3336" lon="0.89613">
        <ele>110</ele>
        <time>2020-05-11T07:32:02Z</time>
      </trkpt>
      <trkpt lat="49.3336" lon="0.89617">
        <ele>110</ele>
        <time>2020-05-11T07:32:03Z</time>
      </trkpt>
      <trkpt lat="49.3336" lon="0.89622">
        <ele>108</ele>
        <time>2020-05-11T07:32:04Z</time>
      </trkpt>
      <trkpt lat="49.33359" lon="0.89627">
        <ele>108</ele>
        <time>2020-05-11T07:32:05Z</time>
      </trkpt>
      <trkpt lat="49.33359" lon="0.89632">
        <ele>108</ele>
        <time>2020-05-11T07:32:06Z</time>
      </trkpt>
      <trkpt lat="49.33356" lon="0.89646">
        <ele>109</ele>
        <time>2020-05-11T07:32:11Z</time>
      </trkpt>
      <trkpt lat="49.33355" lon="0.89656">
        <ele>109</ele>
        <time>2020-05-11T07:32:17Z</time>
      </trkpt>
      <trkpt lat="49.33354" lon="0.89658">
        <ele>110</ele>
        <time>2020-05-11T07:32:24Z</time>
      </trkpt>
      <trkpt lat="49.33352" lon="0.89659">
        <ele>110</ele>
        <time>2020-05-11T07:32:35Z</time>
      </trkpt>
      <trkpt lat="49.33352" lon="0.89664">
        <ele>110</ele>
        <time>2020-05-11T07:32:42Z</time>
      </trkpt>
      <trkpt lat="49.33354" lon="0.89664">
        <ele>110</ele>
        <time>2020-05-11T07:32:44Z</time>
      </trkpt>
      <trkpt lat="49.33362" lon="0.89667">
        <ele>110</ele>
        <time>2020-05-11T07:32:52Z</time>
      </trkpt>
      <trkpt lat="49.33361" lon="0.89672">
        <ele>110</ele>
        <time>2020-05-11T07:32:59Z</time>
      </trkpt>
      <trkpt lat="49.33361" lon="0.89676">
        <ele>110</ele>
        <time>2020-05-11T07:33:05Z</time>
      </trkpt>
      <trkpt lat="49.33357" lon="0.89681">
        <ele>110</ele>
        <time>2020-05-11T07:33:12Z</time>
      </trkpt>
      <trkpt lat="49.33354" lon="0.89688">
        <ele>110</ele>
        <time>2020-05-11T07:33:19Z</time>
      </trkpt>
      <trkpt lat="49.33349" lon="0.89692">
        <ele>110</ele>
        <time>2020-05-11T07:33:26Z</time>
      </trkpt>
      <trkpt lat="49.33349" lon="0.89695">
        <ele>110</ele>
        <time>2020-05-11T07:33:34Z</time>
      </trkpt>
      <trkpt lat="49.33349" lon="0.89695">
        <ele>110</ele>
        <time>2020-05-11T07:33:35Z</time>
      </trkpt>
      <trkpt lat="49.33343" lon="0.89719">
        <ele>111</ele>
        <time>2020-05-11T07:33:42Z</time>
      </trkpt>
      <trkpt lat="49.33339" lon="0.89749">
        <ele>113</ele>
        <time>2020-05-11T07:33:49Z</time>
      </trkpt>
      <trkpt lat="49.33341" lon="0.89759">
        <ele>114</ele>
        <time>2020-05-11T07:33:53Z</time>
      </trkpt>
      <trkpt lat="49.33341" lon="0.8976">
        <ele>114</ele>
        <time>2020-05-11T07:33:54Z</time>
      </trkpt>
      <trkpt lat="49.3334" lon="0.89762">
        <ele>114</ele>
        <time>2020-05-11T07:33:55Z</time>
      </trkpt>
      <trkpt lat="49.33337" lon="0.89769">
        <ele>114</ele>
        <time>2020-05-11T07:33:59Z</time>
      </trkpt>
      <trkpt lat="49.33336" lon="0.89771">
        <ele>113</ele>
        <time>2020-05-11T07:34:00Z</time>
      </trkpt>
      <trkpt lat="49.33335" lon="0.89774">
        <ele>114</ele>
        <time>2020-05-11T07:34:01Z</time>
      </trkpt>
      <trkpt lat="49.33335" lon="0.89777">
        <ele>114</ele>
        <time>2020-05-11T07:34:02Z</time>
      </trkpt>
      <trkpt lat="49.33334" lon="0.8978">
        <ele>114</ele>
        <time>2020-05-11T07:34:03Z</time>
      </trkpt>
      <trkpt lat="49.33334" lon="0.89785">
        <ele>113</ele>
        <time>2020-05-11T07:34:04Z</time>
      </trkpt>
      <trkpt lat="49.33333" lon="0.8979">
        <ele>114</ele>
        <time>2020-05-11T07:34:05Z</time>
      </trkpt>
      <trkpt lat="49.33328" lon="0.89823">
        <ele>114</ele>
        <time>2020-05-11T07:34:11Z</time>
      </trkpt>
      <trkpt lat="49.33329" lon="0.89833">
        <ele>113</ele>
        <time>2020-05-11T07:34:14Z</time>
      </trkpt>
      <trkpt lat="49.3333" lon="0.89836">
        <ele>113</ele>
        <time>2020-05-11T07:34:15Z</time>
      </trkpt>
      <trkpt lat="49.33328" lon="0.89839">
        <ele>113</ele>
        <time>2020-05-11T07:34:16Z</time>
      </trkpt>
      <trkpt lat="49.33324" lon="0.89854">
        <ele>112</ele>
        <time>2020-05-11T07:34:20Z</time>
      </trkpt>
      <trkpt lat="49.33322" lon="0.89859">
        <ele>112</ele>
        <time>2020-05-11T07:34:21Z</time>
      </trkpt>
      <trkpt lat="49.3332" lon="0.89864">
        <ele>112</ele>
        <time>2020-05-11T07:34:22Z</time>
      </trkpt>
      <trkpt lat="49.33319" lon="0.89869">
        <ele>111</ele>
        <time>2020-05-11T07:34:23Z</time>
      </trkpt>
      <trkpt lat="49.33318" lon="0.89874">
        <ele>111</ele>
        <time>2020-05-11T07:34:24Z</time>
      </trkpt>
      <trkpt lat="49.33314" lon="0.89909">
        <ele>109</ele>
        <time>2020-05-11T07:34:30Z</time>
      </trkpt>
      <trkpt lat="49.33306" lon="0.89947">
        <ele>111</ele>
        <time>2020-05-11T07:34:36Z</time>
      </trkpt>
      <trkpt lat="49.33304" lon="0.89955">
        <ele>112</ele>
        <time>2020-05-11T07:34:37Z</time>
      </trkpt>
      <trkpt lat="49.33302" lon="0.89963">
        <ele>113</ele>
        <time>2020-05-11T07:34:38Z</time>
      </trkpt>
      <trkpt lat="49.333" lon="0.8997">
        <ele>114</ele>
        <time>2020-05-11T07:34:39Z</time>
      </trkpt>
      <trkpt lat="49.33299" lon="0.89977">
        <ele>114</ele>
        <time>2020-05-11T07:34:40Z</time>
      </trkpt>
      <trkpt lat="49.33298" lon="0.89983">
        <ele>114</ele>
        <time>2020-05-11T07:34:41Z</time>
      </trkpt>
      <trkpt lat="49.33297" lon="0.89988">
        <ele>115</ele>
        <time>2020-05-11T07:34:42Z</time>
      </trkpt>
      <trkpt lat="49.33297" lon="0.89994">
        <ele>115</ele>
        <time>2020-05-11T07:34:43Z</time>
      </trkpt>
      <trkpt lat="49.33291" lon="0.9003">
        <ele>115</ele>
        <time>2020-05-11T07:34:50Z</time>
      </trkpt>
      <trkpt lat="49.33289" lon="0.90057">
        <ele>115</ele>
        <time>2020-05-11T07:34:56Z</time>
      </trkpt>
      <trkpt lat="49.33285" lon="0.90088">
        <ele>116</ele>
        <time>2020-05-11T07:35:02Z</time>
      </trkpt>
      <trkpt lat="49.33281" lon="0.90121">
        <ele>116</ele>
        <time>2020-05-11T07:35:08Z</time>
      </trkpt>
      <trkpt lat="49.33275" lon="0.90156">
        <ele>116</ele>
        <time>2020-05-11T07:35:14Z</time>
      </trkpt>
      <trkpt lat="49.33268" lon="0.90195">
        <ele>116</ele>
        <time>2020-05-11T07:35:20Z</time>
      </trkpt>
      <trkpt lat="49.33262" lon="0.90232">
        <ele>116</ele>
        <time>2020-05-11T07:35:26Z</time>
      </trkpt>
      <trkpt lat="49.33257" lon="0.90269">
        <ele>116</ele>
        <time>2020-05-11T07:35:32Z</time>
      </trkpt>
      <trkpt lat="49.33255" lon="0.9031">
        <ele>117</ele>
        <time>2020-05-11T07:35:39Z</time>
      </trkpt>
      <trkpt lat="49.33247" lon="0.90357">
        <ele>118</ele>
        <time>2020-05-11T07:35:46Z</time>
      </trkpt>
      <trkpt lat="49.33239" lon="0.90395">
        <ele>119</ele>
        <time>2020-05-11T07:35:51Z</time>
      </trkpt>
      <trkpt lat="49.33231" lon="0.90429">
        <ele>119</ele>
        <time>2020-05-11T07:35:56Z</time>
      </trkpt>
      <trkpt lat="49.33225" lon="0.9047">
        <ele>119</ele>
        <time>2020-05-11T07:36:02Z</time>
      </trkpt>
      <trkpt lat="49.3322" lon="0.90507">
        <ele>119</ele>
        <time>2020-05-11T07:36:07Z</time>
      </trkpt>
      <trkpt lat="49.33219" lon="0.90523">
        <ele>119</ele>
        <time>2020-05-11T07:36:09Z</time>
      </trkpt>
      <trkpt lat="49.33208" lon="0.90573">
        <ele>119</ele>
        <time>2020-05-11T07:36:16Z</time>
      </trkpt>
      <trkpt lat="49.33204" lon="0.90612">
        <ele>119</ele>
        <time>2020-05-11T07:36:22Z</time>
      </trkpt>
      <trkpt lat="49.33203" lon="0.9062">
        <ele>119</ele>
        <time>2020-05-11T07:36:24Z</time>
      </trkpt>
      <trkpt lat="49.33203" lon="0.90623">
        <ele>119</ele>
        <time>2020-05-11T07:36:25Z</time>
      </trkpt>
      <trkpt lat="49.33206" lon="0.90626">
        <ele>119</ele>
        <time>2020-05-11T07:36:27Z</time>
      </trkpt>
      <trkpt lat="49.33211" lon="0.90634">
        <ele>118</ele>
        <time>2020-05-11T07:36:30Z</time>
      </trkpt>
      <trkpt lat="49.3321" lon="0.90643">
        <ele>118</ele>
        <time>2020-05-11T07:36:34Z</time>
      </trkpt>
      <trkpt lat="49.33209" lon="0.90657">
        <ele>117</ele>
        <time>2020-05-11T07:36:40Z</time>
      </trkpt>
      <trkpt lat="49.33208" lon="0.90661">
        <ele>117</ele>
        <time>2020-05-11T07:36:41Z</time>
      </trkpt>
      <trkpt lat="49.33196" lon="0.90668">
        <ele>117</ele>
        <time>2020-05-11T07:36:46Z</time>
      </trkpt>
      <trkpt lat="49.33192" lon="0.90675">
        <ele>117</ele>
        <time>2020-05-11T07:36:49Z</time>
      </trkpt>
      <trkpt lat="49.33193" lon="0.90679">
        <ele>117</ele>
        <time>2020-05-11T07:36:50Z</time>
      </trkpt>
      <trkpt lat="49.33194" lon="0.90689">
        <ele>117</ele>
        <time>2020-05-11T07:36:54Z</time>
      </trkpt>
      <trkpt lat="49.33191" lon="0.90692">
        <ele>117</ele>
        <time>2020-05-11T07:36:55Z</time>
      </trkpt>
      <trkpt lat="49.33189" lon="0.90695">
        <ele>117</ele>
        <time>2020-05-11T07:36:56Z</time>
      </trkpt>
      <trkpt lat="49.33186" lon="0.90702">
        <ele>117</ele>
        <time>2020-05-11T07:36:58Z</time>
      </trkpt>
      <trkpt lat="49.33182" lon="0.90733">
        <ele>116</ele>
        <time>2020-05-11T07:37:04Z</time>
      </trkpt>
      <trkpt lat="49.33175" lon="0.90788">
        <ele>116</ele>
        <time>2020-05-11T07:37:11Z</time>
      </trkpt>
      <trkpt lat="49.33164" lon="0.90843">
        <ele>114</ele>
        <time>2020-05-11T07:37:17Z</time>
      </trkpt>
      <trkpt lat="49.33163" lon="0.9085">
        <ele>113</ele>
        <time>2020-05-11T07:37:18Z</time>
      </trkpt>
      <trkpt lat="49.33162" lon="0.90856">
        <ele>113</ele>
        <time>2020-05-11T07:37:19Z</time>
      </trkpt>
      <trkpt lat="49.33155" lon="0.90895">
        <ele>111</ele>
        <time>2020-05-11T07:37:25Z</time>
      </trkpt>
      <trkpt lat="49.33149" lon="0.90938">
        <ele>110</ele>
        <time>2020-05-11T07:37:31Z</time>
      </trkpt>
      <trkpt lat="49.33145" lon="0.90958">
        <ele>108</ele>
        <time>2020-05-11T07:37:36Z</time>
      </trkpt>
      <trkpt lat="49.33141" lon="0.90997">
        <ele>105</ele>
        <time>2020-05-11T07:37:42Z</time>
      </trkpt>
      <trkpt lat="49.33142" lon="0.90999">
        <ele>104</ele>
        <time>2020-05-11T07:37:43Z</time>
      </trkpt>
      <trkpt lat="49.33144" lon="0.90998">
        <ele>104</ele>
        <time>2020-05-11T07:37:44Z</time>
      </trkpt>
      <trkpt lat="49.33146" lon="0.90997">
        <ele>104</ele>
        <time>2020-05-11T07:37:45Z</time>
      </trkpt>
      <trkpt lat="49.33148" lon="0.90996">
        <ele>104</ele>
        <time>2020-05-11T07:37:46Z</time>
      </trkpt>
      <trkpt lat="49.3315" lon="0.90997">
        <ele>104</ele>
        <time>2020-05-11T07:37:47Z</time>
      </trkpt>
      <trkpt lat="49.33152" lon="0.90998">
        <ele>106</ele>
        <time>2020-05-11T07:37:48Z</time>
      </trkpt>
      <trkpt lat="49.33154" lon="0.90999">
        <ele>106</ele>
        <time>2020-05-11T07:37:49Z</time>
      </trkpt>
      <trkpt lat="49.33156" lon="0.91">
        <ele>106</ele>
        <time>2020-05-11T07:37:50Z</time>
      </trkpt>
      <trkpt lat="49.33158" lon="0.91">
        <ele>106</ele>
        <time>2020-05-11T07:37:51Z</time>
      </trkpt>
      <trkpt lat="49.3316" lon="0.90999">
        <ele>106</ele>
        <time>2020-05-11T07:37:52Z</time>
      </trkpt>
      <trkpt lat="49.3317" lon="0.90995">
        <ele>106</ele>
        <time>2020-05-11T07:37:58Z</time>
      </trkpt>
      <trkpt lat="49.33191" lon="0.90995">
        <ele>107</ele>
        <time>2020-05-11T07:38:04Z</time>
      </trkpt>
      <trkpt lat="49.33219" lon="0.90997">
        <ele>108</ele>
        <time>2020-05-11T07:38:11Z</time>
      </trkpt>
      <trkpt lat="49.33247" lon="0.90997">
        <ele>109</ele>
        <time>2020-05-11T07:38:18Z</time>
      </trkpt>
      <trkpt lat="49.33255" lon="0.90998">
        <ele>107</ele>
        <time>2020-05-11T07:38:21Z</time>
      </trkpt>
      <trkpt lat="49.33262" lon="0.90995">
        <ele>107</ele>
        <time>2020-05-11T07:38:24Z</time>
      </trkpt>
      <trkpt lat="49.33264" lon="0.90979">
        <ele>106</ele>
        <time>2020-05-11T07:38:28Z</time>
      </trkpt>
      <trkpt lat="49.33266" lon="0.90953">
        <ele>106</ele>
        <time>2020-05-11T07:38:33Z</time>
      </trkpt>
      <trkpt lat="49.33265" lon="0.90941">
        <ele>106</ele>
        <time>2020-05-11T07:38:35Z</time>
      </trkpt>
      <trkpt lat="49.33267" lon="0.90929">
        <ele>108</ele>
        <time>2020-05-11T07:38:37Z</time>
      </trkpt>
      <trkpt lat="49.33268" lon="0.90923">
        <ele>108</ele>
        <time>2020-05-11T07:38:38Z</time>
      </trkpt>
      <trkpt lat="49.33273" lon="0.90903">
        <ele>108</ele>
        <time>2020-05-11T07:38:41Z</time>
      </trkpt>
      <trkpt lat="49.33291" lon="0.90874">
        <ele>106</ele>
        <time>2020-05-11T07:38:48Z</time>
      </trkpt>
      <trkpt lat="49.33293" lon="0.90871">
        <ele>106</ele>
        <time>2020-05-11T07:38:49Z</time>
      </trkpt>
      <trkpt lat="49.33308" lon="0.90858">
        <ele>105</ele>
        <time>2020-05-11T07:38:54Z</time>
      </trkpt>
      <trkpt lat="49.3333" lon="0.90837">
        <ele>104</ele>
        <time>2020-05-11T07:39:01Z</time>
      </trkpt>
      <trkpt lat="49.33341" lon="0.90825">
        <ele>103</ele>
        <time>2020-05-11T07:39:05Z</time>
      </trkpt>
      <trkpt lat="49.33358" lon="0.90812">
        <ele>101</ele>
        <time>2020-05-11T07:39:11Z</time>
      </trkpt>
      <trkpt lat="49.33374" lon="0.90796">
        <ele>100</ele>
        <time>2020-05-11T07:39:19Z</time>
      </trkpt>
      <trkpt lat="49.33387" lon="0.90781">
        <ele>100</ele>
        <time>2020-05-11T07:39:26Z</time>
      </trkpt>
      <trkpt lat="49.33394" lon="0.90769">
        <ele>100</ele>
        <time>2020-05-11T07:39:31Z</time>
      </trkpt>
      <trkpt lat="49.33399" lon="0.90758">
        <ele>100</ele>
        <time>2020-05-11T07:39:37Z</time>
      </trkpt>
      <trkpt lat="49.33401" lon="0.90755">
        <ele>100</ele>
        <time>2020-05-11T07:39:39Z</time>
      </trkpt>
      <trkpt lat="49.33406" lon="0.90749">
        <ele>100</ele>
        <time>2020-05-11T07:39:45Z</time>
      </trkpt>
      <trkpt lat="49.3342" lon="0.90751">
        <ele>100</ele>
        <time>2020-05-11T07:39:51Z</time>
      </trkpt>
      <trkpt lat="49.33449" lon="0.90762">
        <ele>98</ele>
        <time>2020-05-11T07:39:59Z</time>
      </trkpt>
      <trkpt lat="49.33468" lon="0.90773">
        <ele>96</ele>
        <time>2020-05-11T07:40:03Z</time>
      </trkpt>
      <trkpt lat="49.33488" lon="0.90789">
        <ele>95</ele>
        <time>2020-05-11T07:40:07Z</time>
      </trkpt>
      <trkpt lat="49.33528" lon="0.90802">
        <ele>92</ele>
        <time>2020-05-11T07:40:13Z</time>
      </trkpt>
      <trkpt lat="49.33554" lon="0.90823">
        <ele>90</ele>
        <time>2020-05-11T07:40:18Z</time>
      </trkpt>
      <trkpt lat="49.33578" lon="0.90852">
        <ele>86</ele>
        <time>2020-05-11T07:40:23Z</time>
      </trkpt>
      <trkpt lat="49.33592" lon="0.90868">
        <ele>85</ele>
        <time>2020-05-11T07:40:26Z</time>
      </trkpt>
      <trkpt lat="49.3363" lon="0.90914">
        <ele>82</ele>
        <time>2020-05-11T07:40:33Z</time>
      </trkpt>
      <trkpt lat="49.33641" lon="0.90926">
        <ele>81</ele>
        <time>2020-05-11T07:40:35Z</time>
      </trkpt>
      <trkpt lat="49.33651" lon="0.90932">
        <ele>81</ele>
        <time>2020-05-11T07:40:39Z</time>
      </trkpt>
      <trkpt lat="49.33656" lon="0.90922">
        <ele>80</ele>
        <time>2020-05-11T07:40:44Z</time>
      </trkpt>
      <trkpt lat="49.33659" lon="0.90915">
        <ele>80</ele>
        <time>2020-05-11T07:40:46Z</time>
      </trkpt>
      <trkpt lat="49.33652" lon="0.90885">
        <ele>77</ele>
        <time>2020-05-11T07:40:52Z</time>
      </trkpt>
      <trkpt lat="49.3365" lon="0.90872">
        <ele>76</ele>
        <time>2020-05-11T07:40:54Z</time>
      </trkpt>
      <trkpt lat="49.33649" lon="0.90858">
        <ele>74</ele>
        <time>2020-05-11T07:40:56Z</time>
      </trkpt>
      <trkpt lat="49.33647" lon="0.90829">
        <ele>70</ele>
        <time>2020-05-11T07:41:01Z</time>
      </trkpt>
      <trkpt lat="49.33648" lon="0.90821">
        <ele>68</ele>
        <time>2020-05-11T07:41:03Z</time>
      </trkpt>
      <trkpt lat="49.33647" lon="0.90814">
        <ele>66</ele>
        <time>2020-05-11T07:41:06Z</time>
      </trkpt>
      <trkpt lat="49.33644" lon="0.90802">
        <ele>66</ele>
        <time>2020-05-11T07:41:12Z</time>
      </trkpt>
      <trkpt lat="49.3364" lon="0.90791">
        <ele>66</ele>
        <time>2020-05-11T07:41:18Z</time>
      </trkpt>
      <trkpt lat="49.33642" lon="0.90788">
        <ele>67</ele>
        <time>2020-05-11T07:41:29Z</time>
      </trkpt>
      <trkpt lat="49.33643" lon="0.90785">
        <ele>67</ele>
        <time>2020-05-11T07:41:38Z</time>
      </trkpt>
      <trkpt lat="49.33638" lon="0.90772">
        <ele>67</ele>
        <time>2020-05-11T07:41:44Z</time>
      </trkpt>
      <trkpt lat="49.33628" lon="0.90744">
        <ele>68</ele>
        <time>2020-05-11T07:41:50Z</time>
      </trkpt>
      <trkpt lat="49.33624" lon="0.90732">
        <ele>68</ele>
        <time>2020-05-11T07:41:52Z</time>
      </trkpt>
      <trkpt lat="49.33618" lon="0.90699">
        <ele>70</ele>
        <time>2020-05-11T07:41:57Z</time>
      </trkpt>
      <trkpt lat="49.33617" lon="0.90692">
        <ele>70</ele>
        <time>2020-05-11T07:41:58Z</time>
      </trkpt>
      <trkpt lat="49.33614" lon="0.90652">
        <ele>71</ele>
        <time>2020-05-11T07:42:04Z</time>
      </trkpt>
      <trkpt lat="49.33613" lon="0.90646">
        <ele>71</ele>
        <time>2020-05-11T07:42:05Z</time>
      </trkpt>
      <trkpt lat="49.33608" lon="0.90606">
        <ele>71</ele>
        <time>2020-05-11T07:42:12Z</time>
      </trkpt>
      <trkpt lat="49.33602" lon="0.90573">
        <ele>72</ele>
        <time>2020-05-11T07:42:19Z</time>
      </trkpt>
      <trkpt lat="49.33595" lon="0.90538">
        <ele>73</ele>
        <time>2020-05-11T07:42:26Z</time>
      </trkpt>
      <trkpt lat="49.33593" lon="0.905">
        <ele>74</ele>
        <time>2020-05-11T07:42:33Z</time>
      </trkpt>
      <trkpt lat="49.33595" lon="0.90469">
        <ele>74</ele>
        <time>2020-05-11T07:42:39Z</time>
      </trkpt>
      <trkpt lat="49.33594" lon="0.90439">
        <ele>75</ele>
        <time>2020-05-11T07:42:45Z</time>
      </trkpt>
      <trkpt lat="49.3359" lon="0.904">
        <ele>75</ele>
        <time>2020-05-11T07:42:52Z</time>
      </trkpt>
      <trkpt lat="49.3358" lon="0.90352">
        <ele>77</ele>
        <time>2020-05-11T07:43:01Z</time>
      </trkpt>
      <trkpt lat="49.33562" lon="0.90327">
        <ele>78</ele>
        <time>2020-05-11T07:43:08Z</time>
      </trkpt>
      <trkpt lat="49.33535" lon="0.90305">
        <ele>79</ele>
        <time>2020-05-11T07:43:17Z</time>
      </trkpt>
      <trkpt lat="49.33509" lon="0.90294">
        <ele>80</ele>
        <time>2020-05-11T07:43:25Z</time>
      </trkpt>
      <trkpt lat="49.33497" lon="0.90304">
        <ele>80</ele>
        <time>2020-05-11T07:43:30Z</time>
      </trkpt>
      <trkpt lat="49.33481" lon="0.9032">
        <ele>82</ele>
        <time>2020-05-11T07:43:37Z</time>
      </trkpt>
      <trkpt lat="49.33463" lon="0.9032">
        <ele>83</ele>
        <time>2020-05-11T07:43:43Z</time>
      </trkpt>
      <trkpt lat="49.33442" lon="0.90303">
        <ele>84</ele>
        <time>2020-05-11T07:43:50Z</time>
      </trkpt>
      <trkpt lat="49.33431" lon="0.90285">
        <ele>86</ele>
        <time>2020-05-11T07:43:56Z</time>
      </trkpt>
      <trkpt lat="49.33423" lon="0.90259">
        <ele>88</ele>
        <time>2020-05-11T07:44:03Z</time>
      </trkpt>
      <trkpt lat="49.33422" lon="0.90253">
        <ele>88</ele>
        <time>2020-05-11T07:44:05Z</time>
      </trkpt>
      <trkpt lat="49.33423" lon="0.9025">
        <ele>88</ele>
        <time>2020-05-11T07:44:06Z</time>
      </trkpt>
      <trkpt lat="49.33424" lon="0.90246">
        <ele>89</ele>
        <time>2020-05-11T07:44:07Z</time>
      </trkpt>
      <trkpt lat="49.33426" lon="0.90243">
        <ele>89</ele>
        <time>2020-05-11T07:44:08Z</time>
      </trkpt>
      <trkpt lat="49.33427" lon="0.9024">
        <ele>89</ele>
        <time>2020-05-11T07:44:09Z</time>
      </trkpt>
      <trkpt lat="49.33429" lon="0.90237">
        <ele>89</ele>
        <time>2020-05-11T07:44:10Z</time>
      </trkpt>
      <trkpt lat="49.33444" lon="0.90213">
        <ele>89</ele>
        <time>2020-05-11T07:44:17Z</time>
      </trkpt>
      <trkpt lat="49.3345" lon="0.90189">
        <ele>90</ele>
        <time>2020-05-11T07:44:22Z</time>
      </trkpt>
      <trkpt lat="49.33442" lon="0.90162">
        <ele>92</ele>
        <time>2020-05-11T07:44:28Z</time>
      </trkpt>
      <trkpt lat="49.33431" lon="0.90128">
        <ele>93</ele>
        <time>2020-05-11T07:44:35Z</time>
      </trkpt>
      <trkpt lat="49.33421" lon="0.901">
        <ele>94</ele>
        <time>2020-05-11T07:44:41Z</time>
      </trkpt>
      <trkpt lat="49.33413" lon="0.90071">
        <ele>95</ele>
        <time>2020-05-11T07:44:47Z</time>
      </trkpt>
      <trkpt lat="49.33414" lon="0.90066">
        <ele>95</ele>
        <time>2020-05-11T07:44:48Z</time>
      </trkpt>
      <trkpt lat="49.33415" lon="0.9006">
        <ele>95</ele>
        <time>2020-05-11T07:44:49Z</time>
      </trkpt>
      <trkpt lat="49.33416" lon="0.90054">
        <ele>95</ele>
        <time>2020-05-11T07:44:50Z</time>
      </trkpt>
      <trkpt lat="49.33418" lon="0.90048">
        <ele>95</ele>
        <time>2020-05-11T07:44:51Z</time>
      </trkpt>
      <trkpt lat="49.3342" lon="0.90042">
        <ele>95</ele>
        <time>2020-05-11T07:44:52Z</time>
      </trkpt>
      <trkpt lat="49.33428" lon="0.90016">
        <ele>96</ele>
        <time>2020-05-11T07:44:57Z</time>
      </trkpt>
      <trkpt lat="49.33437" lon="0.89986">
        <ele>97</ele>
        <time>2020-05-11T07:45:03Z</time>
      </trkpt>
      <trkpt lat="49.33443" lon="0.89958">
        <ele>98</ele>
        <time>2020-05-11T07:45:08Z</time>
      </trkpt>
      <trkpt lat="49.33451" lon="0.89917">
        <ele>100</ele>
        <time>2020-05-11T07:45:15Z</time>
      </trkpt>
      <trkpt lat="49.33456" lon="0.89899">
        <ele>100</ele>
        <time>2020-05-11T07:45:18Z</time>
      </trkpt>
      <trkpt lat="49.33456" lon="0.89892">
        <ele>100</ele>
        <time>2020-05-11T07:45:19Z</time>
      </trkpt>
      <trkpt lat="49.33457" lon="0.89887">
        <ele>100</ele>
        <time>2020-05-11T07:45:20Z</time>
      </trkpt>
      <trkpt lat="49.33454" lon="0.89852">
        <ele>102</ele>
        <time>2020-05-11T07:45:26Z</time>
      </trkpt>
      <trkpt lat="49.3345" lon="0.89833">
        <ele>103</ele>
        <time>2020-05-11T07:45:30Z</time>
      </trkpt>
      <trkpt lat="49.3345" lon="0.89829">
        <ele>103</ele>
        <time>2020-05-11T07:45:31Z</time>
      </trkpt>
      <trkpt lat="49.33452" lon="0.89826">
        <ele>103</ele>
        <time>2020-05-11T07:45:32Z</time>
      </trkpt>
      <trkpt lat="49.33467" lon="0.89816">
        <ele>103</ele>
        <time>2020-05-11T07:45:37Z</time>
      </trkpt>
      <trkpt lat="49.33497" lon="0.89806">
        <ele>103</ele>
        <time>2020-05-11T07:45:44Z</time>
      </trkpt>
      <trkpt lat="49.33518" lon="0.89799">
        <ele>101</ele>
        <time>2020-05-11T07:45:49Z</time>
      </trkpt>
      <trkpt lat="49.33542" lon="0.89792">
        <ele>102</ele>
        <time>2020-05-11T07:45:55Z</time>
      </trkpt>
      <trkpt lat="49.33573" lon="0.89781">
        <ele>102</ele>
        <time>2020-05-11T07:46:01Z</time>
      </trkpt>
      <trkpt lat="49.33601" lon="0.89774">
        <ele>101</ele>
        <time>2020-05-11T07:46:06Z</time>
      </trkpt>
      <trkpt lat="49.33618" lon="0.89769">
        <ele>101</ele>
        <time>2020-05-11T07:46:09Z</time>
      </trkpt>
      <trkpt lat="49.33624" lon="0.89768">
        <ele>101</ele>
        <time>2020-05-11T07:46:10Z</time>
      </trkpt>
      <trkpt lat="49.3366" lon="0.89759">
        <ele>99</ele>
        <time>2020-05-11T07:46:16Z</time>
      </trkpt>
      <trkpt lat="49.33666" lon="0.89757">
        <ele>99</ele>
        <time>2020-05-11T07:46:17Z</time>
      </trkpt>
      <trkpt lat="49.33672" lon="0.89756">
        <ele>99</ele>
        <time>2020-05-11T07:46:18Z</time>
      </trkpt>
      <trkpt lat="49.33709" lon="0.89748">
        <ele>96</ele>
        <time>2020-05-11T07:46:24Z</time>
      </trkpt>
      <trkpt lat="49.33715" lon="0.89746">
        <ele>96</ele>
        <time>2020-05-11T07:46:25Z</time>
      </trkpt>
      <trkpt lat="49.33752" lon="0.89737">
        <ele>94</ele>
        <time>2020-05-11T07:46:31Z</time>
      </trkpt>
      <trkpt lat="49.33765" lon="0.89733">
        <ele>90</ele>
        <time>2020-05-11T07:46:34Z</time>
      </trkpt>
      <trkpt lat="49.33775" lon="0.8973">
        <ele>86</ele>
        <time>2020-05-11T07:46:37Z</time>
      </trkpt>
      <trkpt lat="49.33786" lon="0.89724">
        <ele>81</ele>
        <time>2020-05-11T07:46:40Z</time>
      </trkpt>
      <trkpt lat="49.33797" lon="0.89721">
        <ele>77</ele>
        <time>2020-05-11T07:46:43Z</time>
      </trkpt>
      <trkpt lat="49.33808" lon="0.89718">
        <ele>73</ele>
        <time>2020-05-11T07:46:46Z</time>
      </trkpt>
      <trkpt lat="49.33816" lon="0.89712">
        <ele>70</ele>
        <time>2020-05-11T07:46:49Z</time>
      </trkpt>
      <trkpt lat="49.33824" lon="0.89696">
        <ele>69</ele>
        <time>2020-05-11T07:46:55Z</time>
      </trkpt>
      <trkpt lat="49.33824" lon="0.89677">
        <ele>69</ele>
        <time>2020-05-11T07:47:00Z</time>
      </trkpt>
      <trkpt lat="49.33822" lon="0.89641">
        <ele>69</ele>
        <time>2020-05-11T07:47:06Z</time>
      </trkpt>
      <trkpt lat="49.33821" lon="0.89624">
        <ele>69</ele>
        <time>2020-05-11T07:47:09Z</time>
      </trkpt>
      <trkpt lat="49.3382" lon="0.89596">
        <ele>69</ele>
        <time>2020-05-11T07:47:14Z</time>
      </trkpt>
      <trkpt lat="49.33818" lon="0.89563">
        <ele>70</ele>
        <time>2020-05-11T07:47:19Z</time>
      </trkpt>
      <trkpt lat="49.33816" lon="0.89557">
        <ele>71</ele>
        <time>2020-05-11T07:47:20Z</time>
      </trkpt>
      <trkpt lat="49.33811" lon="0.89541">
        <ele>74</ele>
        <time>2020-05-11T07:47:24Z</time>
      </trkpt>
      <trkpt lat="49.33811" lon="0.89533">
        <ele>74</ele>
        <time>2020-05-11T07:47:26Z</time>
      </trkpt>
      <trkpt lat="49.3381" lon="0.89513">
        <ele>78</ele>
        <time>2020-05-11T07:47:31Z</time>
      </trkpt>
      <trkpt lat="49.33809" lon="0.89491">
        <ele>81</ele>
        <time>2020-05-11T07:47:37Z</time>
      </trkpt>
      <trkpt lat="49.33809" lon="0.89461">
        <ele>79</ele>
        <time>2020-05-11T07:47:43Z</time>
      </trkpt>
      <trkpt lat="49.33807" lon="0.89435">
        <ele>78</ele>
        <time>2020-05-11T07:47:47Z</time>
      </trkpt>
      <trkpt lat="49.33808" lon="0.89412">
        <ele>75</ele>
        <time>2020-05-11T07:47:52Z</time>
      </trkpt>
      <trkpt lat="49.33807" lon="0.89407">
        <ele>74</ele>
        <time>2020-05-11T07:47:53Z</time>
      </trkpt>
      <trkpt lat="49.33803" lon="0.89381">
        <ele>72</ele>
        <time>2020-05-11T07:47:57Z</time>
      </trkpt>
      <trkpt lat="49.33804" lon="0.89373">
        <ele>70</ele>
        <time>2020-05-11T07:48:24Z</time>
      </trkpt>
      <trkpt lat="49.33807" lon="0.89372">
        <ele>70</ele>
        <time>2020-05-11T07:48:25Z</time>
      </trkpt>
      <trkpt lat="49.33837" lon="0.89365">
        <ele>66</ele>
        <time>2020-05-11T07:48:29Z</time>
      </trkpt>
      <trkpt lat="49.33837" lon="0.89345">
        <ele>66</ele>
        <time>2020-05-11T07:48:32Z</time>
      </trkpt>
      <trkpt lat="49.33836" lon="0.89315">
        <ele>67</ele>
        <time>2020-05-11T07:48:33Z</time>
      </trkpt>
      <trkpt lat="49.33833" lon="0.89293">
        <ele>67</ele>
        <time>2020-05-11T07:48:40Z</time>
      </trkpt>
      <trkpt lat="49.33829" lon="0.89266">
        <ele>69</ele>
        <time>2020-05-11T07:48:47Z</time>
      </trkpt>
      <trkpt lat="49.33827" lon="0.89247">
        <ele>71</ele>
        <time>2020-05-11T07:48:53Z</time>
      </trkpt>
      <trkpt lat="49.33827" lon="0.89219">
        <ele>72</ele>
        <time>2020-05-11T07:49:00Z</time>
      </trkpt>
      <trkpt lat="49.33822" lon="0.89192">
        <ele>74</ele>
        <time>2020-05-11T07:49:01Z</time>
      </trkpt>
      <trkpt lat="49.33816" lon="0.89177">
        <ele>80</ele>
        <time>2020-05-11T07:49:08Z</time>
      </trkpt>
      <trkpt lat="49.33819" lon="0.89134">
        <ele>80</ele>
        <time>2020-05-11T07:49:16Z</time>
      </trkpt>
      <trkpt lat="49.33821" lon="0.89086">
        <ele>80</ele>
        <time>2020-05-11T07:49:24Z</time>
      </trkpt>
      <trkpt lat="49.33824" lon="0.89052">
        <ele>82</ele>
        <time>2020-05-11T07:49:30Z</time>
      </trkpt>
      <trkpt lat="49.33827" lon="0.89011">
        <ele>84</ele>
        <time>2020-05-11T07:49:37Z</time>
      </trkpt>
      <trkpt lat="49.33831" lon="0.88979">
        <ele>85</ele>
        <time>2020-05-11T07:49:43Z</time>
      </trkpt>
      <trkpt lat="49.33836" lon="0.88938">
        <ele>85</ele>
        <time>2020-05-11T07:49:50Z</time>
      </trkpt>
      <trkpt lat="49.33839" lon="0.88919">
        <ele>85</ele>
        <time>2020-05-11T07:49:53Z</time>
      </trkpt>
      <trkpt lat="49.33853" lon="0.88861">
        <ele>84</ele>
        <time>2020-05-11T07:50:01Z</time>
      </trkpt>
      <trkpt lat="49.3387" lon="0.88799">
        <ele>81</ele>
        <time>2020-05-11T07:50:08Z</time>
      </trkpt>
      <trkpt lat="49.33877" lon="0.88771">
        <ele>81</ele>
        <time>2020-05-11T07:50:12Z</time>
      </trkpt>
      <trkpt lat="49.33891" lon="0.88719">
        <ele>83</ele>
        <time>2020-05-11T07:50:19Z</time>
      </trkpt>
      <trkpt lat="49.33904" lon="0.8867">
        <ele>86</ele>
        <time>2020-05-11T07:50:26Z</time>
      </trkpt>
      <trkpt lat="49.33913" lon="0.88648">
        <ele>87</ele>
        <time>2020-05-11T07:50:29Z</time>
      </trkpt>
      <trkpt lat="49.33921" lon="0.8863">
        <ele>88</ele>
        <time>2020-05-11T07:50:33Z</time>
      </trkpt>
      <trkpt lat="49.33924" lon="0.88624">
        <ele>88</ele>
        <time>2020-05-11T07:50:39Z</time>
      </trkpt>
      <trkpt lat="49.33927" lon="0.88617">
        <ele>89</ele>
        <time>2020-05-11T07:50:48Z</time>
      </trkpt>
      <trkpt lat="49.33929" lon="0.88615">
        <ele>89</ele>
        <time>2020-05-11T07:50:49Z</time>
      </trkpt>
      <trkpt lat="49.33931" lon="0.88612">
        <ele>89</ele>
        <time>2020-05-11T07:50:50Z</time>
      </trkpt>
      <trkpt lat="49.33933" lon="0.88607">
        <ele>90</ele>
        <time>2020-05-11T07:50:51Z</time>
      </trkpt>
      <trkpt lat="49.33935" lon="0.88603">
        <ele>90</ele>
        <time>2020-05-11T07:50:52Z</time>
      </trkpt>
      <trkpt lat="49.33945" lon="0.88581">
        <ele>91</ele>
        <time>2020-05-11T07:50:57Z</time>
      </trkpt>
      <trkpt lat="49.33962" lon="0.88545">
        <ele>94</ele>
        <time>2020-05-11T07:51:05Z</time>
      </trkpt>
      <trkpt lat="49.33967" lon="0.88537">
        <ele>95</ele>
        <time>2020-05-11T07:51:07Z</time>
      </trkpt>
      <trkpt lat="49.33978" lon="0.88513">
        <ele>97</ele>
        <time>2020-05-11T07:51:13Z</time>
      </trkpt>
      <trkpt lat="49.33989" lon="0.88482">
        <ele>99</ele>
        <time>2020-05-11T07:51:20Z</time>
      </trkpt>
      <trkpt lat="49.34004" lon="0.88434">
        <ele>97</ele>
        <time>2020-05-11T07:51:27Z</time>
      </trkpt>
      <trkpt lat="49.34025" lon="0.88375">
        <ele>95</ele>
        <time>2020-05-11T07:51:36Z</time>
      </trkpt>
      <trkpt lat="49.34034" lon="0.88347">
        <ele>94</ele>
        <time>2020-05-11T07:51:40Z</time>
      </trkpt>
      <trkpt lat="49.34064" lon="0.88284">
        <ele>93</ele>
        <time>2020-05-11T07:51:49Z</time>
      </trkpt>
      <trkpt lat="49.34092" lon="0.88233">
        <ele>91</ele>
        <time>2020-05-11T07:51:56Z</time>
      </trkpt>
      <trkpt lat="49.34123" lon="0.88179">
        <ele>89</ele>
        <time>2020-05-11T07:52:04Z</time>
      </trkpt>
      <trkpt lat="49.34132" lon="0.8817">
        <ele>88</ele>
        <time>2020-05-11T07:52:06Z</time>
      </trkpt>
      <trkpt lat="49.34136" lon="0.88167">
        <ele>88</ele>
        <time>2020-05-11T07:52:07Z</time>
      </trkpt>
      <trkpt lat="49.34148" lon="0.88162">
        <ele>87</ele>
        <time>2020-05-11T07:52:09Z</time>
      </trkpt>
      <trkpt lat="49.34153" lon="0.88161">
        <ele>86</ele>
        <time>2020-05-11T07:52:10Z</time>
      </trkpt>
      <trkpt lat="49.34181" lon="0.88152">
        <ele>83</ele>
        <time>2020-05-11T07:52:15Z</time>
      </trkpt>
      <trkpt lat="49.34187" lon="0.88148">
        <ele>82</ele>
        <time>2020-05-11T07:52:16Z</time>
      </trkpt>
      <trkpt lat="49.34193" lon="0.88143">
        <ele>82</ele>
        <time>2020-05-11T07:52:17Z</time>
      </trkpt>
      <trkpt lat="49.34197" lon="0.88138">
        <ele>81</ele>
        <time>2020-05-11T07:52:18Z</time>
      </trkpt>
      <trkpt lat="49.34203" lon="0.88129">
        <ele>81</ele>
        <time>2020-05-11T07:52:19Z</time>
      </trkpt>
      <trkpt lat="49.34207" lon="0.88122">
        <ele>80</ele>
        <time>2020-05-11T07:52:20Z</time>
      </trkpt>
      <trkpt lat="49.34219" lon="0.881">
        <ele>78</ele>
        <time>2020-05-11T07:52:23Z</time>
      </trkpt>
      <trkpt lat="49.34238" lon="0.88088">
        <ele>72</ele>
      </trkpt>
      <trkpt lat="49.34386" lon="0.88059">
        <ele>75</ele>
      </trkpt>
      <trkpt lat="49.34344" lon="0.87955">
        <ele>82</ele>
      </trkpt>
      <trkpt lat="49.34289" lon="0.87824">
        <ele>90</ele>
      </trkpt>
      <trkpt lat="49.34275" lon="0.87805">
        <ele>90</ele>
      </trkpt>
      <trkpt lat="49.3429" lon="0.87703">
        <ele>90</ele>
      </trkpt>
      <trkpt lat="49.34307" lon="0.87618">
        <ele>85</ele>
      </trkpt>
      <trkpt lat="49.34264" lon="0.87415">
        <ele>90</ele>
      </trkpt>
      <trkpt lat="49.34264" lon="0.87352">
        <ele>88</ele>
      </trkpt>
      <trkpt lat="49.34252" lon="0.87272">
        <ele>87</ele>
      </trkpt>
      <trkpt lat="49.34162" lon="0.87143">
        <ele>96</ele>
      </trkpt>
      <trkpt lat="49.34174" lon="0.87042">
        <ele>94</ele>
      </trkpt>
      <trkpt lat="49.34169" lon="0.86936">
        <ele>97</ele>
      </trkpt>
      <trkpt lat="49.3414" lon="0.86869">
        <ele>104</ele>
      </trkpt>
      <trkpt lat="49.34119" lon="0.8686">
        <ele>106</ele>
      </trkpt>
      <trkpt lat="49.34055" lon="0.86827">
        <ele>112</ele>
      </trkpt>
      <trkpt lat="49.33954" lon="0.86805">
        <ele>114</ele>
      </trkpt>
      <trkpt lat="49.33823" lon="0.86551">
        <ele>127</ele>
        <time>2020-05-11T07:58:31Z</time>
      </trkpt>
      <trkpt lat="49.33822" lon="0.86545">
        <ele>127</ele>
        <time>2020-05-11T07:58:32Z</time>
      </trkpt>
      <trkpt lat="49.33821" lon="0.8654">
        <ele>127</ele>
        <time>2020-05-11T07:58:33Z</time>
      </trkpt>
      <trkpt lat="49.33819" lon="0.86536">
        <ele>127</ele>
        <time>2020-05-11T07:58:34Z</time>
      </trkpt>
      <trkpt lat="49.33817" lon="0.86532">
        <ele>127</ele>
        <time>2020-05-11T07:58:35Z</time>
      </trkpt>
      <trkpt lat="49.33815" lon="0.86529">
        <ele>127</ele>
        <time>2020-05-11T07:58:36Z</time>
      </trkpt>
      <trkpt lat="49.33798" lon="0.86501">
        <ele>127</ele>
        <time>2020-05-11T07:58:42Z</time>
      </trkpt>
      <trkpt lat="49.33795" lon="0.86497">
        <ele>127</ele>
        <time>2020-05-11T07:58:43Z</time>
      </trkpt>
      <trkpt lat="49.33781" lon="0.86476">
        <ele>127</ele>
        <time>2020-05-11T07:58:47Z</time>
      </trkpt>
      <trkpt lat="49.33778" lon="0.86469">
        <ele>127</ele>
        <time>2020-05-11T07:58:48Z</time>
      </trkpt>
      <trkpt lat="49.33773" lon="0.86455">
        <ele>127</ele>
        <time>2020-05-11T07:58:50Z</time>
      </trkpt>
      <trkpt lat="49.33772" lon="0.86447">
        <ele>127</ele>
        <time>2020-05-11T07:58:51Z</time>
      </trkpt>
      <trkpt lat="49.33767" lon="0.86418">
        <ele>127</ele>
        <time>2020-05-11T07:58:55Z</time>
      </trkpt>
      <trkpt lat="49.33766" lon="0.86402">
        <ele>127</ele>
        <time>2020-05-11T07:58:57Z</time>
      </trkpt>
      <trkpt lat="49.33766" lon="0.86395">
        <ele>127</ele>
        <time>2020-05-11T07:58:58Z</time>
      </trkpt>
      <trkpt lat="49.33765" lon="0.86388">
        <ele>127</ele>
        <time>2020-05-11T07:58:59Z</time>
      </trkpt>
      <trkpt lat="49.33764" lon="0.8638">
        <ele>127</ele>
        <time>2020-05-11T07:59:00Z</time>
      </trkpt>
      <trkpt lat="49.33762" lon="0.8637">
        <ele>127</ele>
        <time>2020-05-11T07:59:01Z</time>
      </trkpt>
      <trkpt lat="49.33752" lon="0.86338">
        <ele>128</ele>
        <time>2020-05-11T07:59:05Z</time>
      </trkpt>
      <trkpt lat="49.33749" lon="0.86331">
        <ele>128</ele>
        <time>2020-05-11T07:59:06Z</time>
      </trkpt>
      <trkpt lat="49.33722" lon="0.86281">
        <ele>128</ele>
        <time>2020-05-11T07:59:13Z</time>
      </trkpt>
      <trkpt lat="49.33719" lon="0.86274">
        <ele>128</ele>
        <time>2020-05-11T07:59:14Z</time>
      </trkpt>
      <trkpt lat="49.33716" lon="0.86266">
        <ele>128</ele>
        <time>2020-05-11T07:59:15Z</time>
      </trkpt>
      <trkpt lat="49.33713" lon="0.86229">
        <ele>123</ele>
        <time>2020-05-11T07:59:17Z</time>
      </trkpt>
      <trkpt lat="49.33714" lon="0.86221">
        <ele>128</ele>
        <time>2020-05-11T07:59:21Z</time>
      </trkpt>
      <trkpt lat="49.33715" lon="0.86216">
        <ele>128</ele>
        <time>2020-05-11T07:59:22Z</time>
      </trkpt>
      <trkpt lat="49.33716" lon="0.86213">
        <ele>128</ele>
        <time>2020-05-11T07:59:23Z</time>
      </trkpt>
      <trkpt lat="49.33715" lon="0.86181">
        <ele>123</ele>
        <time>2020-05-17T07:09:53Z</time>
      </trkpt>
      <trkpt lat="49.33719" lon="0.86092">
        <ele>125</ele>
      </trkpt>
      <trkpt lat="49.33983" lon="0.86044">
        <ele>126</ele>
        <time>2020-05-17T07:09:59Z</time>
      </trkpt>
      <trkpt lat="49.34007" lon="0.86038">
        <ele>126</ele>
        <time>2020-05-17T07:10:06Z</time>
      </trkpt>
      <trkpt lat="49.34038" lon="0.86034">
        <ele>125</ele>
        <time>2020-05-17T07:10:14Z</time>
      </trkpt>
      <trkpt lat="49.34066" lon="0.86028">
        <ele>124</ele>
        <time>2020-05-17T07:10:22Z</time>
      </trkpt>
      <trkpt lat="49.34093" lon="0.86022">
        <ele>124</ele>
        <time>2020-05-17T07:10:30Z</time>
      </trkpt>
      <trkpt lat="49.34122" lon="0.86016">
        <ele>124</ele>
        <time>2020-05-17T07:10:38Z</time>
      </trkpt>
      <trkpt lat="49.34148" lon="0.86011">
        <ele>124</ele>
        <time>2020-05-17T07:10:46Z</time>
      </trkpt>
      <trkpt lat="49.34173" lon="0.86006">
        <ele>123</ele>
        <time>2020-05-17T07:10:53Z</time>
      </trkpt>
      <trkpt lat="49.34202" lon="0.86">
        <ele>122</ele>
        <time>2020-05-17T07:11:01Z</time>
      </trkpt>
      <trkpt lat="49.3423" lon="0.85995">
        <ele>121</ele>
        <time>2020-05-17T07:11:09Z</time>
      </trkpt>
      <trkpt lat="49.3426" lon="0.85989">
        <ele>119</ele>
        <time>2020-05-17T07:11:17Z</time>
      </trkpt>
      <trkpt lat="49.34289" lon="0.85985">
        <ele>116</ele>
        <time>2020-05-17T07:11:23Z</time>
      </trkpt>
      <trkpt lat="49.34321" lon="0.85978">
        <ele>114</ele>
        <time>2020-05-17T07:11:28Z</time>
      </trkpt>
      <trkpt lat="49.34349" lon="0.85972">
        <ele>114</ele>
        <time>2020-05-17T07:11:33Z</time>
      </trkpt>
      <trkpt lat="49.34356" lon="0.85971">
        <ele>116</ele>
        <time>2020-05-17T07:11:35Z</time>
      </trkpt>
      <trkpt lat="49.34386" lon="0.85964">
        <ele>119</ele>
        <time>2020-05-17T07:11:45Z</time>
      </trkpt>
      <trkpt lat="49.34404" lon="0.85961">
        <ele>121</ele>
        <time>2020-05-17T07:11:51Z</time>
      </trkpt>
      <trkpt lat="49.34425" lon="0.85955">
        <ele>122</ele>
        <time>2020-05-17T07:11:58Z</time>
      </trkpt>
      <trkpt lat="49.34434" lon="0.85947">
        <ele>122</ele>
        <time>2020-05-17T07:12:04Z</time>
      </trkpt>
      <trkpt lat="49.34435" lon="0.85942">
        <ele>122</ele>
        <time>2020-05-17T07:12:10Z</time>
      </trkpt>
      <trkpt lat="49.34439" lon="0.8594">
        <ele>122</ele>
        <time>2020-05-17T07:12:19Z</time>
      </trkpt>
      <trkpt lat="49.34437" lon="0.85939">
        <ele>122</ele>
        <time>2020-05-17T07:12:26Z</time>
      </trkpt>
      <trkpt lat="49.34436" lon="0.85938">
        <ele>122</ele>
        <time>2020-05-17T07:12:32Z</time>
      </trkpt>
      <trkpt lat="49.3444" lon="0.85936">
        <ele>122</ele>
        <time>2020-05-17T07:12:42Z</time>
      </trkpt>
      <trkpt lat="49.34442" lon="0.85936">
        <ele>122</ele>
        <time>2020-05-17T07:12:46Z</time>
      </trkpt>
      <trkpt lat="49.34445" lon="0.85932">
        <ele>122</ele>
        <time>2020-05-17T07:12:51Z</time>
      </trkpt>
      <trkpt lat="49.34445" lon="0.8593">
        <ele>122</ele>
        <time>2020-05-17T07:12:52Z</time>
      </trkpt>
      <trkpt lat="49.34446" lon="0.85928">
        <ele>122</ele>
        <time>2020-05-17T07:12:53Z</time>
      </trkpt>
      <trkpt lat="49.34446" lon="0.85926">
        <ele>122</ele>
        <time>2020-05-17T07:12:54Z</time>
      </trkpt>
      <trkpt lat="49.34446" lon="0.85924">
        <ele>122</ele>
        <time>2020-05-17T07:12:55Z</time>
      </trkpt>
      <trkpt lat="49.34447" lon="0.85921">
        <ele>122</ele>
        <time>2020-05-17T07:12:56Z</time>
      </trkpt>
      <trkpt lat="49.34447" lon="0.85918">
        <ele>122</ele>
        <time>2020-05-17T07:12:57Z</time>
      </trkpt>
      <trkpt lat="49.34447" lon="0.85916">
        <ele>122</ele>
        <time>2020-05-17T07:12:58Z</time>
      </trkpt>
      <trkpt lat="49.34449" lon="0.85897">
        <ele>123</ele>
        <time>2020-05-17T07:13:05Z</time>
      </trkpt>
      <trkpt lat="49.3445" lon="0.8588">
        <ele>123</ele>
        <time>2020-05-17T07:13:10Z</time>
      </trkpt>
      <trkpt lat="49.34451" lon="0.85876">
        <ele>123</ele>
        <time>2020-05-17T07:13:11Z</time>
      </trkpt>
      <trkpt lat="49.34452" lon="0.85873">
        <ele>123</ele>
        <time>2020-05-17T07:13:12Z</time>
      </trkpt>
      <trkpt lat="49.34452" lon="0.85869">
        <ele>124</ele>
        <time>2020-05-17T07:13:13Z</time>
      </trkpt>
      <trkpt lat="49.34453" lon="0.85865">
        <ele>124</ele>
        <time>2020-05-17T07:13:14Z</time>
      </trkpt>
      <trkpt lat="49.34453" lon="0.85862">
        <ele>124</ele>
        <time>2020-05-17T07:13:15Z</time>
      </trkpt>
      <trkpt lat="49.34453" lon="0.85859">
        <ele>124</ele>
        <time>2020-05-17T07:13:16Z</time>
      </trkpt>
      <trkpt lat="49.34454" lon="0.85856">
        <ele>124</ele>
        <time>2020-05-17T07:13:17Z</time>
      </trkpt>
      <trkpt lat="49.34455" lon="0.85853">
        <ele>124</ele>
        <time>2020-05-17T07:13:18Z</time>
      </trkpt>
      <trkpt lat="49.34457" lon="0.8585">
        <ele>124</ele>
        <time>2020-05-17T07:13:19Z</time>
      </trkpt>
      <trkpt lat="49.34462" lon="0.85831">
        <ele>124</ele>
        <time>2020-05-17T07:13:24Z</time>
      </trkpt>
      <trkpt lat="49.34464" lon="0.85829">
        <ele>124</ele>
        <time>2020-05-17T07:13:25Z</time>
      </trkpt>
      <trkpt lat="49.34472" lon="0.85828">
        <ele>125</ele>
        <time>2020-05-17T07:13:30Z</time>
      </trkpt>
      <trkpt lat="49.34474" lon="0.85832">
        <ele>125</ele>
        <time>2020-05-17T07:13:32Z</time>
      </trkpt>
      <trkpt lat="49.34486" lon="0.85836">
        <ele>125</ele>
        <time>2020-05-17T07:13:38Z</time>
      </trkpt>
      <trkpt lat="49.3449" lon="0.85836">
        <ele>125</ele>
        <time>2020-05-17T07:13:40Z</time>
      </trkpt>
      <trkpt lat="49.34505" lon="0.85847">
        <ele>125</ele>
        <time>2020-05-17T07:13:46Z</time>
      </trkpt>
      <trkpt lat="49.34519" lon="0.85862">
        <ele>125</ele>
        <time>2020-05-17T07:13:53Z</time>
      </trkpt>
      <trkpt lat="49.34521" lon="0.85867">
        <ele>125</ele>
        <time>2020-05-17T07:13:55Z</time>
      </trkpt>
      <trkpt lat="49.34534" lon="0.85887">
        <ele>125</ele>
        <time>2020-05-17T07:14:04Z</time>
      </trkpt>
      <trkpt lat="49.34546" lon="0.85916">
        <ele>125</ele>
        <time>2020-05-17T07:14:12Z</time>
      </trkpt>
      <trkpt lat="49.3455" lon="0.8592">
        <ele>125</ele>
        <time>2020-05-17T07:14:14Z</time>
      </trkpt>
      <trkpt lat="49.34552" lon="0.85921">
        <ele>125</ele>
        <time>2020-05-17T07:14:15Z</time>
      </trkpt>
      <trkpt lat="49.34554" lon="0.85921">
        <ele>125</ele>
        <time>2020-05-17T07:14:16Z</time>
      </trkpt>
      <trkpt lat="49.34556" lon="0.85923">
        <ele>125</ele>
        <time>2020-05-17T07:14:17Z</time>
      </trkpt>
      <trkpt lat="49.34558" lon="0.85925">
        <ele>125</ele>
        <time>2020-05-17T07:14:18Z</time>
      </trkpt>
      <trkpt lat="49.3456" lon="0.85928">
        <ele>125</ele>
        <time>2020-05-17T07:14:19Z</time>
      </trkpt>
      <trkpt lat="49.34561" lon="0.85931">
        <ele>125</ele>
        <time>2020-05-17T07:14:20Z</time>
      </trkpt>
      <trkpt lat="49.34563" lon="0.85935">
        <ele>125</ele>
        <time>2020-05-17T07:14:21Z</time>
      </trkpt>
      <trkpt lat="49.34567" lon="0.85943">
        <ele>125</ele>
        <time>2020-05-17T07:14:23Z</time>
      </trkpt>
      <trkpt lat="49.34569" lon="0.85945">
        <ele>125</ele>
        <time>2020-05-17T07:14:24Z</time>
      </trkpt>
      <trkpt lat="49.34571" lon="0.85947">
        <ele>125</ele>
        <time>2020-05-17T07:14:25Z</time>
      </trkpt>
      <trkpt lat="49.34574" lon="0.8595">
        <ele>124</ele>
        <time>2020-05-17T07:14:26Z</time>
      </trkpt>
      <trkpt lat="49.34577" lon="0.85954">
        <ele>124</ele>
        <time>2020-05-17T07:14:27Z</time>
      </trkpt>
      <trkpt lat="49.3458" lon="0.85961">
        <ele>124</ele>
        <time>2020-05-17T07:14:29Z</time>
      </trkpt>
      <trkpt lat="49.34585" lon="0.85979">
        <ele>123</ele>
        <time>2020-05-17T07:14:33Z</time>
      </trkpt>
      <trkpt lat="49.34592" lon="0.86006">
        <ele>123</ele>
        <time>2020-05-17T07:14:40Z</time>
      </trkpt>
      <trkpt lat="49.34594" lon="0.86019">
        <ele>122</ele>
        <time>2020-05-17T07:14:43Z</time>
      </trkpt>
      <trkpt lat="49.34591" lon="0.86042">
        <ele>122</ele>
        <time>2020-05-17T07:14:48Z</time>
      </trkpt>
      <trkpt lat="49.34585" lon="0.86068">
        <ele>121</ele>
        <time>2020-05-17T07:14:55Z</time>
      </trkpt>
      <trkpt lat="49.34569" lon="0.86102">
        <ele>121</ele>
        <time>2020-05-17T07:15:04Z</time>
      </trkpt>
      <trkpt lat="49.34562" lon="0.86128">
        <ele>120</ele>
        <time>2020-05-17T07:15:11Z</time>
      </trkpt>
      <trkpt lat="49.34551" lon="0.86147">
        <ele>120</ele>
        <time>2020-05-17T07:15:17Z</time>
      </trkpt>
      <trkpt lat="49.3455" lon="0.86159">
        <ele>120</ele>
        <time>2020-05-17T07:15:21Z</time>
      </trkpt>
      <trkpt lat="49.34545" lon="0.86177">
        <ele>120</ele>
        <time>2020-05-17T07:15:25Z</time>
      </trkpt>
      <trkpt lat="49.34543" lon="0.86198">
        <ele>119</ele>
        <time>2020-05-17T07:15:30Z</time>
      </trkpt>
      <trkpt lat="49.34545" lon="0.86225">
        <ele>117</ele>
        <time>2020-05-17T07:15:37Z</time>
      </trkpt>
      <trkpt lat="49.34539" lon="0.86239">
        <ele>117</ele>
        <time>2020-05-17T07:15:41Z</time>
      </trkpt>
      <trkpt lat="49.3452" lon="0.86261">
        <ele>116</ele>
        <time>2020-05-17T07:15:48Z</time>
      </trkpt>
      <trkpt lat="49.34517" lon="0.86264">
        <ele>116</ele>
        <time>2020-05-17T07:15:49Z</time>
      </trkpt>
      <trkpt lat="49.34511" lon="0.86289">
        <ele>114</ele>
        <time>2020-05-17T07:15:55Z</time>
      </trkpt>
      <trkpt lat="49.34504" lon="0.86308">
        <ele>114</ele>
        <time>2020-05-17T07:15:59Z</time>
      </trkpt>
      <trkpt lat="49.34503" lon="0.86336">
        <ele>111</ele>
        <time>2020-05-17T07:16:05Z</time>
      </trkpt>
      <trkpt lat="49.34501" lon="0.86345">
        <ele>111</ele>
        <time>2020-05-17T07:16:07Z</time>
      </trkpt>
      <trkpt lat="49.34503" lon="0.86383">
        <ele>109</ele>
        <time>2020-05-17T07:16:15Z</time>
      </trkpt>
      <trkpt lat="49.34498" lon="0.86415">
        <ele>108</ele>
        <time>2020-05-17T07:16:21Z</time>
      </trkpt>
      <trkpt lat="49.34489" lon="0.86432">
        <ele>107</ele>
        <time>2020-05-17T07:16:26Z</time>
      </trkpt>
      <trkpt lat="49.34486" lon="0.86434">
        <ele>107</ele>
        <time>2020-05-17T07:16:27Z</time>
      </trkpt>
      <trkpt lat="49.34476" lon="0.8646">
        <ele>105</ele>
        <time>2020-05-17T07:16:33Z</time>
      </trkpt>
      <trkpt lat="49.34464" lon="0.86472">
        <ele>103</ele>
        <time>2020-05-17T07:16:36Z</time>
      </trkpt>
      <trkpt lat="49.34455" lon="0.86473">
        <ele>102</ele>
        <time>2020-05-17T07:16:38Z</time>
      </trkpt>
      <trkpt lat="49.3443" lon="0.86466">
        <ele>102</ele>
        <time>2020-05-17T07:16:45Z</time>
      </trkpt>
      <trkpt lat="49.34422" lon="0.86468">
        <ele>101</ele>
        <time>2020-05-17T07:16:47Z</time>
      </trkpt>
      <trkpt lat="49.34387" lon="0.86468">
        <ele>100</ele>
        <time>2020-05-17T07:16:55Z</time>
      </trkpt>
      <trkpt lat="49.34368" lon="0.86458">
        <ele>100</ele>
        <time>2020-05-17T07:17:01Z</time>
      </trkpt>
      <trkpt lat="49.34356" lon="0.86457">
        <ele>101</ele>
        <time>2020-05-17T07:17:06Z</time>
      </trkpt>
      <trkpt lat="49.34351" lon="0.86456">
        <ele>102</ele>
        <time>2020-05-17T07:17:08Z</time>
      </trkpt>
      <trkpt lat="49.34341" lon="0.86456">
        <ele>102</ele>
        <time>2020-05-17T07:17:12Z</time>
      </trkpt>
      <trkpt lat="49.34327" lon="0.86469">
        <ele>101</ele>
        <time>2020-05-17T07:17:17Z</time>
      </trkpt>
      <trkpt lat="49.34324" lon="0.86469">
        <ele>101</ele>
        <time>2020-05-17T07:17:18Z</time>
      </trkpt>
      <trkpt lat="49.34321" lon="0.86468">
        <ele>101</ele>
        <time>2020-05-17T07:17:19Z</time>
      </trkpt>
      <trkpt lat="49.34318" lon="0.86467">
        <ele>101</ele>
        <time>2020-05-17T07:17:20Z</time>
      </trkpt>
      <trkpt lat="49.34315" lon="0.86466">
        <ele>101</ele>
        <time>2020-05-17T07:17:21Z</time>
      </trkpt>
      <trkpt lat="49.34312" lon="0.86467">
        <ele>101</ele>
        <time>2020-05-17T07:17:22Z</time>
      </trkpt>
      <trkpt lat="49.3431" lon="0.86468">
        <ele>101</ele>
        <time>2020-05-17T07:17:23Z</time>
      </trkpt>
      <trkpt lat="49.34309" lon="0.8647">
        <ele>101</ele>
        <time>2020-05-17T07:17:24Z</time>
      </trkpt>
      <trkpt lat="49.34305" lon="0.86479">
        <ele>100</ele>
        <time>2020-05-17T07:17:27Z</time>
      </trkpt>
      <trkpt lat="49.34304" lon="0.86482">
        <ele>100</ele>
        <time>2020-05-17T07:17:28Z</time>
      </trkpt>
      <trkpt lat="49.34301" lon="0.86485">
        <ele>100</ele>
        <time>2020-05-17T07:17:29Z</time>
      </trkpt>
      <trkpt lat="49.34291" lon="0.86502">
        <ele>99</ele>
        <time>2020-05-17T07:17:35Z</time>
      </trkpt>
      <trkpt lat="49.34273" lon="0.86529">
        <ele>99</ele>
        <time>2020-05-17T07:17:43Z</time>
      </trkpt>
      <trkpt lat="49.34262" lon="0.86546">
        <ele>99</ele>
        <time>2020-05-17T07:17:49Z</time>
      </trkpt>
      <trkpt lat="49.34261" lon="0.86568">
        <ele>99</ele>
        <time>2020-05-17T07:17:55Z</time>
      </trkpt>
      <trkpt lat="49.3426" lon="0.86583">
        <ele>97</ele>
        <time>2020-05-17T07:17:57Z</time>
      </trkpt>
      <trkpt lat="49.34252" lon="0.86625">
        <ele>97</ele>
        <time>2020-05-17T07:18:02Z</time>
      </trkpt>
      <trkpt lat="49.34249" lon="0.86639">
        <ele>97</ele>
        <time>2020-05-17T07:18:05Z</time>
      </trkpt>
      <trkpt lat="49.34255" lon="0.86668">
        <ele>97</ele>
        <time>2020-05-17T07:18:10Z</time>
      </trkpt>
      <trkpt lat="49.3426" lon="0.86684">
        <ele>97</ele>
        <time>2020-05-17T07:18:13Z</time>
      </trkpt>
      <trkpt lat="49.34276" lon="0.86718">
        <ele>96</ele>
        <time>2020-05-17T07:18:20Z</time>
      </trkpt>
      <trkpt lat="49.34282" lon="0.86751">
        <ele>96</ele>
        <time>2020-05-17T07:18:26Z</time>
      </trkpt>
      <trkpt lat="49.34284" lon="0.86774">
        <ele>96</ele>
        <time>2020-05-17T07:18:31Z</time>
      </trkpt>
      <trkpt lat="49.34285" lon="0.86781">
        <ele>96</ele>
        <time>2020-05-17T07:18:33Z</time>
      </trkpt>
      <trkpt lat="49.34286" lon="0.86797">
        <ele>95</ele>
        <time>2020-05-17T07:18:38Z</time>
      </trkpt>
      <trkpt lat="49.34289" lon="0.86816">
        <ele>95</ele>
        <time>2020-05-17T07:18:43Z</time>
      </trkpt>
      <trkpt lat="49.34287" lon="0.86843">
        <ele>95</ele>
        <time>2020-05-17T07:18:51Z</time>
      </trkpt>
      <trkpt lat="49.34288" lon="0.86865">
        <ele>95</ele>
        <time>2020-05-17T07:18:57Z</time>
      </trkpt>
      <trkpt lat="49.34289" lon="0.86866">
        <ele>95</ele>
        <time>2020-05-17T07:18:58Z</time>
      </trkpt>
      <trkpt lat="49.34293" lon="0.86868">
        <ele>94</ele>
        <time>2020-05-17T07:19:01Z</time>
      </trkpt>
      <trkpt lat="49.34295" lon="0.86873">
        <ele>93</ele>
        <time>2020-05-17T07:19:03Z</time>
      </trkpt>
      <trkpt lat="49.34298" lon="0.86881">
        <ele>94</ele>
        <time>2020-05-17T07:19:08Z</time>
      </trkpt>
      <trkpt lat="49.343" lon="0.86883">
        <ele>94</ele>
        <time>2020-05-17T07:19:14Z</time>
      </trkpt>
      <trkpt lat="49.34301" lon="0.86884">
        <ele>94</ele>
        <time>2020-05-17T07:19:23Z</time>
      </trkpt>
      <trkpt lat="49.34301" lon="0.86886">
        <ele>94</ele>
        <time>2020-05-17T07:19:29Z</time>
      </trkpt>
      <trkpt lat="49.34306" lon="0.86899">
        <ele>94</ele>
        <time>2020-05-17T07:19:34Z</time>
      </trkpt>
      <trkpt lat="49.34317" lon="0.86906">
        <ele>94</ele>
        <time>2020-05-17T07:19:40Z</time>
      </trkpt>
      <trkpt lat="49.34323" lon="0.86903">
        <ele>95</ele>
        <time>2020-05-17T07:19:43Z</time>
      </trkpt>
      <trkpt lat="49.34326" lon="0.86892">
        <ele>97</ele>
        <time>2020-05-17T07:19:47Z</time>
      </trkpt>
      <trkpt lat="49.34327" lon="0.86891">
        <ele>97</ele>
        <time>2020-05-17T07:19:48Z</time>
      </trkpt>
      <trkpt lat="49.3433" lon="0.86867">
        <ele>100</ele>
        <time>2020-05-17T07:19:56Z</time>
      </trkpt>
      <trkpt lat="49.34332" lon="0.86855">
        <ele>102</ele>
        <time>2020-05-17T07:20:02Z</time>
      </trkpt>
      <trkpt lat="49.34333" lon="0.86845">
        <ele>103</ele>
        <time>2020-05-17T07:20:07Z</time>
      </trkpt>
      <trkpt lat="49.34337" lon="0.8683">
        <ele>106</ele>
        <time>2020-05-17T07:20:14Z</time>
      </trkpt>
      <trkpt lat="49.34337" lon="0.86827">
        <ele>106</ele>
        <time>2020-05-17T07:20:15Z</time>
      </trkpt>
      <trkpt lat="49.34337" lon="0.86825">
        <ele>107</ele>
        <time>2020-05-17T07:20:16Z</time>
      </trkpt>
      <trkpt lat="49.34338" lon="0.86822">
        <ele>107</ele>
        <time>2020-05-17T07:20:17Z</time>
      </trkpt>
      <trkpt lat="49.34338" lon="0.86819">
        <ele>108</ele>
        <time>2020-05-17T07:20:18Z</time>
      </trkpt>
      <trkpt lat="49.34339" lon="0.86817">
        <ele>108</ele>
        <time>2020-05-17T07:20:19Z</time>
      </trkpt>
      <trkpt lat="49.34339" lon="0.86815">
        <ele>108</ele>
        <time>2020-05-17T07:20:20Z</time>
      </trkpt>
      <trkpt lat="49.34343" lon="0.86798">
        <ele>111</ele>
        <time>2020-05-17T07:20:27Z</time>
      </trkpt>
      <trkpt lat="49.34348" lon="0.86775">
        <ele>113</ele>
        <time>2020-05-17T07:20:36Z</time>
      </trkpt>
      <trkpt lat="49.34352" lon="0.86752">
        <ele>115</ele>
        <time>2020-05-17T07:20:44Z</time>
      </trkpt>
      <trkpt lat="49.34356" lon="0.86727">
        <ele>116</ele>
        <time>2020-05-17T07:20:52Z</time>
      </trkpt>
      <trkpt lat="49.34357" lon="0.86723">
        <ele>116</ele>
        <time>2020-05-17T07:20:53Z</time>
      </trkpt>
      <trkpt lat="49.34359" lon="0.8672">
        <ele>116</ele>
        <time>2020-05-17T07:20:54Z</time>
      </trkpt>
      <trkpt lat="49.34361" lon="0.86717">
        <ele>116</ele>
        <time>2020-05-17T07:20:55Z</time>
      </trkpt>
      <trkpt lat="49.34362" lon="0.86714">
        <ele>116</ele>
        <time>2020-05-17T07:20:56Z</time>
      </trkpt>
      <trkpt lat="49.3437" lon="0.86709">
        <ele>118</ele>
        <time>2020-05-17T07:21:02Z</time>
      </trkpt>
      <trkpt lat="49.34387" lon="0.8671">
        <ele>119</ele>
        <time>2020-05-17T07:21:12Z</time>
      </trkpt>
      <trkpt lat="49.3439" lon="0.8671">
        <ele>120</ele>
        <time>2020-05-17T07:21:14Z</time>
      </trkpt>
      <trkpt lat="49.34398" lon="0.86712">
        <ele>120</ele>
        <time>2020-05-17T07:21:22Z</time>
      </trkpt>
      <trkpt lat="49.34401" lon="0.86713">
        <ele>120</ele>
        <time>2020-05-17T07:21:26Z</time>
      </trkpt>
      <trkpt lat="49.34407" lon="0.86717">
        <ele>121</ele>
        <time>2020-05-17T07:21:34Z</time>
      </trkpt>
      <trkpt lat="49.34414" lon="0.86724">
        <ele>121</ele>
        <time>2020-05-17T07:21:43Z</time>
      </trkpt>
      <trkpt lat="49.34417" lon="0.86725">
        <ele>121</ele>
        <time>2020-05-17T07:21:46Z</time>
      </trkpt>
      <trkpt lat="49.34419" lon="0.86726">
        <ele>121</ele>
        <time>2020-05-17T07:21:53Z</time>
      </trkpt>
      <trkpt lat="49.3442" lon="0.86728">
        <ele>121</ele>
        <time>2020-05-17T07:22:07Z</time>
      </trkpt>
      <trkpt lat="49.3442" lon="0.86729">
        <ele>121</ele>
        <time>2020-05-17T07:22:33Z</time>
      </trkpt>
      <trkpt lat="49.34422" lon="0.86726">
        <ele>121</ele>
        <time>2020-05-17T07:22:51Z</time>
      </trkpt>
      <trkpt lat="49.34422" lon="0.86728">
        <ele>121</ele>
        <time>2020-05-17T07:23:06Z</time>
      </trkpt>
      <trkpt lat="49.34422" lon="0.86728">
        <ele>121</ele>
        <time>2020-05-17T07:23:13Z</time>
      </trkpt>
      <trkpt lat="49.34419" lon="0.86728">
        <ele>121</ele>
        <time>2020-05-17T07:23:27Z</time>
      </trkpt>
      <trkpt lat="49.34418" lon="0.86728">
        <ele>121</ele>
        <time>2020-05-17T07:23:39Z</time>
      </trkpt>
      <trkpt lat="49.34423" lon="0.86736">
        <ele>121</ele>
        <time>2020-05-17T07:23:53Z</time>
      </trkpt>
      <trkpt lat="49.34436" lon="0.86756">
        <ele>121</ele>
        <time>2020-05-17T07:24:00Z</time>
      </trkpt>
      <trkpt lat="49.34449" lon="0.86783">
        <ele>121</ele>
        <time>2020-05-17T07:24:07Z</time>
      </trkpt>
      <trkpt lat="49.34464" lon="0.86818">
        <ele>121</ele>
        <time>2020-05-17T07:24:17Z</time>
      </trkpt>
      <trkpt lat="49.34469" lon="0.86846">
        <ele>121</ele>
        <time>2020-05-17T07:24:25Z</time>
      </trkpt>
      <trkpt lat="49.34477" lon="0.8688">
        <ele>121</ele>
        <time>2020-05-17T07:24:32Z</time>
      </trkpt>
      <trkpt lat="49.34485" lon="0.86925">
        <ele>119</ele>
        <time>2020-05-17T07:24:40Z</time>
      </trkpt>
      <trkpt lat="49.34488" lon="0.86961">
        <ele>119</ele>
        <time>2020-05-17T07:24:48Z</time>
      </trkpt>
      <trkpt lat="49.34485" lon="0.86988">
        <ele>119</ele>
        <time>2020-05-17T07:24:54Z</time>
      </trkpt>
      <trkpt lat="49.34481" lon="0.87016">
        <ele>119</ele>
        <time>2020-05-17T07:25:01Z</time>
      </trkpt>
      <trkpt lat="49.3448" lon="0.8704">
        <ele>119</ele>
        <time>2020-05-17T07:25:07Z</time>
      </trkpt>
      <trkpt lat="49.34479" lon="0.87073">
        <ele>118</ele>
        <time>2020-05-17T07:25:15Z</time>
      </trkpt>
      <trkpt lat="49.34476" lon="0.87103">
        <ele>118</ele>
        <time>2020-05-17T07:25:21Z</time>
      </trkpt>
      <trkpt lat="49.34471" lon="0.87142">
        <ele>117</ele>
        <time>2020-05-17T07:25:28Z</time>
      </trkpt>
      <trkpt lat="49.3447" lon="0.87173">
        <ele>116</ele>
        <time>2020-05-17T07:25:34Z</time>
      </trkpt>
      <trkpt lat="49.34466" lon="0.87211">
        <ele>116</ele>
        <time>2020-05-17T07:25:40Z</time>
      </trkpt>
      <trkpt lat="49.34461" lon="0.87244">
        <ele>114</ele>
        <time>2020-05-17T07:25:44Z</time>
      </trkpt>
      <trkpt lat="49.34459" lon="0.87254">
        <ele>113</ele>
        <time>2020-05-17T07:25:45Z</time>
      </trkpt>
      <trkpt lat="49.34457" lon="0.87265">
        <ele>112</ele>
        <time>2020-05-17T07:25:46Z</time>
      </trkpt>
      <trkpt lat="49.34457" lon="0.87275">
        <ele>112</ele>
        <time>2020-05-17T07:25:47Z</time>
      </trkpt>
      <trkpt lat="49.34457" lon="0.87284">
        <ele>111</ele>
        <time>2020-05-17T07:25:48Z</time>
      </trkpt>
      <trkpt lat="49.34458" lon="0.87293">
        <ele>111</ele>
        <time>2020-05-17T07:25:49Z</time>
      </trkpt>
      <trkpt lat="49.34459" lon="0.87301">
        <ele>111</ele>
        <time>2020-05-17T07:25:50Z</time>
      </trkpt>
      <trkpt lat="49.34461" lon="0.87308">
        <ele>111</ele>
        <time>2020-05-17T07:25:51Z</time>
      </trkpt>
      <trkpt lat="49.34466" lon="0.87336">
        <ele>112</ele>
        <time>2020-05-17T07:25:56Z</time>
      </trkpt>
      <trkpt lat="49.3447" lon="0.87362">
        <ele>115</ele>
        <time>2020-05-17T07:26:02Z</time>
      </trkpt>
      <trkpt lat="49.34477" lon="0.87388">
        <ele>116</ele>
        <time>2020-05-17T07:26:10Z</time>
      </trkpt>
      <trkpt lat="49.34483" lon="0.87413">
        <ele>116</ele>
        <time>2020-05-17T07:26:16Z</time>
      </trkpt>
      <trkpt lat="49.34491" lon="0.87446">
        <ele>117</ele>
        <time>2020-05-17T07:26:24Z</time>
      </trkpt>
      <trkpt lat="49.345" lon="0.87482">
        <ele>118</ele>
        <time>2020-05-17T07:26:32Z</time>
      </trkpt>
      <trkpt lat="49.34507" lon="0.87515">
        <ele>119</ele>
        <time>2020-05-17T07:26:40Z</time>
      </trkpt>
      <trkpt lat="49.34515" lon="0.87545">
        <ele>119</ele>
        <time>2020-05-17T07:26:47Z</time>
      </trkpt>
      <trkpt lat="49.34524" lon="0.87572">
        <ele>119</ele>
        <time>2020-05-17T07:26:55Z</time>
      </trkpt>
      <trkpt lat="49.34537" lon="0.876">
        <ele>120</ele>
        <time>2020-05-17T07:27:02Z</time>
      </trkpt>
      <trkpt lat="49.34543" lon="0.87627">
        <ele>120</ele>
        <time>2020-05-17T07:27:08Z</time>
      </trkpt>
      <trkpt lat="49.34549" lon="0.87654">
        <ele>118</ele>
        <time>2020-05-17T07:27:13Z</time>
      </trkpt>
      <trkpt lat="49.34551" lon="0.8766">
        <ele>118</ele>
        <time>2020-05-17T07:27:14Z</time>
      </trkpt>
      <trkpt lat="49.34554" lon="0.87666">
        <ele>118</ele>
        <time>2020-05-17T07:27:15Z</time>
      </trkpt>
      <trkpt lat="49.34556" lon="0.87671">
        <ele>117</ele>
        <time>2020-05-17T07:27:16Z</time>
      </trkpt>
      <trkpt lat="49.3456" lon="0.87676">
        <ele>117</ele>
        <time>2020-05-17T07:27:17Z</time>
      </trkpt>
      <trkpt lat="49.34563" lon="0.8768">
        <ele>117</ele>
        <time>2020-05-17T07:27:18Z</time>
      </trkpt>
      <trkpt lat="49.34568" lon="0.87683">
        <ele>117</ele>
        <time>2020-05-17T07:27:19Z</time>
      </trkpt>
      <trkpt lat="49.34572" lon="0.87685">
        <ele>117</ele>
        <time>2020-05-17T07:27:20Z</time>
      </trkpt>
      <trkpt lat="49.34576" lon="0.87686">
        <ele>117</ele>
        <time>2020-05-17T07:27:21Z</time>
      </trkpt>
      <trkpt lat="49.3458" lon="0.87688">
        <ele>117</ele>
        <time>2020-05-17T07:27:22Z</time>
      </trkpt>
      <trkpt lat="49.34603" lon="0.87686">
        <ele>117</ele>
        <time>2020-05-17T07:27:28Z</time>
      </trkpt>
      <trkpt lat="49.34626" lon="0.87688">
        <ele>117</ele>
        <time>2020-05-17T07:27:35Z</time>
      </trkpt>
      <trkpt lat="49.34633" lon="0.87689">
        <ele>119</ele>
        <time>2020-05-17T07:27:37Z</time>
      </trkpt>
      <trkpt lat="49.34653" lon="0.87691">
        <ele>120</ele>
        <time>2020-05-17T07:27:44Z</time>
      </trkpt>
      <trkpt lat="49.34676" lon="0.87692">
        <ele>120</ele>
        <time>2020-05-17T07:27:51Z</time>
      </trkpt>
      <trkpt lat="49.34696" lon="0.87695">
        <ele>120</ele>
        <time>2020-05-17T07:27:56Z</time>
      </trkpt>
      <trkpt lat="49.34699" lon="0.87696">
        <ele>121</ele>
        <time>2020-05-17T07:27:57Z</time>
      </trkpt>
      <trkpt lat="49.34702" lon="0.87698">
        <ele>121</ele>
        <time>2020-05-17T07:27:58Z</time>
      </trkpt>
      <trkpt lat="49.34721" lon="0.87713">
        <ele>122</ele>
        <time>2020-05-17T07:28:05Z</time>
      </trkpt>
      <trkpt lat="49.34735" lon="0.87727">
        <ele>123</ele>
        <time>2020-05-17T07:28:12Z</time>
      </trkpt>
      <trkpt lat="49.34752" lon="0.87736">
        <ele>123</ele>
        <time>2020-05-17T07:28:19Z</time>
      </trkpt>
      <trkpt lat="49.34775" lon="0.87745">
        <ele>123</ele>
        <time>2020-05-17T07:28:27Z</time>
      </trkpt>
      <trkpt lat="49.34784" lon="0.87753">
        <ele>123</ele>
        <time>2020-05-17T07:28:31Z</time>
      </trkpt>
      <trkpt lat="49.34787" lon="0.87756">
        <ele>123</ele>
        <time>2020-05-17T07:28:32Z</time>
      </trkpt>
      <trkpt lat="49.34796" lon="0.8778">
        <ele>122</ele>
        <time>2020-05-17T07:28:37Z</time>
      </trkpt>
      <trkpt lat="49.34799" lon="0.87821">
        <ele>122</ele>
        <time>2020-05-17T07:28:43Z</time>
      </trkpt>
      <trkpt lat="49.348" lon="0.87827">
        <ele>122</ele>
        <time>2020-05-17T07:28:44Z</time>
      </trkpt>
      <trkpt lat="49.34802" lon="0.87833">
        <ele>122</ele>
        <time>2020-05-17T07:28:45Z</time>
      </trkpt>
      <trkpt lat="49.34814" lon="0.87857">
        <ele>122</ele>
        <time>2020-05-17T07:28:51Z</time>
      </trkpt>
      <trkpt lat="49.34816" lon="0.8786">
        <ele>122</ele>
        <time>2020-05-17T07:28:52Z</time>
      </trkpt>
      <trkpt lat="49.34816" lon="0.87863">
        <ele>122</ele>
        <time>2020-05-17T07:28:53Z</time>
      </trkpt>
      <trkpt lat="49.34816" lon="0.87866">
        <ele>122</ele>
        <time>2020-05-17T07:28:54Z</time>
      </trkpt>
      <trkpt lat="49.34817" lon="0.8787">
        <ele>122</ele>
        <time>2020-05-17T07:28:55Z</time>
      </trkpt>
      <trkpt lat="49.34817" lon="0.87874">
        <ele>122</ele>
        <time>2020-05-17T07:28:56Z</time>
      </trkpt>
      <trkpt lat="49.34819" lon="0.87879">
        <ele>122</ele>
        <time>2020-05-17T07:28:57Z</time>
      </trkpt>
      <trkpt lat="49.34822" lon="0.87885">
        <ele>122</ele>
        <time>2020-05-17T07:28:58Z</time>
      </trkpt>
      <trkpt lat="49.34825" lon="0.8789">
        <ele>123</ele>
        <time>2020-05-17T07:28:59Z</time>
      </trkpt>
      <trkpt lat="49.34828" lon="0.87896">
        <ele>123</ele>
        <time>2020-05-17T07:29:00Z</time>
      </trkpt>
      <trkpt lat="49.34847" lon="0.87934">
        <ele>125</ele>
        <time>2020-05-17T07:29:08Z</time>
      </trkpt>
      <trkpt lat="49.34854" lon="0.87956">
        <ele>126</ele>
        <time>2020-05-17T07:29:14Z</time>
      </trkpt>
      <trkpt lat="49.34859" lon="0.8799">
        <ele>126</ele>
        <time>2020-05-17T07:29:22Z</time>
      </trkpt>
      <trkpt lat="49.34861" lon="0.88026">
        <ele>127</ele>
        <time>2020-05-17T07:29:29Z</time>
      </trkpt>
      <trkpt lat="49.3486" lon="0.88076">
        <ele>127</ele>
        <time>2020-05-17T07:29:38Z</time>
      </trkpt>
      <trkpt lat="49.3485" lon="0.88114">
        <ele>127</ele>
        <time>2020-05-17T07:29:46Z</time>
      </trkpt>
      <trkpt lat="49.34845" lon="0.88145">
        <ele>127</ele>
        <time>2020-05-17T07:29:53Z</time>
      </trkpt>
      <trkpt lat="49.34842" lon="0.88164">
        <ele>127</ele>
        <time>2020-05-17T07:29:59Z</time>
      </trkpt>
      <trkpt lat="49.34841" lon="0.88165">
        <ele>127</ele>
        <time>2020-05-17T07:30:00Z</time>
      </trkpt>
      <trkpt lat="49.34831" lon="0.8818">
        <ele>126</ele>
        <time>2020-05-17T07:30:09Z</time>
      </trkpt>
      <trkpt lat="49.3483" lon="0.88182">
        <ele>126</ele>
        <time>2020-05-17T07:30:10Z</time>
      </trkpt>
      <trkpt lat="49.34827" lon="0.88184">
        <ele>126</ele>
        <time>2020-05-17T07:30:11Z</time>
      </trkpt>
      <trkpt lat="49.34824" lon="0.88186">
        <ele>126</ele>
        <time>2020-05-17T07:30:12Z</time>
      </trkpt>
      <trkpt lat="49.34822" lon="0.88189">
        <ele>126</ele>
        <time>2020-05-17T07:30:13Z</time>
      </trkpt>
      <trkpt lat="49.34819" lon="0.88191">
        <ele>126</ele>
        <time>2020-05-17T07:30:14Z</time>
      </trkpt>
      <trkpt lat="49.34806" lon="0.88198">
        <ele>125</ele>
        <time>2020-05-17T07:30:18Z</time>
      </trkpt>
      <trkpt lat="49.34801" lon="0.88198">
        <ele>125</ele>
        <time>2020-05-17T07:30:19Z</time>
      </trkpt>
      <trkpt lat="49.34782" lon="0.88192">
        <ele>122</ele>
        <time>2020-05-17T07:30:25Z</time>
      </trkpt>
      <trkpt lat="49.34778" lon="0.88189">
        <ele>121</ele>
        <time>2020-05-17T07:30:27Z</time>
      </trkpt>
      <trkpt lat="49.34776" lon="0.88191">
        <ele>121</ele>
        <time>2020-05-17T07:30:28Z</time>
      </trkpt>
      <trkpt lat="49.34772" lon="0.88193">
        <ele>120</ele>
        <time>2020-05-17T07:30:29Z</time>
      </trkpt>
      <trkpt lat="49.34771" lon="0.88195">
        <ele>121</ele>
        <time>2020-05-17T07:30:30Z</time>
      </trkpt>
      <trkpt lat="49.34769" lon="0.88197">
        <ele>120</ele>
        <time>2020-05-17T07:30:31Z</time>
      </trkpt>
      <trkpt lat="49.34767" lon="0.88198">
        <ele>122</ele>
        <time>2020-05-17T07:30:32Z</time>
      </trkpt>
      <trkpt lat="49.34765" lon="0.88201">
        <ele>122</ele>
        <time>2020-05-17T07:30:33Z</time>
      </trkpt>
      <trkpt lat="49.34755" lon="0.8821">
        <ele>124</ele>
        <time>2020-05-17T07:30:39Z</time>
      </trkpt>
      <trkpt lat="49.34745" lon="0.88217">
        <ele>124</ele>
        <time>2020-05-17T07:30:45Z</time>
      </trkpt>
      <trkpt lat="49.34732" lon="0.88229">
        <ele>125</ele>
        <time>2020-05-17T07:30:52Z</time>
      </trkpt>
      <trkpt lat="49.34721" lon="0.88245">
        <ele>125</ele>
        <time>2020-05-17T07:31:00Z</time>
      </trkpt>
      <trkpt lat="49.34708" lon="0.88269">
        <ele>125</ele>
        <time>2020-05-17T07:31:07Z</time>
      </trkpt>
      <trkpt lat="49.34703" lon="0.88293">
        <ele>124</ele>
        <time>2020-05-17T07:31:12Z</time>
      </trkpt>
      <trkpt lat="49.347" lon="0.8832">
        <ele>124</ele>
        <time>2020-05-17T07:31:18Z</time>
      </trkpt>
      <trkpt lat="49.34692" lon="0.88345">
        <ele>124</ele>
        <time>2020-05-17T07:31:23Z</time>
      </trkpt>
      <trkpt lat="49.34678" lon="0.88392">
        <ele>124</ele>
        <time>2020-05-17T07:31:31Z</time>
      </trkpt>
      <trkpt lat="49.34676" lon="0.88396">
        <ele>124</ele>
        <time>2020-05-17T07:31:32Z</time>
      </trkpt>
      <trkpt lat="49.34675" lon="0.884">
        <ele>123</ele>
        <time>2020-05-17T07:31:33Z</time>
      </trkpt>
      <trkpt lat="49.34673" lon="0.88404">
        <ele>123</ele>
        <time>2020-05-17T07:31:34Z</time>
      </trkpt>
      <trkpt lat="49.34663" lon="0.88441">
        <ele>122</ele>
        <time>2020-05-17T07:31:41Z</time>
      </trkpt>
      <trkpt lat="49.34663" lon="0.8846">
        <ele>122</ele>
        <time>2020-05-17T07:31:46Z</time>
      </trkpt>
      <trkpt lat="49.34661" lon="0.88472">
        <ele>122</ele>
        <time>2020-05-17T07:31:50Z</time>
      </trkpt>
      <trkpt lat="49.34662" lon="0.88475">
        <ele>122</ele>
        <time>2020-05-17T07:31:51Z</time>
      </trkpt>
      <trkpt lat="49.34662" lon="0.88478">
        <ele>122</ele>
        <time>2020-05-17T07:31:52Z</time>
      </trkpt>
      <trkpt lat="49.34663" lon="0.88484">
        <ele>124</ele>
        <time>2020-05-17T07:31:54Z</time>
      </trkpt>
      <trkpt lat="49.34663" lon="0.88489">
        <ele>125</ele>
        <time>2020-05-17T07:31:55Z</time>
      </trkpt>
      <trkpt lat="49.34662" lon="0.88494">
        <ele>125</ele>
        <time>2020-05-17T07:31:56Z</time>
      </trkpt>
      <trkpt lat="49.34657" lon="0.88529">
        <ele>127</ele>
        <time>2020-05-17T07:32:04Z</time>
      </trkpt>
      <trkpt lat="49.34654" lon="0.8855">
        <ele>127</ele>
        <time>2020-05-17T07:32:11Z</time>
      </trkpt>
      <trkpt lat="49.34648" lon="0.88576">
        <ele>128</ele>
        <time>2020-05-17T07:32:18Z</time>
      </trkpt>
      <trkpt lat="49.34643" lon="0.88599">
        <ele>128</ele>
        <time>2020-05-17T07:32:24Z</time>
      </trkpt>
      <trkpt lat="49.34638" lon="0.88621">
        <ele>128</ele>
        <time>2020-05-17T07:32:30Z</time>
      </trkpt>
      <trkpt lat="49.34633" lon="0.8864">
        <ele>128</ele>
        <time>2020-05-17T07:32:35Z</time>
      </trkpt>
      <trkpt lat="49.34624" lon="0.88673">
        <ele>128</ele>
        <time>2020-05-17T07:32:42Z</time>
      </trkpt>
      <trkpt lat="49.34622" lon="0.88682">
        <ele>127</ele>
        <time>2020-05-17T07:32:44Z</time>
      </trkpt>
      <trkpt lat="49.34611" lon="0.88709">
        <ele>126</ele>
        <time>2020-05-17T07:32:50Z</time>
      </trkpt>
      <trkpt lat="49.34603" lon="0.88742">
        <ele>126</ele>
        <time>2020-05-17T07:32:58Z</time>
      </trkpt>
      <trkpt lat="49.34591" lon="0.88767">
        <ele>125</ele>
        <time>2020-05-17T07:33:06Z</time>
      </trkpt>
      <trkpt lat="49.34582" lon="0.88793">
        <ele>125</ele>
        <time>2020-05-17T07:33:13Z</time>
      </trkpt>
      <trkpt lat="49.34578" lon="0.88798">
        <ele>125</ele>
        <time>2020-05-17T07:33:15Z</time>
      </trkpt>
      <trkpt lat="49.34577" lon="0.88801">
        <ele>125</ele>
        <time>2020-05-17T07:33:16Z</time>
      </trkpt>
      <trkpt lat="49.34574" lon="0.88806">
        <ele>124</ele>
        <time>2020-05-17T07:33:17Z</time>
      </trkpt>
      <trkpt lat="49.34573" lon="0.88811">
        <ele>124</ele>
        <time>2020-05-17T07:33:18Z</time>
      </trkpt>
      <trkpt lat="49.34571" lon="0.88817">
        <ele>124</ele>
        <time>2020-05-17T07:33:19Z</time>
      </trkpt>
      <trkpt lat="49.34567" lon="0.88825">
        <ele>124</ele>
        <time>2020-05-17T07:33:21Z</time>
      </trkpt>
      <trkpt lat="49.34564" lon="0.88827">
        <ele>124</ele>
        <time>2020-05-17T07:33:22Z</time>
      </trkpt>
      <trkpt lat="49.3456" lon="0.88829">
        <ele>123</ele>
        <time>2020-05-17T07:33:23Z</time>
      </trkpt>
      <trkpt lat="49.34558" lon="0.88832">
        <ele>123</ele>
        <time>2020-05-17T07:33:24Z</time>
      </trkpt>
      <trkpt lat="49.34557" lon="0.88836">
        <ele>122</ele>
        <time>2020-05-17T07:33:25Z</time>
      </trkpt>
      <trkpt lat="49.34556" lon="0.8884">
        <ele>121</ele>
        <time>2020-05-17T07:33:26Z</time>
      </trkpt>
      <trkpt lat="49.34556" lon="0.88845">
        <ele>121</ele>
        <time>2020-05-17T07:33:27Z</time>
      </trkpt>
      <trkpt lat="49.34557" lon="0.88849">
        <ele>120</ele>
        <time>2020-05-17T07:33:28Z</time>
      </trkpt>
      <trkpt lat="49.34558" lon="0.88854">
        <ele>120</ele>
        <time>2020-05-17T07:33:29Z</time>
      </trkpt>
      <trkpt lat="49.34558" lon="0.88857">
        <ele>120</ele>
        <time>2020-05-17T07:33:30Z</time>
      </trkpt>
      <trkpt lat="49.34557" lon="0.88861">
        <ele>119</ele>
        <time>2020-05-17T07:33:31Z</time>
      </trkpt>
      <trkpt lat="49.34558" lon="0.88864">
        <ele>119</ele>
        <time>2020-05-17T07:33:32Z</time>
      </trkpt>
      <trkpt lat="49.3456" lon="0.88867">
        <ele>119</ele>
        <time>2020-05-17T07:33:33Z</time>
      </trkpt>
      <trkpt lat="49.34561" lon="0.8887">
        <ele>119</ele>
        <time>2020-05-17T07:33:34Z</time>
      </trkpt>
      <trkpt lat="49.34563" lon="0.88873">
        <ele>119</ele>
        <time>2020-05-17T07:33:35Z</time>
      </trkpt>
      <trkpt lat="49.34565" lon="0.88876">
        <ele>119</ele>
        <time>2020-05-17T07:33:36Z</time>
      </trkpt>
      <trkpt lat="49.34566" lon="0.88879">
        <ele>119</ele>
        <time>2020-05-17T07:33:37Z</time>
      </trkpt>
      <trkpt lat="49.34567" lon="0.88881">
        <ele>119</ele>
        <time>2020-05-17T07:33:38Z</time>
      </trkpt>
      <trkpt lat="49.34569" lon="0.88883">
        <ele>118</ele>
        <time>2020-05-17T07:33:39Z</time>
      </trkpt>
      <trkpt lat="49.34569" lon="0.88889">
        <ele>119</ele>
        <time>2020-05-17T07:33:45Z</time>
      </trkpt>
      <trkpt lat="49.34567" lon="0.88892">
        <ele>119</ele>
        <time>2020-05-17T07:34:05Z</time>
      </trkpt>
      <trkpt lat="49.34572" lon="0.88908">
        <ele>111</ele>
        <time>2020-05-17T07:35:35Z</time>
      </trkpt>
      <trkpt lat="49.34568" lon="0.8891">
        <ele>111</ele>
        <time>2020-05-17T07:35:36Z</time>
      </trkpt>
      <trkpt lat="49.34567" lon="0.88911">
        <ele>117</ele>
        <time>2020-05-17T07:35:37Z</time>
      </trkpt>
      <trkpt lat="49.34563" lon="0.88911">
        <ele>116</ele>
        <time>2020-05-17T07:35:38Z</time>
      </trkpt>
      <trkpt lat="49.3456" lon="0.8891">
        <ele>115</ele>
        <time>2020-05-17T07:35:39Z</time>
      </trkpt>
      <trkpt lat="49.34557" lon="0.8891">
        <ele>115</ele>
        <time>2020-05-17T07:35:40Z</time>
      </trkpt>
      <trkpt lat="49.34546" lon="0.88909">
        <ele>112</ele>
        <time>2020-05-17T07:35:43Z</time>
      </trkpt>
      <trkpt lat="49.34535" lon="0.88905">
        <ele>109</ele>
        <time>2020-05-17T07:35:47Z</time>
      </trkpt>
      <trkpt lat="49.3453" lon="0.88902">
        <ele>107</ele>
        <time>2020-05-17T07:35:50Z</time>
      </trkpt>
      <trkpt lat="49.34528" lon="0.88903">
        <ele>107</ele>
        <time>2020-05-17T07:35:52Z</time>
      </trkpt>
      <trkpt lat="49.34525" lon="0.88907">
        <ele>107</ele>
        <time>2020-05-17T07:35:54Z</time>
      </trkpt>
      <trkpt lat="49.34522" lon="0.88909">
        <ele>106</ele>
        <time>2020-05-17T07:35:55Z</time>
      </trkpt>
      <trkpt lat="49.3452" lon="0.88911">
        <ele>106</ele>
        <time>2020-05-17T07:35:56Z</time>
      </trkpt>
      <trkpt lat="49.34519" lon="0.88913">
        <ele>106</ele>
        <time>2020-05-17T07:35:57Z</time>
      </trkpt>
      <trkpt lat="49.34518" lon="0.88916">
        <ele>106</ele>
        <time>2020-05-17T07:35:58Z</time>
      </trkpt>
      <trkpt lat="49.34517" lon="0.88918">
        <ele>107</ele>
        <time>2020-05-17T07:35:59Z</time>
      </trkpt>
      <trkpt lat="49.34516" lon="0.8892">
        <ele>107</ele>
        <time>2020-05-17T07:36:00Z</time>
      </trkpt>
      <trkpt lat="49.34514" lon="0.88921">
        <ele>108</ele>
        <time>2020-05-17T07:36:01Z</time>
      </trkpt>
      <trkpt lat="49.34512" lon="0.88922">
        <ele>108</ele>
        <time>2020-05-17T07:36:02Z</time>
      </trkpt>
      <trkpt lat="49.3451" lon="0.88923">
        <ele>109</ele>
        <time>2020-05-17T07:36:03Z</time>
      </trkpt>
      <trkpt lat="49.34504" lon="0.88927">
        <ele>110</ele>
        <time>2020-05-17T07:36:06Z</time>
      </trkpt>
      <trkpt lat="49.34481" lon="0.88936">
        <ele>113</ele>
        <time>2020-05-17T07:36:14Z</time>
      </trkpt>
      <trkpt lat="49.34463" lon="0.88951">
        <ele>113</ele>
        <time>2020-05-17T07:36:21Z</time>
      </trkpt>
      <trkpt lat="49.34456" lon="0.88965">
        <ele>115</ele>
        <time>2020-05-17T07:36:27Z</time>
      </trkpt>
      <trkpt lat="49.34446" lon="0.88984">
        <ele>116</ele>
        <time>2020-05-17T07:36:35Z</time>
      </trkpt>
      <trkpt lat="49.34435" lon="0.89008">
        <ele>116</ele>
        <time>2020-05-17T07:36:43Z</time>
      </trkpt>
      <trkpt lat="49.34427" lon="0.89031">
        <ele>116</ele>
        <time>2020-05-17T07:36:51Z</time>
      </trkpt>
      <trkpt lat="49.34417" lon="0.8906">
        <ele>116</ele>
        <time>2020-05-17T07:36:59Z</time>
      </trkpt>
      <trkpt lat="49.3441" lon="0.89093">
        <ele>116</ele>
        <time>2020-05-17T07:37:07Z</time>
      </trkpt>
      <trkpt lat="49.34409" lon="0.89097">
        <ele>117</ele>
        <time>2020-05-17T07:37:08Z</time>
      </trkpt>
      <trkpt lat="49.34413" lon="0.89133">
        <ele>119</ele>
        <time>2020-05-17T07:37:17Z</time>
      </trkpt>
      <trkpt lat="49.34419" lon="0.89157">
        <ele>120</ele>
        <time>2020-05-17T07:37:25Z</time>
      </trkpt>
      <trkpt lat="49.34423" lon="0.89178">
        <ele>120</ele>
        <time>2020-05-17T07:37:32Z</time>
      </trkpt>
      <trkpt lat="49.34425" lon="0.89202">
        <ele>120</ele>
        <time>2020-05-17T07:37:38Z</time>
      </trkpt>
      <trkpt lat="49.34429" lon="0.89229">
        <ele>119</ele>
        <time>2020-05-17T07:37:44Z</time>
      </trkpt>
      <trkpt lat="49.34431" lon="0.89253">
        <ele>118</ele>
        <time>2020-05-17T07:37:49Z</time>
      </trkpt>
      <trkpt lat="49.34436" lon="0.89288">
        <ele>118</ele>
        <time>2020-05-17T07:37:57Z</time>
      </trkpt>
      <trkpt lat="49.34442" lon="0.8931">
        <ele>118</ele>
        <time>2020-05-17T07:38:02Z</time>
      </trkpt>
      <trkpt lat="49.34445" lon="0.89324">
        <ele>119</ele>
        <time>2020-05-17T07:38:05Z</time>
      </trkpt>
      <trkpt lat="49.34456" lon="0.89357">
        <ele>121</ele>
        <time>2020-05-17T07:38:12Z</time>
      </trkpt>
      <trkpt lat="49.34464" lon="0.89382">
        <ele>122</ele>
        <time>2020-05-17T07:38:17Z</time>
      </trkpt>
      <trkpt lat="49.3447" lon="0.89403">
        <ele>123</ele>
        <time>2020-05-17T07:38:23Z</time>
      </trkpt>
      <trkpt lat="49.34478" lon="0.89427">
        <ele>123</ele>
        <time>2020-05-17T07:38:29Z</time>
      </trkpt>
      <trkpt lat="49.34483" lon="0.8945">
        <ele>121</ele>
        <time>2020-05-17T07:38:35Z</time>
      </trkpt>
      <trkpt lat="49.34482" lon="0.89461">
        <ele>117</ele>
        <time>2020-05-17T07:38:39Z</time>
      </trkpt>
      <trkpt lat="49.34481" lon="0.89473">
        <ele>115</ele>
        <time>2020-05-17T07:38:46Z</time>
      </trkpt>
      <trkpt lat="49.34472" lon="0.89488">
        <ele>112</ele>
        <time>2020-05-17T07:38:50Z</time>
      </trkpt>
      <trkpt lat="49.34469" lon="0.89492">
        <ele>110</ele>
        <time>2020-05-17T07:38:51Z</time>
      </trkpt>
      <trkpt lat="49.34462" lon="0.89501">
        <ele>107</ele>
        <time>2020-05-17T07:38:54Z</time>
      </trkpt>
      <trkpt lat="49.34456" lon="0.89507">
        <ele>103</ele>
        <time>2020-05-17T07:38:57Z</time>
      </trkpt>
      <trkpt lat="49.34446" lon="0.89514">
        <ele>100</ele>
        <time>2020-05-17T07:39:01Z</time>
      </trkpt>
      <trkpt lat="49.34443" lon="0.89517">
        <ele>98</ele>
        <time>2020-05-17T07:39:03Z</time>
      </trkpt>
      <trkpt lat="49.34442" lon="0.89521">
        <ele>97</ele>
        <time>2020-05-17T07:39:05Z</time>
      </trkpt>
      <trkpt lat="49.34441" lon="0.89524">
        <ele>96</ele>
        <time>2020-05-17T07:39:06Z</time>
      </trkpt>
      <trkpt lat="49.3444" lon="0.89526">
        <ele>96</ele>
        <time>2020-05-17T07:39:07Z</time>
      </trkpt>
      <trkpt lat="49.34428" lon="0.89543">
        <ele>92</ele>
        <time>2020-05-17T07:39:12Z</time>
      </trkpt>
      <trkpt lat="49.34417" lon="0.89556">
        <ele>89</ele>
        <time>2020-05-17T07:39:16Z</time>
      </trkpt>
      <trkpt lat="49.34409" lon="0.89567">
        <ele>85</ele>
        <time>2020-05-17T07:39:20Z</time>
      </trkpt>
      <trkpt lat="49.344" lon="0.89581">
        <ele>82</ele>
        <time>2020-05-17T07:39:24Z</time>
      </trkpt>
      <trkpt lat="49.34394" lon="0.89594">
        <ele>81</ele>
        <time>2020-05-17T07:39:27Z</time>
      </trkpt>
      <trkpt lat="49.34389" lon="0.89611">
        <ele>79</ele>
        <time>2020-05-17T07:39:30Z</time>
      </trkpt>
      <trkpt lat="49.34387" lon="0.8963">
        <ele>78</ele>
        <time>2020-05-17T07:39:35Z</time>
      </trkpt>
      <trkpt lat="49.34387" lon="0.89631">
        <ele>78</ele>
        <time>2020-05-17T07:39:40Z</time>
      </trkpt>
      <trkpt lat="49.34388" lon="0.8963">
        <ele>79</ele>
        <time>2020-05-17T07:39:43Z</time>
      </trkpt>
      <trkpt lat="49.34387" lon="0.8963">
        <ele>79</ele>
        <time>2020-05-17T07:39:58Z</time>
      </trkpt>
      <trkpt lat="49.34385" lon="0.89629">
        <ele>79</ele>
        <time>2020-05-17T07:40:16Z</time>
      </trkpt>
      <trkpt lat="49.34386" lon="0.89629">
        <ele>79</ele>
        <time>2020-05-17T07:40:17Z</time>
      </trkpt>
      <trkpt lat="49.34387" lon="0.89631">
        <ele>79</ele>
        <time>2020-05-17T07:40:18Z</time>
      </trkpt>
      <trkpt lat="49.34389" lon="0.89631">
        <ele>79</ele>
        <time>2020-05-17T07:40:19Z</time>
      </trkpt>
      <trkpt lat="49.3439" lon="0.89631">
        <ele>80</ele>
        <time>2020-05-17T07:40:20Z</time>
      </trkpt>
      <trkpt lat="49.34392" lon="0.89631">
        <ele>80</ele>
        <time>2020-05-17T07:40:21Z</time>
      </trkpt>
      <trkpt lat="49.34394" lon="0.89632">
        <ele>80</ele>
        <time>2020-05-17T07:40:22Z</time>
      </trkpt>
      <trkpt lat="49.34395" lon="0.89633">
        <ele>80</ele>
        <time>2020-05-17T07:40:23Z</time>
      </trkpt>
      <trkpt lat="49.34397" lon="0.89633">
        <ele>80</ele>
        <time>2020-05-17T07:40:24Z</time>
      </trkpt>
      <trkpt lat="49.34398" lon="0.89634">
        <ele>80</ele>
        <time>2020-05-17T07:40:25Z</time>
      </trkpt>
      <trkpt lat="49.344" lon="0.89634">
        <ele>81</ele>
        <time>2020-05-17T07:40:27Z</time>
      </trkpt>
      <trkpt lat="49.34401" lon="0.89634">
        <ele>82</ele>
        <time>2020-05-17T07:40:28Z</time>
      </trkpt>
      <trkpt lat="49.34403" lon="0.89635">
        <ele>82</ele>
        <time>2020-05-17T07:40:29Z</time>
      </trkpt>
      <trkpt lat="49.34412" lon="0.89638">
        <ele>83</ele>
        <time>2020-05-17T07:40:35Z</time>
      </trkpt>
      <trkpt lat="49.34422" lon="0.89644">
        <ele>84</ele>
        <time>2020-05-17T07:40:41Z</time>
      </trkpt>
      <trkpt lat="49.34424" lon="0.89645">
        <ele>85</ele>
        <time>2020-05-17T07:40:42Z</time>
      </trkpt>
      <trkpt lat="49.34425" lon="0.89646">
        <ele>85</ele>
        <time>2020-05-17T07:40:43Z</time>
      </trkpt>
      <trkpt lat="49.34426" lon="0.89647">
        <ele>86</ele>
        <time>2020-05-17T07:40:44Z</time>
      </trkpt>
      <trkpt lat="49.34427" lon="0.89648">
        <ele>86</ele>
        <time>2020-05-17T07:40:45Z</time>
      </trkpt>
      <trkpt lat="49.34428" lon="0.89649">
        <ele>86</ele>
        <time>2020-05-17T07:40:46Z</time>
      </trkpt>
      <trkpt lat="49.3443" lon="0.89651">
        <ele>86</ele>
        <time>2020-05-17T07:40:47Z</time>
      </trkpt>
      <trkpt lat="49.34442" lon="0.89663">
        <ele>88</ele>
        <time>2020-05-17T07:40:56Z</time>
      </trkpt>
      <trkpt lat="49.34444" lon="0.89664">
        <ele>88</ele>
        <time>2020-05-17T07:40:57Z</time>
      </trkpt>
      <trkpt lat="49.34467" lon="0.8967">
        <ele>91</ele>
        <time>2020-05-17T07:41:05Z</time>
      </trkpt>
      <trkpt lat="49.34481" lon="0.89674">
        <ele>93</ele>
        <time>2020-05-17T07:41:10Z</time>
      </trkpt>
      <trkpt lat="49.3449" lon="0.89676">
        <ele>93</ele>
        <time>2020-05-17T07:41:13Z</time>
      </trkpt>
      <trkpt lat="49.34493" lon="0.89677">
        <ele>93</ele>
        <time>2020-05-17T07:41:14Z</time>
      </trkpt>
      <trkpt lat="49.34515" lon="0.89676">
        <ele>95</ele>
        <time>2020-05-17T07:41:22Z</time>
      </trkpt>
      <trkpt lat="49.34529" lon="0.89677">
        <ele>96</ele>
        <time>2020-05-17T07:41:29Z</time>
      </trkpt>
      <trkpt lat="49.3454" lon="0.89672">
        <ele>96</ele>
        <time>2020-05-17T07:41:40Z</time>
      </trkpt>
      <trkpt lat="49.34551" lon="0.8968">
        <ele>97</ele>
        <time>2020-05-17T07:42:02Z</time>
      </trkpt>
      <trkpt lat="49.34553" lon="0.8968">
        <ele>97</ele>
        <time>2020-05-17T07:42:15Z</time>
      </trkpt>
      <trkpt lat="49.34558" lon="0.89679">
        <ele>97</ele>
        <time>2020-05-17T07:42:23Z</time>
      </trkpt>
      <trkpt lat="49.34561" lon="0.89679">
        <ele>97</ele>
        <time>2020-05-17T07:42:26Z</time>
      </trkpt>
      <trkpt lat="49.34561" lon="0.8968">
        <ele>97</ele>
        <time>2020-05-17T07:42:27Z</time>
      </trkpt>
      <trkpt lat="49.34563" lon="0.89681">
        <ele>97</ele>
        <time>2020-05-17T07:42:28Z</time>
      </trkpt>
      <trkpt lat="49.34569" lon="0.89685">
        <ele>99</ele>
        <time>2020-05-17T07:42:33Z</time>
      </trkpt>
      <trkpt lat="49.34583" lon="0.89693">
        <ele>100</ele>
        <time>2020-05-17T07:42:42Z</time>
      </trkpt>
      <trkpt lat="49.34595" lon="0.89699">
        <ele>101</ele>
        <time>2020-05-17T07:42:50Z</time>
      </trkpt>
      <trkpt lat="49.34603" lon="0.89704">
        <ele>102</ele>
        <time>2020-05-17T07:42:57Z</time>
      </trkpt>
      <trkpt lat="49.3461" lon="0.89712">
        <ele>102</ele>
        <time>2020-05-17T07:43:03Z</time>
      </trkpt>
      <trkpt lat="49.34611" lon="0.89713">
        <ele>102</ele>
        <time>2020-05-17T07:43:04Z</time>
      </trkpt>
      <trkpt lat="49.34624" lon="0.89724">
        <ele>103</ele>
        <time>2020-05-17T07:43:14Z</time>
      </trkpt>
      <trkpt lat="49.34638" lon="0.89735">
        <ele>104</ele>
        <time>2020-05-17T07:43:23Z</time>
      </trkpt>
      <trkpt lat="49.3464" lon="0.89738">
        <ele>105</ele>
        <time>2020-05-17T07:43:25Z</time>
      </trkpt>
      <trkpt lat="49.34642" lon="0.89742">
        <ele>105</ele>
        <time>2020-05-17T07:43:27Z</time>
      </trkpt>
      <trkpt lat="49.34658" lon="0.89754">
        <ele>107</ele>
        <time>2020-05-17T07:43:35Z</time>
      </trkpt>
      <trkpt lat="49.3467" lon="0.89769">
        <ele>108</ele>
        <time>2020-05-17T07:43:45Z</time>
      </trkpt>
      <trkpt lat="49.34673" lon="0.89775">
        <ele>109</ele>
        <time>2020-05-17T07:43:48Z</time>
      </trkpt>
      <trkpt lat="49.34678" lon="0.89781">
        <ele>110</ele>
        <time>2020-05-17T07:43:56Z</time>
      </trkpt>
      <trkpt lat="49.34679" lon="0.89781">
        <ele>110</ele>
        <time>2020-05-17T07:44:07Z</time>
      </trkpt>
      <trkpt lat="49.3468" lon="0.89782">
        <ele>110</ele>
        <time>2020-05-17T07:44:22Z</time>
      </trkpt>
      <trkpt lat="49.34681" lon="0.89781">
        <ele>110</ele>
        <time>2020-05-17T07:44:34Z</time>
      </trkpt>
      <trkpt lat="49.3468" lon="0.89782">
        <ele>110</ele>
        <time>2020-05-17T07:44:46Z</time>
      </trkpt>
      <trkpt lat="49.34679" lon="0.89784">
        <ele>110</ele>
        <time>2020-05-17T07:44:59Z</time>
      </trkpt>
      <trkpt lat="49.34678" lon="0.89785">
        <ele>109</ele>
        <time>2020-05-17T07:45:03Z</time>
      </trkpt>
      <trkpt lat="49.34677" lon="0.89784">
        <ele>110</ele>
        <time>2020-05-17T07:45:05Z</time>
      </trkpt>
      <trkpt lat="49.34678" lon="0.89784">
        <ele>110</ele>
        <time>2020-05-17T07:45:16Z</time>
      </trkpt>
      <trkpt lat="49.34676" lon="0.89786">
        <ele>110</ele>
        <time>2020-05-17T07:45:22Z</time>
      </trkpt>
      <trkpt lat="49.34677" lon="0.89788">
        <ele>110</ele>
        <time>2020-05-17T07:45:23Z</time>
      </trkpt>
      <trkpt lat="49.34683" lon="0.89802">
        <ele>111</ele>
        <time>2020-05-17T07:45:30Z</time>
      </trkpt>
      <trkpt lat="49.34684" lon="0.89804">
        <ele>112</ele>
        <time>2020-05-17T07:45:31Z</time>
      </trkpt>
      <trkpt lat="49.34687" lon="0.89811">
        <ele>113</ele>
        <time>2020-05-17T07:45:39Z</time>
      </trkpt>
      <trkpt lat="49.34693" lon="0.89821">
        <ele>113</ele>
        <time>2020-05-17T07:45:47Z</time>
      </trkpt>
      <trkpt lat="49.34697" lon="0.89829">
        <ele>114</ele>
        <time>2020-05-17T07:45:51Z</time>
      </trkpt>
      <trkpt lat="49.34698" lon="0.89832">
        <ele>114</ele>
        <time>2020-05-17T07:45:52Z</time>
      </trkpt>
      <trkpt lat="49.34698" lon="0.89835">
        <ele>114</ele>
        <time>2020-05-17T07:45:53Z</time>
      </trkpt>
      <trkpt lat="49.34706" lon="0.89854">
        <ele>115</ele>
        <time>2020-05-17T07:46:00Z</time>
      </trkpt>
      <trkpt lat="49.34712" lon="0.89868">
        <ele>116</ele>
        <time>2020-05-17T07:46:08Z</time>
      </trkpt>
      <trkpt lat="49.34724" lon="0.89881">
        <ele>117</ele>
        <time>2020-05-17T07:46:16Z</time>
      </trkpt>
      <trkpt lat="49.34729" lon="0.89885">
        <ele>117</ele>
        <time>2020-05-17T07:46:19Z</time>
      </trkpt>
      <trkpt lat="49.34731" lon="0.89887">
        <ele>118</ele>
        <time>2020-05-17T07:46:20Z</time>
      </trkpt>
      <trkpt lat="49.34732" lon="0.8989">
        <ele>118</ele>
        <time>2020-05-17T07:46:21Z</time>
      </trkpt>
      <trkpt lat="49.34734" lon="0.89892">
        <ele>118</ele>
        <time>2020-05-17T07:46:22Z</time>
      </trkpt>
      <trkpt lat="49.34736" lon="0.89894">
        <ele>118</ele>
        <time>2020-05-17T07:46:23Z</time>
      </trkpt>
      <trkpt lat="49.34737" lon="0.89895">
        <ele>118</ele>
        <time>2020-05-17T07:46:24Z</time>
      </trkpt>
      <trkpt lat="49.34739" lon="0.89896">
        <ele>118</ele>
        <time>2020-05-17T07:46:25Z</time>
      </trkpt>
      <trkpt lat="49.3474" lon="0.89898">
        <ele>119</ele>
        <time>2020-05-17T07:46:26Z</time>
      </trkpt>
      <trkpt lat="49.34741" lon="0.89899">
        <ele>119</ele>
        <time>2020-05-17T07:46:27Z</time>
      </trkpt>
      <trkpt lat="49.34742" lon="0.89901">
        <ele>119</ele>
        <time>2020-05-17T07:46:28Z</time>
      </trkpt>
      <trkpt lat="49.34743" lon="0.89903">
        <ele>119</ele>
        <time>2020-05-17T07:46:29Z</time>
      </trkpt>
      <trkpt lat="49.34745" lon="0.89905">
        <ele>119</ele>
        <time>2020-05-17T07:46:30Z</time>
      </trkpt>
      <trkpt lat="49.34746" lon="0.89906">
        <ele>119</ele>
        <time>2020-05-17T07:46:31Z</time>
      </trkpt>
      <trkpt lat="49.34759" lon="0.89919">
        <ele>121</ele>
        <time>2020-05-17T07:46:36Z</time>
      </trkpt>
      <trkpt lat="49.34774" lon="0.89927">
        <ele>122</ele>
        <time>2020-05-17T07:46:44Z</time>
      </trkpt>
      <trkpt lat="49.3479" lon="0.89938">
        <ele>123</ele>
        <time>2020-05-17T07:46:53Z</time>
      </trkpt>
      <trkpt lat="49.34798" lon="0.89945">
        <ele>124</ele>
        <time>2020-05-17T07:46:59Z</time>
      </trkpt>
      <trkpt lat="49.34803" lon="0.89949">
        <ele>125</ele>
        <time>2020-05-17T07:47:04Z</time>
      </trkpt>
      <trkpt lat="49.34808" lon="0.89956">
        <ele>126</ele>
        <time>2020-05-17T07:47:09Z</time>
      </trkpt>
      <trkpt lat="49.3481" lon="0.89958">
        <ele>126</ele>
        <time>2020-05-17T07:47:10Z</time>
      </trkpt>
      <trkpt lat="49.34818" lon="0.89962">
        <ele>126</ele>
        <time>2020-05-17T07:47:13Z</time>
      </trkpt>
      <trkpt lat="49.34821" lon="0.89963">
        <ele>127</ele>
        <time>2020-05-17T07:47:14Z</time>
      </trkpt>
      <trkpt lat="49.34823" lon="0.89965">
        <ele>127</ele>
        <time>2020-05-17T07:47:15Z</time>
      </trkpt>
      <trkpt lat="49.34829" lon="0.89972">
        <ele>128</ele>
        <time>2020-05-17T07:47:18Z</time>
      </trkpt>
      <trkpt lat="49.34831" lon="0.89972">
        <ele>128</ele>
        <time>2020-05-17T07:47:19Z</time>
      </trkpt>
      <trkpt lat="49.34832" lon="0.8997">
        <ele>128</ele>
        <time>2020-05-17T07:47:20Z</time>
      </trkpt>
      <trkpt lat="49.34831" lon="0.8997">
        <ele>128</ele>
        <time>2020-05-17T07:47:21Z</time>
      </trkpt>
      <trkpt lat="49.3483" lon="0.89971">
        <ele>128</ele>
        <time>2020-05-17T07:47:22Z</time>
      </trkpt>
      <trkpt lat="49.3483" lon="0.89974">
        <ele>128</ele>
        <time>2020-05-17T07:47:27Z</time>
      </trkpt>
      <trkpt lat="49.34831" lon="0.89974">
        <ele>124</ele>
        <time>2020-05-17T07:47:31Z</time>
      </trkpt>
      <trkpt lat="49.34831" lon="0.89974">
        <ele>124</ele>
        <time>2020-05-17T07:47:32Z</time>
      </trkpt>
      <trkpt lat="49.34831" lon="0.89974">
        <ele>128</ele>
        <time>2020-05-17T07:47:33Z</time>
      </trkpt>
      <trkpt lat="49.34835" lon="0.89977">
        <ele>127</ele>
        <time>2020-05-17T07:47:48Z</time>
      </trkpt>
      <trkpt lat="49.34835" lon="0.8998">
        <ele>127</ele>
        <time>2020-05-17T07:49:48Z</time>
      </trkpt>
      <trkpt lat="49.34835" lon="0.89981">
        <ele>127</ele>
        <time>2020-05-17T07:50:02Z</time>
      </trkpt>
      <trkpt lat="49.34835" lon="0.89983">
        <ele>127</ele>
        <time>2020-05-17T07:50:10Z</time>
      </trkpt>
      <trkpt lat="49.34834" lon="0.89986">
        <ele>127</ele>
        <time>2020-05-17T07:50:13Z</time>
      </trkpt>
      <trkpt lat="49.34833" lon="0.89988">
        <ele>127</ele>
        <time>2020-05-17T07:50:14Z</time>
      </trkpt>
      <trkpt lat="49.34827" lon="0.90004">
        <ele>128</ele>
        <time>2020-05-17T07:50:22Z</time>
      </trkpt>
      <trkpt lat="49.34818" lon="0.90023">
        <ele>130</ele>
        <time>2020-05-17T07:50:31Z</time>
      </trkpt>
      <trkpt lat="49.34807" lon="0.90036">
        <ele>132</ele>
        <time>2020-05-17T07:50:39Z</time>
      </trkpt>
      <trkpt lat="49.34806" lon="0.90037">
        <ele>132</ele>
        <time>2020-05-17T07:50:40Z</time>
      </trkpt>
      <trkpt lat="49.34805" lon="0.90038">
        <ele>132</ele>
        <time>2020-05-17T07:50:41Z</time>
      </trkpt>
      <trkpt lat="49.34803" lon="0.9004">
        <ele>132</ele>
        <time>2020-05-17T07:50:42Z</time>
      </trkpt>
      <trkpt lat="49.34802" lon="0.90041">
        <ele>132</ele>
        <time>2020-05-17T07:50:43Z</time>
      </trkpt>
      <trkpt lat="49.34797" lon="0.90044">
        <ele>132</ele>
        <time>2020-05-17T07:50:47Z</time>
      </trkpt>
      <trkpt lat="49.34795" lon="0.90045">
        <ele>132</ele>
        <time>2020-05-17T07:50:48Z</time>
      </trkpt>
      <trkpt lat="49.34794" lon="0.90045">
        <ele>132</ele>
        <time>2020-05-17T07:50:49Z</time>
      </trkpt>
      <trkpt lat="49.3478" lon="0.90053">
        <ele>133</ele>
        <time>2020-05-17T07:50:57Z</time>
      </trkpt>
      <trkpt lat="49.34766" lon="0.90065">
        <ele>133</ele>
        <time>2020-05-17T07:51:06Z</time>
      </trkpt>
      <trkpt lat="49.34753" lon="0.90082">
        <ele>133</ele>
        <time>2020-05-17T07:51:14Z</time>
      </trkpt>
      <trkpt lat="49.34739" lon="0.90097">
        <ele>134</ele>
        <time>2020-05-17T07:51:21Z</time>
      </trkpt>
      <trkpt lat="49.34713" lon="0.90119">
        <ele>135</ele>
        <time>2020-05-17T07:51:32Z</time>
      </trkpt>
      <trkpt lat="49.34692" lon="0.90133">
        <ele>135</ele>
        <time>2020-05-17T07:51:41Z</time>
      </trkpt>
      <trkpt lat="49.34668" lon="0.90149">
        <ele>135</ele>
        <time>2020-05-17T07:51:50Z</time>
      </trkpt>
      <trkpt lat="49.34647" lon="0.90179">
        <ele>135</ele>
        <time>2020-05-17T07:51:59Z</time>
      </trkpt>
      <trkpt lat="49.3463" lon="0.90196">
        <ele>135</ele>
        <time>2020-05-17T07:52:06Z</time>
      </trkpt>
      <trkpt lat="49.34625" lon="0.90195">
        <ele>135</ele>
        <time>2020-05-17T07:52:07Z</time>
      </trkpt>
      <trkpt lat="49.34623" lon="0.90194">
        <ele>135</ele>
        <time>2020-05-17T07:52:08Z</time>
      </trkpt>
      <trkpt lat="49.3462" lon="0.90191">
        <ele>135</ele>
        <time>2020-05-17T07:52:09Z</time>
      </trkpt>
      <trkpt lat="49.34618" lon="0.90187">
        <ele>135</ele>
        <time>2020-05-17T07:52:10Z</time>
      </trkpt>
      <trkpt lat="49.34616" lon="0.90184">
        <ele>135</ele>
        <time>2020-05-17T07:52:11Z</time>
      </trkpt>
      <trkpt lat="49.34613" lon="0.90181">
        <ele>135</ele>
        <time>2020-05-17T07:52:12Z</time>
      </trkpt>
      <trkpt lat="49.34611" lon="0.90177">
        <ele>135</ele>
        <time>2020-05-17T07:52:13Z</time>
      </trkpt>
      <trkpt lat="49.34591" lon="0.90149">
        <ele>134</ele>
        <time>2020-05-17T07:52:22Z</time>
      </trkpt>
      <trkpt lat="49.34565" lon="0.90128">
        <ele>134</ele>
        <time>2020-05-17T07:52:30Z</time>
      </trkpt>
      <trkpt lat="49.34538" lon="0.90118">
        <ele>133</ele>
        <time>2020-05-17T07:52:37Z</time>
      </trkpt>
      <trkpt lat="49.34534" lon="0.90118">
        <ele>133</ele>
        <time>2020-05-17T07:52:38Z</time>
      </trkpt>
      <trkpt lat="49.34489" lon="0.90127">
        <ele>132</ele>
        <time>2020-05-17T07:52:49Z</time>
      </trkpt>
      <trkpt lat="49.34447" lon="0.90133">
        <ele>130</ele>
        <time>2020-05-17T07:53:00Z</time>
      </trkpt>
      <trkpt lat="49.34411" lon="0.90129">
        <ele>130</ele>
        <time>2020-05-17T07:53:09Z</time>
      </trkpt>
      <trkpt lat="49.34398" lon="0.90126">
        <ele>130</ele>
        <time>2020-05-17T07:53:12Z</time>
      </trkpt>
      <trkpt lat="49.34365" lon="0.90117">
        <ele>129</ele>
        <time>2020-05-17T07:53:20Z</time>
      </trkpt>
      <trkpt lat="49.3434" lon="0.90129">
        <ele>128</ele>
        <time>2020-05-17T07:53:28Z</time>
      </trkpt>
      <trkpt lat="49.34323" lon="0.90132">
        <ele>128</ele>
        <time>2020-05-17T07:53:35Z</time>
      </trkpt>
      <trkpt lat="49.34302" lon="0.90133">
        <ele>128</ele>
        <time>2020-05-17T07:53:43Z</time>
      </trkpt>
      <trkpt lat="49.34282" lon="0.90138">
        <ele>128</ele>
        <time>2020-05-17T07:53:51Z</time>
      </trkpt>
      <trkpt lat="49.34262" lon="0.90148">
        <ele>128</ele>
        <time>2020-05-17T07:53:58Z</time>
      </trkpt>
      <trkpt lat="49.34236" lon="0.90162">
        <ele>128</ele>
        <time>2020-05-17T07:54:07Z</time>
      </trkpt>
      <trkpt lat="49.34214" lon="0.90174">
        <ele>128</ele>
        <time>2020-05-17T07:54:15Z</time>
      </trkpt>
      <trkpt lat="49.34204" lon="0.90188">
        <ele>128</ele>
        <time>2020-05-17T07:54:21Z</time>
      </trkpt>
      <trkpt lat="49.34203" lon="0.9019">
        <ele>128</ele>
        <time>2020-05-17T07:54:22Z</time>
      </trkpt>
      <trkpt lat="49.34202" lon="0.90194">
        <ele>128</ele>
        <time>2020-05-17T07:54:23Z</time>
      </trkpt>
      <trkpt lat="49.34201" lon="0.90196">
        <ele>128</ele>
        <time>2020-05-17T07:54:24Z</time>
      </trkpt>
      <trkpt lat="49.342" lon="0.90198">
        <ele>128</ele>
        <time>2020-05-17T07:54:25Z</time>
      </trkpt>
      <trkpt lat="49.34197" lon="0.90201">
        <ele>128</ele>
        <time>2020-05-17T07:54:26Z</time>
      </trkpt>
      <trkpt lat="49.34194" lon="0.90202">
        <ele>128</ele>
        <time>2020-05-17T07:54:27Z</time>
      </trkpt>
      <trkpt lat="49.34192" lon="0.90203">
        <ele>128</ele>
        <time>2020-05-17T07:54:28Z</time>
      </trkpt>
      <trkpt lat="49.3419" lon="0.90205">
        <ele>128</ele>
        <time>2020-05-17T07:54:29Z</time>
      </trkpt>
      <trkpt lat="49.34188" lon="0.90207">
        <ele>128</ele>
        <time>2020-05-17T07:54:30Z</time>
      </trkpt>
      <trkpt lat="49.34187" lon="0.90209">
        <ele>128</ele>
        <time>2020-05-17T07:54:31Z</time>
      </trkpt>
      <trkpt lat="49.34185" lon="0.90211">
        <ele>128</ele>
        <time>2020-05-17T07:54:32Z</time>
      </trkpt>
      <trkpt lat="49.34183" lon="0.90213">
        <ele>128</ele>
        <time>2020-05-17T07:54:33Z</time>
      </trkpt>
      <trkpt lat="49.34171" lon="0.90228">
        <ele>128</ele>
        <time>2020-05-17T07:54:39Z</time>
      </trkpt>
      <trkpt lat="49.34153" lon="0.90246">
        <ele>128</ele>
        <time>2020-05-17T07:54:46Z</time>
      </trkpt>
      <trkpt lat="49.34134" lon="0.90267">
        <ele>128</ele>
        <time>2020-05-17T07:54:53Z</time>
      </trkpt>
      <trkpt lat="49.34117" lon="0.90289">
        <ele>128</ele>
        <time>2020-05-17T07:55:00Z</time>
      </trkpt>
      <trkpt lat="49.34095" lon="0.90314">
        <ele>128</ele>
        <time>2020-05-17T07:55:08Z</time>
      </trkpt>
      <trkpt lat="49.34077" lon="0.90327">
        <ele>128</ele>
        <time>2020-05-17T07:55:13Z</time>
      </trkpt>
      <trkpt lat="49.34065" lon="0.90345">
        <ele>128</ele>
        <time>2020-05-17T07:55:18Z</time>
      </trkpt>
      <trkpt lat="49.34057" lon="0.90384">
        <ele>128</ele>
        <time>2020-05-17T07:55:26Z</time>
      </trkpt>
      <trkpt lat="49.34035" lon="0.90437">
        <ele>128</ele>
        <time>2020-05-17T08:07:00Z</time>
      </trkpt>
      <trkpt lat="49.34034" lon="0.90438">
        <ele>128</ele>
        <time>2020-05-17T08:07:01Z</time>
      </trkpt>
      <trkpt lat="49.34033" lon="0.9044">
        <ele>128</ele>
        <time>2020-05-17T08:07:02Z</time>
      </trkpt>
      <trkpt lat="49.34032" lon="0.90441">
        <ele>128</ele>
        <time>2020-05-17T08:07:03Z</time>
      </trkpt>
      <trkpt lat="49.3403" lon="0.90443">
        <ele>128</ele>
        <time>2020-05-17T08:07:04Z</time>
      </trkpt>
      <trkpt lat="49.34028" lon="0.90445">
        <ele>128</ele>
        <time>2020-05-17T08:07:05Z</time>
      </trkpt>
      <trkpt lat="49.34025" lon="0.90447">
        <ele>128</ele>
        <time>2020-05-17T08:07:06Z</time>
      </trkpt>
      <trkpt lat="49.34009" lon="0.90467">
        <ele>128</ele>
        <time>2020-05-17T08:07:13Z</time>
      </trkpt>
      <trkpt lat="49.34001" lon="0.90493">
        <ele>128</ele>
        <time>2020-05-17T08:07:19Z</time>
      </trkpt>
      <trkpt lat="49.33996" lon="0.90536">
        <ele>128</ele>
        <time>2020-05-17T08:07:27Z</time>
      </trkpt>
      <trkpt lat="49.33993" lon="0.90577">
        <ele>128</ele>
        <time>2020-05-17T08:07:34Z</time>
      </trkpt>
      <trkpt lat="49.33992" lon="0.90583">
        <ele>128</ele>
        <time>2020-05-17T08:07:35Z</time>
      </trkpt>
      <trkpt lat="49.3399" lon="0.90626">
        <ele>128</ele>
        <time>2020-05-17T08:07:42Z</time>
      </trkpt>
      <trkpt lat="49.33987" lon="0.90664">
        <ele>127</ele>
        <time>2020-05-17T08:07:48Z</time>
      </trkpt>
      <trkpt lat="49.33983" lon="0.90712">
        <ele>127</ele>
        <time>2020-05-17T08:07:55Z</time>
      </trkpt>
      <trkpt lat="49.33981" lon="0.90735">
        <ele>126</ele>
        <time>2020-05-17T08:07:58Z</time>
      </trkpt>
      <trkpt lat="49.33975" lon="0.90808">
        <ele>124</ele>
        <time>2020-05-17T08:08:06Z</time>
      </trkpt>
      <trkpt lat="49.33974" lon="0.90817">
        <ele>124</ele>
        <time>2020-05-17T08:08:07Z</time>
      </trkpt>
      <trkpt lat="49.33973" lon="0.90828">
        <ele>124</ele>
        <time>2020-05-17T08:08:08Z</time>
      </trkpt>
      <trkpt lat="49.33973" lon="0.90847">
        <ele>123</ele>
        <time>2020-05-17T08:08:10Z</time>
      </trkpt>
      <trkpt lat="49.33975" lon="0.90866">
        <ele>122</ele>
        <time>2020-05-17T08:08:12Z</time>
      </trkpt>
      <trkpt lat="49.33977" lon="0.90876">
        <ele>122</ele>
        <time>2020-05-17T08:08:13Z</time>
      </trkpt>
      <trkpt lat="49.33979" lon="0.90884">
        <ele>122</ele>
        <time>2020-05-17T08:08:14Z</time>
      </trkpt>
      <trkpt lat="49.33989" lon="0.90919">
        <ele>121</ele>
        <time>2020-05-17T08:08:18Z</time>
      </trkpt>
      <trkpt lat="49.33993" lon="0.90946">
        <ele>121</ele>
        <time>2020-05-17T08:08:21Z</time>
      </trkpt>
      <trkpt lat="49.33993" lon="0.90954">
        <ele>121</ele>
        <time>2020-05-17T08:08:22Z</time>
      </trkpt>
      <trkpt lat="49.33994" lon="0.90977">
        <ele>120</ele>
        <time>2020-05-17T08:08:25Z</time>
      </trkpt>
      <trkpt lat="49.33993" lon="0.90986">
        <ele>120</ele>
        <time>2020-05-17T08:08:26Z</time>
      </trkpt>
      <trkpt lat="49.33992" lon="0.90993">
        <ele>120</ele>
        <time>2020-05-17T08:08:27Z</time>
      </trkpt>
      <trkpt lat="49.33991" lon="0.90999">
        <ele>120</ele>
        <time>2020-05-17T08:08:28Z</time>
      </trkpt>
      <trkpt lat="49.33989" lon="0.91007">
        <ele>120</ele>
        <time>2020-05-17T08:08:29Z</time>
      </trkpt>
      <trkpt lat="49.33987" lon="0.91014">
        <ele>120</ele>
        <time>2020-05-17T08:08:30Z</time>
      </trkpt>
      <trkpt lat="49.33986" lon="0.91019">
        <ele>120</ele>
        <time>2020-05-17T08:08:31Z</time>
      </trkpt>
      <trkpt lat="49.33971" lon="0.91068">
        <ele>117</ele>
        <time>2020-05-17T08:08:37Z</time>
      </trkpt>
      <trkpt lat="49.3397" lon="0.91078">
        <ele>117</ele>
        <time>2020-05-17T08:08:38Z</time>
      </trkpt>
      <trkpt lat="49.33965" lon="0.91118">
        <ele>116</ele>
        <time>2020-05-17T08:08:42Z</time>
      </trkpt>
      <trkpt lat="49.33961" lon="0.91128">
        <ele>115</ele>
        <time>2020-05-17T08:08:43Z</time>
      </trkpt>
      <trkpt lat="49.33957" lon="0.91138">
        <ele>115</ele>
        <time>2020-05-17T08:08:44Z</time>
      </trkpt>
      <trkpt lat="49.33932" lon="0.91202">
        <ele>112</ele>
        <time>2020-05-17T08:08:50Z</time>
      </trkpt>
      <trkpt lat="49.33929" lon="0.91213">
        <ele>112</ele>
        <time>2020-05-17T08:08:51Z</time>
      </trkpt>
      <trkpt lat="49.33921" lon="0.91236">
        <ele>110</ele>
        <time>2020-05-17T08:08:53Z</time>
      </trkpt>
      <trkpt lat="49.33917" lon="0.91247">
        <ele>109</ele>
        <time>2020-05-17T08:08:54Z</time>
      </trkpt>
      <trkpt lat="49.33894" lon="0.91288">
        <ele>108</ele>
        <time>2020-05-17T08:08:58Z</time>
      </trkpt>
      <trkpt lat="49.33851" lon="0.91353">
        <ele>104</ele>
        <time>2020-05-17T08:09:04Z</time>
      </trkpt>
      <trkpt lat="49.33842" lon="0.91364">
        <ele>104</ele>
        <time>2020-05-17T08:09:05Z</time>
      </trkpt>
      <trkpt lat="49.33807" lon="0.91402">
        <ele>101</ele>
        <time>2020-05-17T08:09:09Z</time>
      </trkpt>
      <trkpt lat="49.3376" lon="0.91442">
        <ele>97</ele>
        <time>2020-05-17T08:09:14Z</time>
      </trkpt>
      <trkpt lat="49.33721" lon="0.91468">
        <ele>94</ele>
        <time>2020-05-17T08:09:18Z</time>
      </trkpt>
      <trkpt lat="49.3369" lon="0.91483">
        <ele>92</ele>
        <time>2020-05-17T08:09:21Z</time>
      </trkpt>
      <trkpt lat="49.3365" lon="0.91506">
        <ele>89</ele>
        <time>2020-05-17T08:09:25Z</time>
      </trkpt>
      <trkpt lat="49.33633" lon="0.9152">
        <ele>88</ele>
        <time>2020-05-17T08:09:27Z</time>
      </trkpt>
      <trkpt lat="49.33624" lon="0.91529">
        <ele>88</ele>
        <time>2020-05-17T08:09:28Z</time>
      </trkpt>
      <trkpt lat="49.33617" lon="0.91539">
        <ele>87</ele>
        <time>2020-05-17T08:09:29Z</time>
      </trkpt>
      <trkpt lat="49.3361" lon="0.91549">
        <ele>85</ele>
        <time>2020-05-17T08:09:30Z</time>
      </trkpt>
      <trkpt lat="49.33583" lon="0.91605">
        <ele>82</ele>
        <time>2020-05-17T08:09:36Z</time>
      </trkpt>
      <trkpt lat="49.33581" lon="0.91616">
        <ele>82</ele>
        <time>2020-05-17T08:09:37Z</time>
      </trkpt>
      <trkpt lat="49.33575" lon="0.91666">
        <ele>80</ele>
        <time>2020-05-17T08:09:42Z</time>
      </trkpt>
      <trkpt lat="49.33572" lon="0.91688">
        <ele>79</ele>
        <time>2020-05-17T08:09:44Z</time>
      </trkpt>
      <trkpt lat="49.33555" lon="0.9176">
        <ele>76</ele>
        <time>2020-05-17T08:09:50Z</time>
      </trkpt>
      <trkpt lat="49.33546" lon="0.91801">
        <ele>72</ele>
        <time>2020-05-17T08:09:54Z</time>
      </trkpt>
    </trkseg>
  </trk>
</gpx>